     2              OBSERVATION DATA    GPS                 RINEX VERSION / TYPE
teqc 2000Jul20 Karen Wendt 20020411 23:20:15UTC             PGM / RUN BY / DATE
                                                            COMMENT
L2: 1 -> 1; 150 -> 5; 250 -> 9                              COMMENT
L2: 1 -> 1; 150 -> 5; 250 -> 9                              COMMENT
L2: 1 -> 1; 150 -> 5; 250 -> 9                              COMMENT
L2: 1 -> 1; 150 -> 5; 250 -> 9                              COMMENT
L2: 1 -> 1; 150 -> 5; 250 -> 9                              COMMENT
L2: 1 -> 1; 150 -> 5; 250 -> 9                              COMMENT
L2: 1 -> 1; 150 -> 5; 250 -> 9                              COMMENT
L2: 1 -> 1; 150 -> 5; 250 -> 9                              COMMENT
L2: 1 -> 1; 150 -> 5; 250 -> 9                              COMMENT
L2: 1 -> 1; 150 -> 5; 250 -> 9                              COMMENT
L2: 1 -> 1; 150 -> 5; 250 -> 9                              COMMENT
L2: 1 -> 1; 150 -> 5; 250 -> 9                              COMMENT
L2: 1 -> 1; 150 -> 5; 250 -> 9                              COMMENT
L2: 1 -> 1; 150 -> 5; 250 -> 9                              COMMENT
Original Marker Name: grlz Granite_LZ_94_USGS               COMMENT
Campaign Name: USGS Mojave 2002                             COMMENT
4-Character Station Name: GRLZ                              COMMENT
6-Character Antenna Code: DMRCHT                            COMMENT
Vertical Measurement Point: BCR                             COMMENT
Vertical Offset to Rinex Ref. Point: 0.0348                 COMMENT
Radial Measurement Point: ECF                               COMMENT
Radial Offset to Rinex Ref. Point: 0.1897                   COMMENT
Antenna Height from Field Measurement: 1.3260 m             COMMENT
Additional Antenna Identification Info.:                    COMMENT
Turborogue and Ashtech Choke Ring                           COMMENT
Original XYZ: -2329256.8539 -4652203.2336 3679856.4717      COMMENT
New XYZ position is based on association with SCEC monument COMMENT
E1F4G6X9+0011. Position of that monument is believed to be  COMMENT
valid to within 1 m horizontally; vertical accuracy         COMMENT
should be no worse than 3-times this value.                 COMMENT
                                                            COMMENT
Revised Rinex header created by UCSD GPS archive for        COMMENT
GSAC on 17-Jul-2003 (2003:198) 21:12:01 GMT                 COMMENT
For assistance contact dagnew@ucsd.edu                      COMMENT
or anderson@python.ucsd.edu                                 COMMENT
                                                            COMMENT
GRAN LZ 94                                                  MARKER NAME
JMS US GEOLOGICAL SURVEY                                    OBSERVER / AGENCY
04600 ASHTECH Z-XII3 CD00                                   REC # / TYPE / VERS
CR14341 DORNE-MARGOL. TYPE T                                ANT # / TYPE
 -2329274.8314 -4652172.6647  3679840.2954                  APPROX POSITION XYZ
        1.2776        0.0000        0.0000                  ANTENNA: DELTA H/E/N
     1     1     0                                          WAVELENGTH FACT L1/2
     5    C1    L1    L2    P1    P2                        # / TYPES OF OBSERV
    30                                                      INTERVAL
  2002     4     4     0     1    0.000000                  TIME OF FIRST OBS
  2002     4     4    23     8   30.000000                  TIME OF LAST OBS
                                                            END OF HEADER
 02  4  4  0  1  0.0000000  0 10G 6G26G18G22G17G15G 3G23G21G29
  22798531.479   -16854507.41649 -13117427.20546  22798531.645    22798545.435
  22568050.510   -13334725.50749 -10370967.00746  22568050.894    22568061.082
  20374580.569   -24905762.33749 -19372628.00648  20374580.602    20374588.119
  24502920.393    -2840786.87949  -2173715.58645  24502919.881    24502939.432
  20522799.312   -23722534.34049 -18156763.86448  20522799.242    20522808.341
  20368431.063   -26821006.76849 -20242881.10748  20368430.829    20368439.789
  23197557.531   -10292883.61149  -7998365.89446  23197557.476    23197570.186
  22815538.126   -12920223.30249 -10036272.54646  22815537.962    22815548.062
  22003535.557   -19790248.78249 -15057286.12547  22003535.530    22003546.761
  21005796.103   -25036206.29949 -19454487.21247  21005796.340    21005805.819
 02  4  4  0  1 30.0000000  0 10G 6G26G18G22G17G15G 3G23G21G29
  22817858.654   -16752943.34949 -13038286.60946  22817858.834    22817872.637
  22581772.984   -13262612.81649 -10314775.34646  22581773.463    22581783.671
  20375086.319   -24903104.49149 -19370556.94348  20375086.341    20375093.860
  24514395.856    -2780483.65149  -2126726.27745  24514395.287    24514414.978
  20523847.354   -23717026.96949 -18152472.41148  20523847.266    20523856.356
  20366075.543   -26833385.20549 -20252526.62448  20366075.280    20366084.231
  23181792.662   -10375727.90049  -8062919.73546  23181792.659    23181805.285
  22829744.419   -12845568.72449  -9978100.20446  22829744.337    22829754.375
  21994737.836   -19836480.71049 -15093310.89947  21994737.790    21994749.042
  20996412.241   -25085518.37449 -19492912.11647  20996412.486    20996421.943
 02  4  4  0  2  0.0000000  0 10G 6G26G18G22G17G15G 3G23G21G29
  22837230.919   -16651142.47949 -12958961.50646  22837231.093    22837244.933
  22595590.430   -13190002.08349 -10258195.58346  22595590.898    22595600.987
  20375662.631   -24900075.81849 -19368196.92648  20375662.642    20375670.166
  24525916.301    -2719943.78649  -2079552.57345  24525915.771    24525935.550
  20524944.260   -23711262.70349 -18147980.77848  20524944.177    20524953.224
  20363770.856   -26845496.30149 -20261963.82648  20363770.575    20363779.507
  23166090.493   -10458242.62249  -8127216.77346  23166090.520    23166103.068
  22843963.383   -12770847.68349  -9919876.08246  22843963.263    22843973.361
  21985989.629   -19882452.45949 -15129132.93547  21985989.576    21986000.810
  20987123.538   -25134330.33649 -19530947.32147  20987123.807    20987133.214
 02  4  4  0  2 30.0000000  0 10G 6G26G18G22G17G15G 3G23G21G29
  22856647.580   -16549108.16849 -12879454.49646  22856647.792    22856661.708
  22609502.064   -13116896.62049 -10201230.33546  22609502.477    22609512.486
  20376309.185   -24896677.98149 -19365549.24548  20376309.185    20376316.740
  24537481.117    -2659170.88349  -2032197.27745  24537480.635    24537500.408
  20526090.109   -23705241.36849 -18143288.83247  20526090.004    20526099.051
  20361517.049   -26857340.21749 -20271192.83048  20361516.765    20361525.677
  23150451.256   -10540426.10249  -8191255.70146  23150451.347    23150463.903
  22858194.619   -12696062.42849  -9861601.91446  22858194.491    22858204.573
  21977290.712   -19928165.37749 -15164753.29047  21977290.658    21977301.831
  20977930.224   -25182641.16649 -19568592.03747  20977930.501    20977939.892
 02  4  4  0  3  0.0000000  0 10G 6G26G18G22G17G15G 3G23G21G29
  22876107.968   -16446843.81649 -12799768.22346  22876108.200    22876122.160
  22623507.047   -13043300.21149 -10143882.51146  22623507.481    22623517.469
  20377025.622   -24892912.96149 -19362615.44848  20377025.639    20377033.174
  24549089.609    -2598168.91349  -1984663.48845  24549089.268    24549108.969
  20527284.833   -23698962.85049 -18138396.48047  20527284.737    20527293.794
  20359314.039   -26868916.79549 -20280213.52248  20359313.770    20359322.683
  23134875.485   -10622276.80349  -8255035.32946  23134875.549    23134888.098
  22872437.595   -12621215.31249  -9803279.54046  22872437.471    22872447.569
  21968640.871   -19973620.11449 -15200172.46747  21968640.847    21968651.987
  20968832.469   -25230450.18449 -19605845.73447  20968832.689    20968842.034
 02  4  4  0  3 30.0000000  0 10G 6G26G18G22G17G15G 3G23G21G29
  22895612.121   -16344350.01649 -12719903.19046  22895612.307    22895626.333
  22637605.350   -12969213.48649 -10086152.63646  22637605.742    22637615.754
  20377812.064   -24888780.13649 -19359395.04848  20377812.054    20377819.574
  24560741.542    -2536938.74649  -1936951.89645  24560741.122    24560760.920
  20528528.962   -23692424.73049 -18133301.83847  20528528.875    20528537.942
  20357162.392   -26880223.60749 -20289024.00248  20357162.140    20357171.038
  23119363.776   -10703790.33649  -8318552.21546  23119363.938    23119376.455
  22886692.405   -12546305.98549  -9744908.69346  22886692.293    22886702.449
  21960040.478   -20018815.18949 -15235389.30947  21960040.440    21960051.567
  20959830.798   -25277753.99349 -19642705.75647  20959831.011    20959840.298
 02  4  4  0  4  0.0000000  0 10G 6G26G18G22G17G15G 3G23G21G29
  22915159.107   -16241630.75049 -12639862.44546  22915159.314    22915173.400
  22651796.027   -12894640.79449 -10028044.08746  22651796.467    22651806.416
  20378667.852   -24884282.69749 -19355890.54248  20378667.862    20378675.386
  24572435.926    -2475484.78549  -1889065.91245  24572435.527    24572455.358
  20529822.403   -23685627.58249 -18128005.36047  20529822.320    20529831.405
  20355061.982   -26891261.23349 -20297624.73448  20355061.724    20355070.612
  23103916.488   -10784966.12749  -8381805.94246  23103916.582    23103929.177
  22900958.457   -12471337.41849  -9686491.69446  22900958.376    22900968.545
  21951489.054   -20063752.98749 -15270405.67747  21951489.001    21951500.068
  20950925.233   -25324552.63649 -19679172.14747  20950925.486    20950934.727
 02  4  4  0  4 30.0000000  0 10G 6G26G18G22G17G15G 3G23G21G29
  22934748.883   -16138687.03049 -12559646.82146  22934749.093    22934763.225
  22666079.080   -12819583.54849  -9969557.96246  22666079.460    22666089.438
  20379593.100   -24879420.36949 -19352101.70748  20379593.131    20379600.641
  24584172.587    -2413808.71049  -1841006.83745  24584172.262    24584192.096
  20531165.485   -23678569.48749 -18122505.54647  20531165.410    20531174.492
  20353013.242   -26902027.20049 -20306013.78448  20353012.972    20353021.863
  23088534.000   -10865800.40049  -8444793.54746  23088534.231    23088546.822
  22915235.748   -12396309.88249  -9628028.74146  22915235.662    22915245.868
  21942986.754   -20108432.33149 -15305220.65047  21942986.737    21942997.770
  20942116.318   -25370843.38149 -19715242.74947  20942116.555    20942125.782
 02  4  4  0  5  0.0000000  0 10G 6G26G18G22G17G15G 3G23G21G29
  22954380.772   -16035521.59649 -12479258.43346  22954380.992    22954395.165
  22680453.692   -12744044.54149  -9910696.43846  22680454.098    22680464.187
  20380587.559   -24874194.49649 -19348029.58448  20380587.583    20380595.052
  24595950.973    -2351913.70049  -1792777.19745  24595950.547    24595970.666
  20532558.421   -23671249.52149 -18116801.67247  20532558.346    20532567.440
  20351016.317   -26912520.90249 -20314190.68048  20351016.055    20351024.958
  23073216.944   -10946290.98049  -8507513.33746  23073217.264    23073229.832
  22929524.053   -12321224.73149  -9569520.89546  22929523.941    22929534.170
  21934533.591   -20152853.57449 -15339834.50547  21934533.569    21934544.590
  20933404.327   -25416624.74849 -19750916.45847  20933404.596    20933413.807
 02  4  4  0  5 30.0000000  0 10G 6G26G18G22G17G15G 3G23G21G29
  22974054.407   -15932137.21649 -12398699.45746  22974054.573    22974068.840
  22694919.505   -12668026.76249  -9851461.84846  22694919.834    22694929.917
  20381650.911   -24868606.52249 -19343675.30448  20381650.917    20381658.393
  24607770.353    -2289802.75549  -1744379.30745  24607770.175    24607790.249
  20534001.321   -23663667.16649 -18110893.34347  20534001.247    20534010.339
  20349071.281   -26922741.95649 -20322155.12548  20349071.031    20349079.935
  23057965.847   -11026435.53049  -8569963.49946  23057966.142    23057978.707
  22943822.970   -12246083.80249  -9510969.57546  22943822.852    22943833.106
  21926129.422   -20197017.38849 -15374247.77247  21926129.377    21926140.368
  20924789.489   -25461895.60449 -19786192.37547  20924789.750    20924798.938
 02  4  4  0  6  0.0000000  0 10G 6G26G18G22G17G15G 3G23G21G29
  22993768.913   -15828537.29349 -12317972.52846  22993769.175    22993783.468
  22709475.553   -12591533.84349  -9791857.02646  22709475.927    22709485.961
  20382782.811   -24862658.37149 -19339040.36848  20382782.803    20382790.305
  24619630.323    -2227479.57849  -1695816.00145  24619630.065    24619650.126
  20535494.144   -23655822.41349 -18104780.54447  20535494.083    20535503.140
  20347178.143   -26932690.48149 -20329907.21248  20347177.882    20347186.817
  23042780.882   -11106232.53249  -8632142.84646  23042781.195    23042793.659
  22958132.013   -12170889.40449  -9452376.60446  22958131.926    22958142.125
  21917773.995   -20240925.03249 -15408461.42647  21917773.941    21917784.933
  20916271.900   -25506655.34349 -19821070.01347  20916272.166    20916281.370
 02  4  4  0  6 30.0000000  0 10G 6G26G18G22G17G15G 3G23G21G29
  23013524.371   -15724722.37649 -12237078.06046  23013524.698    23013538.969
  22724121.829   -12514566.59649  -9731882.59046  22724122.337    22724132.315
  20383983.289   -24856349.78049 -19334124.56848  20383983.282    20383990.799
  24631530.346    -2164945.46949  -1647088.35445  24631530.036    24631550.240
  20537037.362   -23647712.58549 -18098461.19447  20537037.285    20537046.361
  20345337.371   -26942363.74049 -20337444.80648  20345337.106    20345346.049
  23027662.951   -11185677.82249  -8694048.13546  23027663.131    23027675.587
  22972451.353   -12095641.01849  -9393741.56446  22972451.253    22972461.501
  21909467.501   -20284575.52549 -15442474.70347  21909467.412    21909478.386
  20907852.238   -25550900.71349 -19855546.84447  20907852.485    20907861.651
 02  4  4  0  7  0.0000000  0 10G 6G26G18G22G17G15G 3G23G21G29
  23033320.170   -15620695.59149 -12156018.52946  23033320.503    23033334.926
  22738857.895   -12437128.63149  -9671541.35446  22738858.296    22738868.252
  20385252.037   -24849682.34949 -19328929.15448  20385252.034    20385259.534
  24643469.860    -2102203.82049  -1598198.99445  24643469.481    24643489.728
  20538631.043   -23639337.61249 -18091935.24347  20538630.982    20538640.055
  20343549.034   -26951761.50249 -20344767.72848  20343548.754    20343557.727
  23012612.165   -11264769.74549  -8755678.07346  23012612.310    23012624.802
  22986780.539   -12020340.90649  -9335066.22046  22986780.413    22986790.689
  21901209.763   -20327969.98249 -15476288.47447  21901209.658    21901220.587
  20899530.618   -25594630.94749 -19889622.28147  20899530.846    20899539.989
 02  4  4  0  7 30.0000000  0 10G 6G26G18G22G17G15G 3G23G21G29
  23053155.791   -15516459.51949 -12074795.91746  23053156.151    23053170.754
  22753682.909   -12359222.56549  -9610835.37746  22753683.323    22753693.397
  20386588.799   -24842657.50249 -19323455.23448  20386588.798    20386596.317
  24655448.360    -2039257.64649  -1549150.22645  24655447.978    24655468.163
  20540275.364   -23630696.61149 -18085202.00347  20540275.293    20540284.375
  20341813.233   -26960882.92449 -20351875.31848  20341812.966    20341821.958
  22997629.058   -11343505.80149  -8817030.71546  22997629.203    22997641.716
  23001119.300   -11944990.38849  -9276351.59746  23001119.186    23001129.497
  21893000.659   -20371108.78349 -15509903.03747  21893000.551    21893011.414
  20891307.267   -25637844.57349 -19923295.17547  20891307.499    20891316.628
 02  4  4  0  8  0.0000000  0 10G 6G26G18G22G17G15G 3G23G21G29
  23073030.785   -15412016.82449 -11993412.28546  23073031.103    23073045.806
  22768596.392   -12280851.62149  -9549767.15446  22768596.829    22768606.985
  20387993.303   -24835276.76249 -19317703.99248  20387993.286    20388000.829
  24667465.107    -1976110.22649  -1499944.69245  24667464.679    24667485.070
  20541970.449   -23621789.03949 -18078261.04647  20541970.370    20541979.433
  20340130.176   -26969727.63149 -20358767.28748  20340129.891    20340138.863
  22982714.055   -11421883.99849  -8878104.51446  22982714.208    22982726.729
  23015467.343   -11869591.10549  -9217598.98746  23015467.204    23015477.538
  21884840.106   -20413992.41549 -15543318.75847  21884840.011    21884850.823
  20883182.336   -25680540.84749 -19956564.93547  20883182.594    20883191.679
 02  4  4  0  8 30.0000000  0 10G 6G26G18G22G17G15G 3G23G21G29
  23092944.743   -15307369.34149 -11911869.09146  23092945.106    23092959.879
  22783597.959   -12202017.68249  -9488338.16346  22783598.433    22783608.628
  20389465.397   -24827540.78149 -19311675.93848  20389465.387    20389472.910
  24679519.724    -1912763.69549  -1450583.98945  24679519.354    24679539.858
  20543716.526   -23612613.40749 -18071111.20447  20543716.441    20543725.481
  20338500.048   -26978293.95149 -20365442.33248  20338499.750    20338508.734
  22967867.706   -11499901.32649  -8938897.11146  22967867.976    22967880.362
  23029824.503   -11794143.69149  -9158808.83746  23029824.454    23029834.712
  21876728.146   -20456620.47749 -15576535.34647  21876728.066    21876738.842
  20875156.406   -25722717.22049 -19989429.55847  20875156.660    20875165.715
 02  4  4  0  9  0.0000000  0 10G 6G26G18G22G17G15G 3G23G21G29
  23112897.067   -15202520.20749 -11830168.76046  23112897.473    23112912.265
  22798686.979   -12122724.51949  -9426551.31946  22798687.437    22798697.541
  20391004.751   -24819451.31549 -19305372.44148  20391004.741    20391012.250
  24691611.479    -1849221.65049  -1401070.93945  24691611.163    24691631.747
  20545513.615   -23603169.68249 -18063752.46647  20545513.537    20545522.571
  20336922.925   -26986581.67549 -20371900.28948  20336922.632    20336931.626
  22953090.530   -11577556.38749  -8999407.42146  22953090.666    22953102.949
  23044190.467   -11718650.42949  -9099982.99246  23044190.369    23044200.621
  21868664.593   -20498994.29649 -15609553.81647  21868664.539    21868675.277
  20867229.455   -25764373.41049 -20021888.84047  20867229.688    20867238.724
 02  4  4  0  9 30.0000000  0 10G 6G26G18G22G17G15G 3G23G21G29
  23132887.231   -15097472.27149 -11748313.53946  23132887.595    23132902.553
  22813862.804   -12042975.22749  -9364409.04546  22813863.232    22813873.400
  20392611.039   -24811010.12049 -19298794.86948  20392611.049    20392618.530
  24703739.919    -1785487.50949  -1351408.20645  24703739.437    24703760.144
  20547361.831   -23593457.33249 -18056184.40547  20547361.757    20547370.782
  20335398.894   -26994590.28649 -20378140.75448  20335398.597    20335407.601
  22938382.653   -11654846.96249  -9059633.72646  22938382.719    22938394.898
  23058564.861   -11643112.87249  -9041122.62846  23058564.738    23058574.985
  21860649.279   -20541114.57449 -15642374.71947  21860649.217    21860659.963
  20859401.693   -25805508.52149 -20053942.09447  20859401.927    20859410.900
 02  4  4  0 10  0.0000000  0 10G 6G26G18G22G17G15G 3G23G21G29
  23152915.091   -14992226.52949 -11666304.18446  23152915.400    23152930.358
  22829125.160   -11962771.02749  -9301912.30646  22829125.585    22829135.745
  20394284.286   -24802217.19049 -19291943.21948  20394284.281    20394291.749
  24715904.512    -1721562.62149  -1301596.83245  24715904.085    24715924.742
  20549261.591   -23583473.95349 -18048405.15747  20549261.512    20549270.522
  20333928.405   -27002317.59449 -20384162.02448  20333928.104    20333937.117
  22923744.647   -11731769.44449  -9119573.21046  22923744.732    22923756.860
  23072947.606   -11567531.07449  -8982227.77346  23072947.481    23072957.747
  21852682.389   -20582980.59249 -15674997.50747  21852682.313    21852692.984
  20851673.654   -25846119.51449 -20085586.94647  20851673.867    20851682.767
 02  4  4  0 10 30.0000000  0 10G 6G26G18G22G17G15G 3G23G21G29
  23172979.933   -14886786.27849 -11584143.25046  23172980.209    23172995.167
  22844473.326   -11882115.39649  -9239063.81246  22844473.780    22844484.058
  20396024.088   -24793074.05049 -19284818.67748  20396024.116    20396031.585
  24728104.877    -1657450.47149  -1251639.53645  24728104.369    24728125.076
  20551212.980   -23573219.28749 -18040414.50847  20551212.891    20551221.943
  20332511.567   -27009763.16649 -20389963.75748  20332511.265    20332520.264
  22909177.021   -11808321.90749  -9179224.36946  22909177.167    22909189.252
  23087338.510   -11491906.80549  -8923299.83746  23087338.378    23087348.649
  21844763.631   -20624593.63249 -15707423.16247  21844763.555    21844774.209
  20844045.414   -25886205.92949 -20116823.03347  20844045.638    20844054.513
 02  4  4  0 11  0.0000000  0 10G 6G26G18G22G17G15G 3G23G21G29
  23193081.372   -14781153.46749 -11501832.26746  23193081.703    23193096.701
  22859907.017   -11801010.79649  -9175865.46446  22859907.465    22859917.803
  20397830.405   -24783581.58949 -19277421.93548  20397830.446    20397837.943
  24740340.442    -1593153.56149  -1201538.29545  24740339.859    24740360.665
  20553216.237   -23562692.03249 -18032211.45647  20553216.184    20553225.219
  20331148.525   -27016925.77549 -20395544.99848  20331148.239    20331157.252
  22894680.379   -11884501.24949  -9238584.77546  22894680.583    22894692.697
  23101737.260   -11416240.85049  -8864339.42646  23101737.100    23101747.473
  21836893.094   -20665953.13749 -15739651.26147  21836893.014    21836903.700
  20836517.293   -25925765.92049 -20147648.92647  20836517.549    20836526.393
 02  4  4  0 11 30.0000000  0 10G 6G26G18G22G17G15G 3G23G21G29
  23213218.898   -14675331.30549 -11419373.73646  23213219.223    23213234.312
  22875425.583   -11719460.54949  -9112319.87446  22875426.032    22875436.387
  20399702.864   -24773741.71349 -19269754.48748  20399702.910    20399710.387
  24752610.269    -1528675.59849  -1151295.96845  24752609.804    24752630.632
  20555271.413   -23551892.09849 -18023795.93647  20555271.332    20555280.391
  20329839.407   -27023805.11949 -20400905.50748  20329839.135    20329848.168
  22880255.100   -11960305.75249  -9297653.11346  22880255.299    22880267.453
  23116143.661   -11340535.12249  -8805348.01746  23116143.547    23116153.826
  21829070.558   -20707060.48349 -15771682.87447  21829070.489    21829081.181
  20829089.451   -25964798.95749 -20178064.21447  20829089.731    20829098.577
 02  4  4  0 12  0.0000000  0 11G 6G14G26G18G22G17G15G 3G23G21G29
  23233391.207   -14569326.37149 -11336772.79346  23233391.517    23233406.718
                  -2788369.41549  -1408893.45643
  22891027.551   -11637471.57949  -9048432.40146  22891028.022    22891038.373
  20401640.420   -24763559.82349 -19261820.53048  20401640.438    20401647.915
  24764913.351    -1464023.30449  -1100917.79545  24764912.787    24764933.720
  20557377.849   -23540822.49349 -18015170.28047  20557377.784    20557386.861
  20328583.578   -27030404.32849 -20406047.72748  20328583.305    20328592.349
  22865900.759   -12035737.33049  -9356430.85646  22865901.026    22865913.134
  23130556.598   -11264795.12449  -8746329.89746  23130556.468    23130566.765
  21821295.133   -20747919.97249 -15803521.34347  21821295.072    21821305.779
  20821761.406   -26003307.83449 -20208071.06347  20821761.655    20821770.506
 02  4  4  0 12 30.0000000  0 10G 6G26G18G22G17G15G 3G23G21G29
  23253599.722   -14463130.78549 -11254023.29645  23253599.947    23253615.407
  22906714.389   -11555036.41749  -8984197.25746  22906714.881    22906725.346
  20403644.794   -24753026.80249 -19253612.96848  20403644.801    20403652.267
  24777250.990    -1399189.24249  -1050397.97445  24777250.535    24777271.336
  20559537.750   -23529472.17649 -18006325.88947  20559537.698    20559546.772
  20327383.236   -27036712.30249 -20410963.01548  20327382.946    20327392.000
  22851619.898   -12110783.69549  -9414908.44246  22851620.103    22851632.186
  23144977.752   -11189011.95249  -8687278.13846  23144977.605    23144987.831
  21813568.747   -20788521.96549 -15835159.17347  21813568.711    21813579.388
  20814535.281   -26041281.06549 -20237660.54347  20814535.517    20814544.383
 02  4  4  0 13  0.0000000  0 11G 6G14G26G18G22G17G15G 3G23G21G29
  23273843.057   -14356752.48549 -11171131.40445  23273843.223    23273858.777
                  -1483559.53149  -1128687.01743
  22922484.609   -11472163.54549  -8919621.03046  22922485.143    22922495.503
  20405714.726   -24742149.38049 -19245137.03748  20405714.718    20405722.180
  24789621.741    -1334182.01849   -999743.21745  24789621.392    24789642.053
  20561750.212   -23517845.62849 -17997266.25047  20561750.127    20561759.206
  20326237.391   -27042733.59749 -20415654.91748  20326237.119    20326246.156
  22837411.808   -12185447.69649  -9473088.07246  22837411.989    22837424.001
  23159405.872   -11113192.12249  -8628197.81846  23159405.667    23159415.938
  21805890.289   -20828872.45749 -15866601.02847  21805890.236    21805900.864
  20807410.245   -26078722.89049 -20266835.94347  20807410.539    20807419.378
 02  4  4  0 13 30.0000000  0 11G 6G14G26G18G22G17G15G 3G23G21G29
  23294120.434   -14250195.63349 -11088100.41145  23294120.475    23294136.172
                  -1597976.71449  -1217842.02543
  22938337.403   -11388857.44449  -8854707.22946  22938337.899    22938348.159
  20407849.562   -24730930.64649 -19236395.15248  20407849.560    20407857.011
  24802024.454    -1269006.06149   -948956.97345  24802024.115    24802044.851
  20564015.041   -23505943.89449 -17987992.17747  20564014.949    20564024.042
  20325145.948   -27048469.00849 -20420124.05248  20325145.665    20325154.722
  22823276.573   -12259728.54349  -9530969.15346  22823276.755    22823288.724
  23173840.373   -11037338.72449  -8569091.32946  23173840.224    23173850.492
  21798259.320   -20868973.36249 -15897848.39947  21798259.229    21798269.795
  20800386.294   -26115633.74149 -20295597.58447  20800386.582    20800395.418
 02  4  4  0 14  0.0000000  0 11G 6G14G26G18G22G17G15G 3G23G21G29
  23314431.478   -14143461.49449 -11004931.28745  23314431.575    23314447.402
                  -1712371.021 9   1301037.329 1
  22954272.188   -11305119.74849  -8789457.12346  22954272.668    22954282.935
  20410049.309   -24719370.84349 -19227387.50048  20410049.307    20410056.740
  24814458.949    -1203663.12749   -898040.63545  24814458.608    24814479.404
  20566332.652   -23493764.81249 -17978501.98947  20566332.584    20566341.656
  20324109.300   -27053916.52649 -20424368.85848  20324109.032    20324118.091
  22809214.916   -12333622.80349  -9588548.98646  22809215.019    22809226.983
  23188281.217   -10961451.66749  -8509958.63046  23188281.076    23188291.361
  21790675.881   -20908824.01049 -15928900.77347  21790675.799    21790686.306
  20793463.830   -26152011.25649 -20323943.63747  20793464.114    20793472.946
 02  4  4  0 14 30.0000000  0 11G 6G14G26G18G22G17G15G 3G23G21G29
  23334775.442   -14036554.48649 -10921627.43345  23334775.610    23334791.425
                  -1826741.67349  -1029596.27843
  22970288.369   -11220954.87549  -8723874.14946  22970288.859    22970298.955
  20412313.447   -24707472.55649 -19218116.09448  20412313.440    20412320.872
  24826924.414    -1138157.71649   -846997.69345  24826924.057    24826944.944
  20568702.898   -23481309.17949 -17968796.30347  20568702.813    20568711.868
  20323127.292   -27059076.86949 -20428389.88548  20323127.022    20323136.065
  22795226.819   -12407129.91649  -9645827.15646  22795227.003    22795238.877
  23202727.951   -10885534.13449  -8450802.17046  23202727.755    23202738.069
  21783139.699   -20948426.41449 -15959759.70047  21783139.626    21783150.129
  20786642.727   -26187856.19349 -20351874.68647  20786643.007    20786651.817
 02  4  4  0 15  0.0000000  0 11G 6G14G26G18G22G17G15G 3G23G21G29
  23355152.019   -13929476.58149 -10838190.45545  23355152.174    23355168.028
                  -1941085.90149  -1118697.87743
  22986385.283   -11136365.42749  -8657960.33646  22986385.677    22986395.850
  20414641.777   -24695236.86249 -19208581.77348  20414641.798    20414649.245
  24839420.383    -1072492.57949   -795830.28645  24839419.858    24839441.027
  20571126.000   -23468575.83649 -17958874.23147  20571125.896    20571134.950
  20322200.199   -27063948.86449 -20432186.22748  20322199.934    20322208.928
  22781313.033   -12480247.08949  -9702801.46546  22781313.165    22781324.989
  23217180.255   -10809586.80349  -8391622.50646  23217180.041    23217190.474
  21775650.662   -20987781.15049 -15990425.64047  21775650.591    21775661.101
  20779923.275   -26223167.18749 -20379389.69347  20779923.518    20779932.311
 02  4  4  0 15 30.0000000  0 11G 6G14G26G18G22G17G15G 3G23G21G29
  23375560.915   -13822229.18049 -10754621.37446  23375561.025    23375576.800
                  -2055399.99249  -1207776.00243
  23002562.606   -11051353.25049  -8591717.12746  23002563.037    23002573.155
  20417034.329   -24682663.83249 -19198784.59148  20417034.331    20417041.794
  24851946.181    -1006669.36949   -744539.72245  24851945.806    24851966.978
  20573602.342   -23455562.57249 -17948734.03847  20573602.251    20573611.317
  20321328.312   -27068530.54149 -20435756.35348  20321328.047    20321337.040
  22767473.987   -12552971.15249  -9759469.46146  22767474.136    22767485.969
  23231638.246   -10733609.60949  -8332419.55646  23231638.051    23231648.502
  21768208.999   -21026886.85449 -16020897.53547  21768208.943    21768219.421
  20773305.859   -26257941.60749 -20406486.57647  20773306.100    20773314.915
 02  4  4  0 16  0.0000000  0 11G 6G14G26G18G22G17G15G 3G23G21G29
  23396001.778   -13714814.17249 -10670921.68846  23396001.805    23396017.552
                  -2169680.72449   -933035.67143
  23018819.874   -10965920.64549  -8525146.32146  23018820.262    23018830.520
  20419490.888   -24669754.25649 -19188725.16848  20419490.901    20419498.382
  24864501.700     -940690.27749   -693127.65245  24864501.294    24864522.527
  20576132.199   -23442268.13849 -17938374.75447  20576132.110    20576141.190
  20320511.932   -27072820.44049 -20439099.12348  20320511.672    20320520.671
  22753710.353   -12625299.06449  -9815828.75846  22753710.514    22753722.298
  23246101.700   -10657603.36349  -8273193.98546  23246101.549    23246112.075
  21760814.667   -21065744.03249 -16051175.76947  21760814.602    21760825.093
  20766790.776   -26292178.12849 -20433164.31947  20766791.040    20766799.853
 02  4  4  0 16 30.0000000  0 11G 6G14G26G18G22G17G15G 3G23G21G29
  23416474.073   -13607232.29449 -10587091.98645  23416474.241    23416489.927
                  -2283923.74549  -1022088.47443
  23035156.957   -10880068.67949  -8458248.72846  23035157.362    23035167.658
  20422011.630   -24656507.61949 -19178403.09948  20422011.626    20422019.127
  24877086.744     -874556.63649   -641595.19145  24877086.281    24877107.614
  20578716.077   -23428689.76249 -17927794.20047  20578715.972    20578725.088
  20319751.647   -27076815.74449 -20442212.32948  20319751.399    20319760.370
  22740022.879   -12697226.82649  -9871876.24646  22740023.050    22740034.800
  23260570.779   -10581567.43049  -8213945.28346  23260570.692    23260581.286
  21753467.943   -21104350.92149 -16081258.97047  21753467.898    21753478.396
  20760378.615   -26325873.93649 -20459420.72147  20760378.889    20760387.708
 02  4  4  0 17  0.0000000  0 11G 6G14G26G18G22G17G15G 3G23G21G29
  23436977.510   -13499487.30249 -10503135.21345  23436977.707    23436993.544
                  -2398127.81449  -1111110.87143
  23051573.007   -10793801.55049  -8391027.63446  23051573.369    23051583.841
  20424596.057   -24642926.37049 -19167820.30148  20424596.036    20424603.554
  24889700.239     -808272.60249   -589945.52845  24889699.939    24889721.379
  20581353.823   -23414828.00749 -17916992.83747  20581353.735    20581362.878
  20319047.343   -27080516.95349 -20445096.37348  20319047.096    20319056.069
  22726411.788   -12768753.14249  -9927610.92746  22726411.973    22726423.667
  23275045.189   -10505504.26949  -8154675.35546  23275045.071    23275055.697
  21746168.418   -21142709.79849 -16111148.91747  21746168.371    21746178.879
  20754069.332   -26359028.93449 -20485255.71647  20754069.627    20754078.446
 02  4  4  0 17 30.0000000  0 11G 6G14G26G18G22G17G15G 3G23G21G29
  23457511.591   -13391581.59749 -10419053.15245  23457511.772    23457527.592
                  -2512290.37749   -835070.96443
  23068067.639   -10707122.03649  -8323485.19946  23068068.049    23068078.490
  20427243.852   -24629011.90149 -19156977.85048  20427243.843    20427251.345
  24902341.967     -741840.90149   -538180.79945  24902341.687    24902363.072
  20584045.747   -23400681.83149 -17905969.84947  20584045.662    20584054.817
  20318399.237   -27083922.74449 -20447750.21948  20318398.985    20318407.950
  22712877.494   -12839875.99449  -9983031.20646  22712877.613    22712889.289
  23289524.601   -10429415.04149  -8095385.11046  23289524.428    23289535.087
  21738916.030   -21180821.16649 -16140846.00147  21738915.982    21738926.472
  20747863.170   -26391642.41949 -20510668.76447  20747863.453    20747872.230
 02  4  4  0 18  0.0000000  0 11G 6G14G26G18G22G17G15G 3G23G21G29
  23478075.637   -13283518.36649 -10334848.38245  23478075.765    23478091.707
                  -2626409.65749   -923995.48543
  23084640.080   -10620033.94249  -8255624.38946  23084640.386    23084650.755
  20429954.734   -24614766.15449 -19145877.25648  20429954.717    20429962.175
  24915010.994     -675265.19249   -486303.86745  24915010.697    24915032.214
  20586791.801   -23386251.13849 -17894725.15147  20586791.711    20586800.858
  20317807.311   -27087033.43449 -20450174.11048  20317807.035    20317815.987
  22699420.255   -12910593.81649 -10038135.88046  22699420.329    22699432.035
  23304008.507   -10353301.78149  -8036076.14546  23304008.351    23304019.022
  21731710.456   -21218686.35949 -16170351.25747  21731710.410    21731720.866
  20741760.126   -26423714.04949 -20535659.59647  20741760.388    20741769.137
 02  4  4  0 18 30.0000000  0 11G 6G14G26G18G22G17G15G 3G23G21G29
  23498669.278   -13175299.34749 -10250522.21445  23498669.359    23498685.410
                  -2740482.26849  -1012883.02843
  23101289.627   -10532539.25649  -8187446.76846  23101290.060    23101300.470
  20432728.568   -24600189.75349 -19134519.01548  20432728.546    20432735.959
  24927707.144     -608547.65149   -434316.40645  24927706.767    24927728.126
  20589592.318   -23371534.27449 -17883257.47447  20589592.252    20589601.363
  20317271.881   -27089847.13649 -20452366.59348  20317271.616    20317280.534
  22686040.629   -12980903.51349 -10092922.54446  22686040.711    22686052.422
  23318496.972   -10277164.69449  -7976748.61246  23318496.780    23318507.533
  21724551.838   -21256304.82149 -16199664.25947  21724551.776    21724562.220
  20735760.476   -26455242.04449 -20560226.81447  20735760.772    20735769.467
 02  4  4  0 19  0.0000000  0 11G 6G14G26G18G22G17G15G 3G23G21G29
  23519291.766   -13066928.04349 -10166077.39245  23519291.953    23519308.146
  24352672.775    -2854506.66449  -1101732.36945  24352670.257    24352692.448
  23118015.998   -10444641.84949  -8118955.30646  23118016.450    23118026.807
  20435564.811   -24585285.11249 -19122904.99948  20435564.783    20435572.192
  24940429.538     -541692.00849   -382221.33145  24940428.950    24940450.552
  20592447.277   -23356531.41349 -17871566.94147  20592447.206    20592456.303
  20316792.969   -27092363.75149 -20454327.57148  20316792.707    20316801.619
  22672738.855   -13050803.71649 -10147390.11346  22672739.069    22672750.716
  23332989.620   -10201005.72549  -7917404.02546  23332989.417    23333000.192
  21717439.916   -21293677.83449 -16228786.00047  21717439.859    21717450.278
  20729864.355   -26486226.29849 -20584370.33347  20729864.633    20729873.292
 02  4  4  0 19 30.0000000  0 11G 6G14G26G18G22G17G15G 3G23G21G29
  23539942.858   -12958406.40849 -10081515.44345  23539943.096    23539959.399
  24330983.885    -2968479.68749  -1190541.84145  24330982.941    24331002.898
  23134818.588   -10356344.07249  -8050151.90246  23134818.968    23134829.389
  20438463.426   -24570052.68849 -19111035.56748  20438463.406    20438470.822
  24953177.662     -474700.53449   -330020.42245  24953177.204    24953198.860
  20595356.970   -23341240.91249 -17859652.27447  20595356.891    20595365.999
  20316370.901   -27094581.74049 -20456055.85248  20316370.619    20316379.520
  22659515.834   -13120291.53149 -10201536.35846  22659515.954    22659527.492
  23347486.256   -10124825.61049  -7858042.95746  23347486.091    23347496.820
  21710374.713   -21330805.44349 -16257716.52147  21710374.620    21710385.035
  20724071.905   -26516665.54649 -20608089.16047  20724072.183    20724080.859
 02  4  4  0 20  0.0000000  0 10G 6G14G26G18G17G15G 3G23G21G29
  23560622.381   -12849735.55349  -9996837.22745  23560622.700    23560639.120
  24309305.738    -3082397.44349  -1279308.27245  24309304.759    24309324.577
  23151697.023   -10267647.56449  -7981037.78446  23151697.373    23151707.646
  20441424.440   -24554492.52149 -19098910.74048  20441424.427    20441431.822
  20598321.770   -23325660.61649 -17847511.79947  20598321.699    20598330.829
  20316006.013   -27096499.02649 -20457549.82448  20316005.752    20316014.645
  22646371.877   -13189363.42849 -10255358.49446  22646371.963    22646383.435
  23361986.934   -10048624.15749  -7798665.26946  23361986.812    23361997.583
  21703356.350   -21367686.97849 -16286455.29847  21703356.249    21703366.645
  20718383.636   -26546557.24249 -20631381.32947  20718383.921    20718392.601
 02  4  4  0 20 30.0000000  0 10G 6G14G26G18G17G15G 3G23G21G29
  23581330.619   -12740914.97049  -9912042.31045  23581330.904    23581347.353
  24287638.805    -3196254.51549  -1368027.38145  24287637.378    24287658.024
  23168651.331   -10178552.36349  -7911613.00646  23168651.736    23168661.993
  20444448.094   -24538602.86849 -19086529.18648  20444448.103    20444455.490
  20601342.522   -23309786.70549 -17835142.53347  20601342.417    20601351.556
  20315699.072   -27098111.86149 -20458806.56148  20315698.804    20315707.691
  22633307.945   -13258014.22649 -10308852.51646  22633308.087    22633319.562
  23376492.142    -9972399.44749  -7739269.45946  23376491.981    23376502.715
  21696385.290   -21404319.60549 -16315000.12447  21696385.205    21696395.580
  20712800.276   -26575897.91949 -20654244.15147  20712800.537    20712809.186
 02  4  4  0 21  0.0000000  0 10G 6G14G26G18G17G15G 3G23G21G29
  23602065.187   -12631955.02749  -9827138.82845  23602065.469    23602082.093
  24265982.739    -3310055.93449  -1456703.16545  24265981.642    24266002.242
  23185679.444   -10089069.00749  -7841885.76246  23185679.828    23185690.185
  20447532.782   -24522392.59949 -19073897.79648  20447532.778    20447540.172
  20604417.801   -23293626.03949 -17822549.81347  20604417.718    20604426.844
  20315448.791   -27099426.89449 -20459831.24348  20315448.528    20315457.415
  22620323.105   -13326249.32749 -10362022.62546  22620323.246    22620334.750
  23391000.065    -9896160.22949  -7679862.34246  23390999.898    23391010.616
  21689460.066   -21440711.60549 -16343357.45347  21689459.999    21689470.311
  20707320.500   -26604694.07149 -20676682.65647  20707320.760    20707329.404
 02  4  4  0 21 30.0000000  0 10G 6G14G26G18G17G15G 3G23G21G29
  23622826.199   -12522856.72149  -9742127.52245  23622826.447    23622843.132
  24244337.888    -3423797.50249  -1545332.28345  24244336.886    24244357.491
  23202781.215    -9999198.92349  -7771857.17546  23202781.609    23202792.042
  20450678.531   -24505861.60949 -19061016.49148  20450678.510    20450685.919
  20607548.104   -23277176.27549 -17809731.82147  20607548.031    20607557.110
  20315255.652   -27100441.79549 -20460622.05748  20315255.381    20315264.266
  22607418.150   -13394065.11049 -10414865.99246  22607418.270    22607429.776
  23405510.727    -9819906.21249  -7620443.69946  23405510.642    23405521.351
  21682580.865   -21476861.90349 -16371526.44347  21682580.792    21682591.061
  20701944.730   -26632943.56649 -20698695.19447  20701945.012    20701953.668
 02  4  4  0 22  0.0000000  0 10G 6G14G26G18G17G15G 3G23G21G29
  23643613.116   -12413621.85049  -9657009.84545  23643613.426    23643630.301
  24222704.789    -3537476.14049  -1633912.37745  24222704.102    24222724.873
  23219956.065    -9908944.48749  -7701529.09346  23219956.439    23219967.033
  20453885.135   -24489010.78149 -19047885.96348  20453885.100    20453892.499
  20610733.667   -23260435.97949 -17796687.43947  20610733.606    20610742.702
  20315119.949   -27101154.97049 -20461177.76548  20315119.685    20315128.528
  22594593.503   -13461458.75849 -10467380.42446  22594593.659    22594605.107
  23420024.220    -9743637.81149  -7561013.84246  23420024.065    23420034.812
  21675747.499   -21512770.96649 -16399507.45947  21675747.422    21675757.705
  20696673.285   -26660644.94349 -20720280.62547  20696673.561    20696682.198
 02  4  4  0 22 30.0000000  0 10G 6G14G26G18G17G15G 3G23G21G29
  23664425.662   -12304252.35749  -9571787.25445  23664425.948    23664443.014
  24201084.732    -3651088.64449  -1722440.98245  24201084.149    24201104.609
  23237203.641    -9818308.17749  -7630903.45546  23237204.048    23237214.641
  20457152.427   -24471840.78249 -19034506.72748  20457152.408    20457159.815
  20613974.789   -23243403.76549 -17783415.58947  20613974.742    20613983.848
  20315041.907   -27101564.94949 -20461497.21248  20315041.649    20315050.482
  22581849.779   -13528427.48649 -10519563.75146  22581849.881    22581861.335
  23434540.326    -9667355.62249  -7501573.24246  23434540.186    23434550.916
  21668960.098   -21548438.68849 -16427300.41947  21668960.021    21668970.304
  20691506.415   -26687796.93849 -20741437.97647  20691506.658    20691515.277
 02  4  4  0 23  0.0000000  0 10G 6G14G26G18G17G15G 3G23G21G29
  23685263.600   -12194750.04749  -9486461.14345  23685263.883    23685281.041
  24179477.505    -3764632.06849  -1810915.76945  24179477.187    24179497.291
  23254523.319    -9727292.25449  -7559982.01046  23254523.798    23254534.403
  20460480.408   -24454352.11049 -19020879.17648  20460480.374    20460487.792
  20617271.725   -23226078.17349 -17769915.13647  20617271.660    20617280.803
  20315021.907   -27101670.12249 -20461579.14548  20315021.633    20315030.463
  22569187.289   -13594968.75549 -10571414.00046  22569187.397    22569198.850
  23449058.833    -9591060.14149  -7442122.30146  23449058.764    23449069.552
  21662218.693   -21583864.66349 -16454905.00647  21662218.618    21662228.912
  20686444.351   -26714398.09349 -20762166.08947  20686444.602    20686453.228
 02  4  4  0 23 30.0000000  0 10G 6G14G26G18G17G15G 3G23G21G29
  23706126.115   -12085118.10149  -9401034.03045  23706126.430    23706143.497
  24157884.039    -3878104.53449  -1899335.25245  24157883.657    24157903.764
  23271914.641    -9635900.38349  -7488767.62046  23271915.148    23271925.704
  20463868.598   -24436547.07949 -19007005.11248  20463868.569    20463875.963
  20620624.578   -23208458.86049 -17756185.81547  20620624.509    20620633.648
  20315059.894   -27101470.51149 -20461423.59648  20315059.607    20315068.437
  22556606.460   -13661080.82649 -10622929.80646  22556606.586    22556618.043
  23463579.653    -9514752.96449  -7382662.23446  23463579.571    23463590.366
  21655523.026   -21619050.26549 -16482322.28947  21655522.974    21655533.264
  20681487.111   -26740448.32949 -20782464.92047  20681487.354    20681495.959
 02  4  4  0 24  0.0000000  0 10G 6G14G26G18G17G15G 3G23G21G29
  23727012.991   -11975358.66549  -9315507.56445  23727013.170    23727030.383
  24136304.559    -3991502.82749  -1987696.97645  24136304.295    24136324.198
  23289377.084    -9544135.15249  -7417262.30846  23289377.529    23289388.270
  20467316.838   -24418426.57249 -18992885.22348  20467316.772    20467324.196
  20624033.541   -23190544.71449 -17742226.74647  20624033.449    20624042.568
  20315156.170   -27100964.65749 -20461029.41048  20315155.890    20315164.702
  22544107.916   -13726760.95349 -10674109.04046  22544108.009    22544119.418
  23478102.628    -9438434.69949  -7323193.53446  23478102.498    23478113.278
  21648872.992   -21653996.12749 -16509552.75147  21648872.937    21648883.200
  20676634.910   -26765946.56149 -20802333.61847  20676635.163    20676643.719
 02  4  4  0 24 30.0000000  0 10G 6G14G26G18G17G15G 3G23G21G29
  23747923.570   -11865474.37549  -9229883.82745  23747923.734    23747940.989
  24114739.652    -4104824.52749  -2075998.98945  24114739.474    24114759.412
  23306909.913    -9451999.57249  -7345468.40946  23306910.331    23306921.033
  20470824.814   -24399991.86249 -18978520.50548  20470824.743    20470832.191
  20627498.776   -23172334.98349 -17728037.35247  20627498.660    20627507.742
  20315310.855   -27100151.82249 -20460396.02148  20315310.573    20315319.362
  22531691.885   -13792007.22749 -10724950.21546  22531692.024    22531703.349
  23492627.431    -9362106.61449  -7263717.17646  23492627.293    23492638.072
  21642268.478   -21688702.64549 -16536596.71947  21642268.449    21642278.671
  20671887.821   -26790892.24249 -20821771.75547  20671888.080    20671896.630
 02  4  4  0 25  0.0000000  0 10G 6G14G26G18G17G15G 3G23G21G29
  23768857.619   -11755467.03649  -9144164.20445  23768857.702    23768875.003
  24093189.972    -4218066.45749  -2164238.82845  24093189.753    24093209.618
  23324512.716    -9359495.91949  -7273387.70146  23324513.205    23324523.932
  20474392.424   -24381243.73249 -18963911.55948  20474392.373    20474399.822
  20631020.518   -23153828.14049 -17713616.44447  20631020.432    20631029.472
  20315524.200   -27099030.52849 -20459522.27348  20315523.935    20315532.703
  22519358.897   -13856817.01249 -10775451.24646  22519359.012    22519370.295
  23507154.083    -9285769.09249  -7204233.46146  23507153.936    23507164.661
  21635709.678   -21723169.17649 -16563453.68047  21635709.630    21635719.818
  20667246.213   -26815283.84849 -20840778.14147  20667246.463    20667254.994
 02  4  4  0 25 30.0000000  0 11G 6G14G26G18G17G 9G15G 3G23G21G29
  23789814.331   -11645340.01449  -9058351.34345  23789814.504    23789831.967
  24071655.714    -4331226.97749  -2252415.24545  24071655.551    24071675.357
  23342184.946    -9266628.28449  -7201023.34945  23342185.412    23342196.189
  20478019.299   -24362184.14549 -18949059.91648  20478019.272    20478026.736
  20634598.860   -23135024.03249 -17698963.88947  20634598.764    20634607.821
  24468817.107    -2500856.10849  -1914285.72945  24468817.281    24468835.453
  20315796.326   -27097600.47849 -20458407.93948  20315796.057    20315804.817
  22507109.256   -13921188.98549 -10825611.14246  22507109.382    22507120.599
  23521682.136    -9209424.01749  -7144743.86146  23521681.989    23521692.729
  21629196.269   -21757397.11049 -16590124.72547  21629196.229    21629206.379
  20662709.988   -26839121.89049 -20859353.17947  20662710.204    20662718.696
 02  4  4  0 26  0.0000000  0 11G 6G14G26G18G17G 9G15G 3G23G21G29
  23810793.389   -11535096.02149  -8972447.34045  23810793.580    23810811.087
  24050137.602    -4444303.52949  -2340526.20745  24050137.307    24050157.001
  23359925.849    -9173399.38949  -7128377.53645  23359926.210    23359937.002
  20481705.173   -24342814.61049 -18933966.75948  20481705.171    20481712.621
  20638233.818   -23115922.05449 -17684079.23547  20638233.758    20638242.804
  24455403.759    -2571342.75949  -1969210.12045  24455403.876    24455421.910
  20316127.333   -27095861.01649 -20457052.50548  20316127.058    20316135.820
  22494943.386   -13985120.82249 -10875428.07546  22494943.485    22494954.662
  23536211.365    -9133072.25049  -7085249.04946  23536211.270    23536221.983
  21622728.057   -21791387.55049 -16616610.71047  21622728.017    21622738.138
  20658279.162   -26862405.68149 -20877496.33947  20658279.381    20658287.870
 02  4  4  0 26 30.0000000  0 11G 6G14G26G18G17G 9G15G 3G23G21G29
  23831794.414   -11424736.59649  -8886453.37745  23831794.621    23831812.149
  24028636.046    -4557292.24749  -2428568.72145  24028635.782    24028655.385
  23377735.056    -9079811.29349  -7055451.79745  23377735.520    23377746.321
  20485450.005   -24323135.37749 -18918632.27848  20485450.018    20485457.423
  20641925.864   -23096520.20749 -17668960.90547  20641925.792    20641934.850
  24442024.893    -2641648.43549  -2023993.48345  24442024.868    24442042.987
  20316517.619   -27093810.05649 -20455454.34348  20316517.348    20316526.106
  22482861.768   -14048609.34649 -10924899.56146  22482861.969    22482873.078
  23550741.960    -9056713.78149  -7025749.02846  23550741.810    23550752.603
  21616305.046   -21825140.26649 -16642911.45247  21616305.004    21616315.131
  20653954.161   -26885133.62049 -20895206.35947  20653954.375    20653962.832
 02  4  4  0 27  0.0000000  0 11G 6G14G26G18G17G 9G15G 3G23G21G29
  23852816.646   -11314264.86249  -8800371.92645  23852816.997    23852834.484
  24007151.572    -4670191.41949  -2516541.51745  24007151.356    24007170.828
  23395611.969    -8985867.75549  -6982249.10645  23395612.375    23395623.120
  20489253.387   -24303148.48549 -18903058.06248  20489253.375    20489260.790
  20645674.981   -23076818.59149 -17653608.98747  20645674.907    20645683.953
  24428680.920    -2711770.74149  -2078633.97545  24428680.986    24428699.002
  20316967.130   -27091447.63949 -20453613.48348  20316966.877    20316975.656
  22470864.841   -14111653.41549 -10974024.72646  22470865.014    22470876.100
  23565273.515    -8980350.58849  -6966245.32046  23565273.351    23565284.159
  21609927.069   -21858656.36349 -16669027.81347  21609927.029    21609937.148
  20649734.907   -26907305.76249 -20912483.30647  20649735.126    20649743.557
 02  4  4  0 27 30.0000000  0 11G 6G14G26G18G17G 9G15G 3G23G21G29
  23873860.021   -11203683.01749  -8714204.65045  23873860.280    23873877.845
  23985684.703    -4782998.16349  -2604442.26545  23985684.627    23985703.928
  23413555.946    -8891571.59649  -6908771.64145  23413556.423    23413567.073
  20493115.088   -24282855.09349 -18887245.02248  20493115.082    20493122.493
  20649481.334   -23056816.04749 -17638022.58547  20649481.262    20649490.318
  24415372.433    -2781706.09149  -2133128.78045  24415372.520    24415390.555
  20317476.121   -27088772.66649 -20451529.07948  20317475.854    20317484.655
  22458952.843   -14174250.78949 -11022801.81846  22458953.041    22458964.109
  23579805.818    -8903983.18549  -6906738.33146  23579805.571    23579816.428
  21603594.143   -21891935.86349 -16694959.81347  21603594.093    21603604.184
  20645621.563   -26928921.32649 -20929326.55547  20645621.754    20645630.165
 02  4  4  0 28  0.0000000  0 11G 6G14G26G18G17G 9G15G 3G23G21G29
  23894923.654   -11092993.94449  -8627953.80645  23894923.908    23894941.736
  23964235.787    -4895710.35349  -2692269.37245  23964235.815    23964254.810
  23431566.444    -8796925.97949  -6835021.85845  23431566.904    23431577.610
  20497034.810   -24262256.83049 -18871194.41748  20497034.788    20497042.207
  20653345.088   -23036511.78749 -17622201.07147  20653344.997    20653354.066
  24402100.108    -2851451.54149  -2187475.59645  24402100.158    24402118.186
  20318044.778   -27085784.30849 -20449200.47148  20318044.510    20318053.314
  22447126.299   -14236399.25149 -11071229.10746  22447126.458    22447137.573
  23594338.661    -8827612.75249  -6847228.96946  23594338.478    23594349.366
  21597306.047   -21924979.86549 -16720708.30547  21597305.966    21597316.049
  20641614.217   -26949979.98749 -20945735.84647  20641614.388    20641622.795
 02  4  4  0 28 30.0000000  0 11G 6G14G26G18G17G 9G15G 3G23G21G29
  23916007.186   -10982199.80549  -8541621.14145  23916007.492    23916025.497
  23942805.489    -5008325.07049  -2780020.51445  23942805.582    23942824.294
  23449642.866    -8701933.73449  -6761001.99645  23449643.389    23449654.092
  20501012.376   -24241354.71349 -18854907.04048  20501012.354    20501019.734
  20657266.402   -23015905.01249 -17606143.84147  20657266.322    20657275.443
  24388864.335    -2921003.44849  -2241671.56745  24388864.571    24388882.551
  20318673.259   -27082481.72649 -20446627.01148  20318672.985    20318681.761
  22435385.563   -14298096.78649 -11119305.01346  22435385.686    22435396.842
  23608871.943    -8751240.16349  -6787717.92946  23608871.718    23608882.666
  21591062.746   -21957788.51149 -16746273.40547  21591062.658    21591072.683
  20637712.855   -26970481.22949 -20961710.78647  20637713.079    20637721.488
 02  4  4  0 29  0.0000000  0 11G 6G14G26G18G17G 9G15G 3G23G21G29
  23937110.504   -10871303.33749  -8455208.72345  23937110.842    23937128.901
  23921394.179    -5120839.91049  -2867693.83745  23921394.284    23921412.740
  23467784.826    -8606597.98049  -6686714.43945  23467785.301    23467795.896
  20505047.393   -24220150.48649 -18838384.25448  20505047.371    20505054.734
  20661245.410   -22994995.01349 -17589850.32747  20661245.328    20661254.467
  24375666.117    -2990359.13849  -2295714.67645  24375666.358    24375684.321
  20319361.646   -27078864.18949 -20443808.13048  20319361.349    20319370.127
  22423730.991   -14359341.61449 -11167028.17046  22423731.124    22423742.312
  23623405.387    -8674866.45749  -6728206.03146  23623405.197    23623416.139
  21584864.016   -21990362.72349 -16771655.82847  21584863.930    21584873.939
  20633917.686   -26990424.70349 -20977251.09647  20633917.936    20633926.331
 02  4  4  0 29 30.0000000  0 11G 6G14G26G18G17G 9G15G 3G23G21G29
  23958232.854   -10760306.64349  -8368718.20045  23958233.019    23958251.325
  23900002.393    -5233251.85549  -2955286.97345  23900002.474    23900020.702
  23485991.536    -8510921.43949  -6612161.36345  23485992.006    23486002.696
  20509139.777   -24198644.70849 -18821626.49648  20509139.758    20509147.134
  20665282.368   -22973780.62549 -17573319.64247  20665282.283    20665291.403
  24362506.023    -3059514.83449  -2349601.95045  24362506.209    24362524.086
  20320110.245   -27074929.99749 -20440742.50948  20320109.961    20320118.733
  22412163.086   -14420131.25049 -11214396.63546  22412163.163    22412174.367
  23637939.023    -8598492.21649  -6668693.70646  23637938.806    23637949.660
  21578709.933   -22022702.38349 -16796855.48947  21578709.860    21578719.829
  20630228.832   -27009809.29549 -20992355.91547  20630229.100    20630237.501
 02  4  4  0 30  0.0000000  0 11G 6G14G26G18G17G 9G15G 3G23G21G29
  23979373.624   -10649213.15849  -8282152.28245  23979373.784    23979392.186
  23878630.519    -5345559.10749  -3042798.51645  23878630.599    23878648.875
  23504262.391    -8414907.94049  -6537345.71045  23504262.857    23504273.328
  20513289.037   -24176839.94449 -18804635.76148  20513289.045    20513296.406
  20669377.224   -22952262.00949 -17556551.89647  20669377.148    20669386.252
  24349384.569    -3128468.18749  -2403331.57345  24349384.782    24349402.425
  20320919.123   -27070679.39249 -20437430.33348  20320918.811    20320927.588
  22400681.956   -14480464.65349 -11261409.58946  22400682.070    22400693.258
  23652472.285    -8522119.37749  -6609182.47546  23652472.134    23652483.007
  21572600.131   -22054809.06049 -16821873.61247  21572600.070    21572610.025
  20626646.219   -27028635.82749 -21007025.88447  20626646.490    20626654.914
 02  4  4  0 30 30.0000000  0 11G 6G14G26G18G17G 9G15G 3G23G21G29
  24000532.413   -10538024.36549  -8195512.08245  24000532.567    24000551.012
  23857279.408    -5457758.43749  -3130225.96045  23857279.400    23857297.588
  23522596.852    -8318559.56349  -6462269.12645  23522597.275    23522607.960
  20517495.179   -24154736.48649 -18787412.28148  20517495.164    20517502.533
  20673530.343   -22930437.23749 -17539545.58647  20673530.283    20673539.347
  24336302.233    -3197215.24149  -2456900.43345  24336302.439    24336320.078
  20321788.468   -27066110.65249 -20433870.25948  20321788.169    20321796.987
  22389288.193   -14540338.97849 -11308064.82946  22389288.288    22389299.455
  23667005.268    -8445747.91849  -6549672.33346  23667005.124    23667016.137
  21566534.691   -22086682.80049 -16846710.22447  21566534.649    21566544.578
  20623170.095   -27046902.69349 -21021259.75147  20623170.376    20623178.781
 02  4  4  0 31  0.0000000  0 11G 6G14G26G18G17G 9G15G 3G23G21G29
  24021708.619   -10426743.75349  -8108800.33145  24021708.897    24021727.545
  23835949.070    -5569848.01249  -3217567.91345  23835949.096    23835967.123
  23540994.326    -8221880.26749  -6386934.67445  23540994.789    23541005.541
  20521757.794   -24132336.42049 -18769957.67548  20521757.763    20521765.132
  20677741.703   -22908306.57049 -17522300.91347  20677741.627    20677750.706
  24323259.603    -3265753.83449  -2510306.87645  24323259.768    24323277.367
  20322718.401   -27061223.80449 -20430062.30348  20322718.105    20322726.943
  22377981.994   -14599752.99449 -11354361.37946  22377982.105    22377993.217
  23681537.707    -8369379.73249  -6490164.72546  23681537.603    23681548.594
  21560513.343   -22118325.08749 -16871366.48147  21560513.287    21560523.177
  20619800.357   -27064610.60749 -21035058.06247  20619800.639    20619809.041
 02  4  4  0 31 30.0000000  0 11G 6G14G26G18G17G 9G15G 3G23G21G29
  24042901.961   -10315372.32449  -8022017.86445  24042902.194    24042921.020
  23814640.374    -5681823.82549  -3304821.20845  23814640.398    23814658.277
  23559454.453    -8124871.62149  -6311343.58445  23559454.958    23559465.727
  20526076.744   -24109640.05249 -18752272.18648  20526076.743    20526084.105
  20682011.663   -22885867.85449 -17504816.21047  20682011.571    20682020.648
  24310257.471    -3334079.11249  -2563547.09545  24310257.649    24310275.215
  20323709.236   -27056016.66049 -20426004.77548  20323708.959    20323717.835
  22366764.139   -14658703.14849 -11400296.48446  22366764.251    22366775.296
  23696069.567    -8293014.35449  -6430659.32645  23696069.452    23696080.472
  21554536.249   -22149734.71649 -16895841.44847  21554536.195    21554546.044
  20616537.274   -27081757.85649 -21048419.49947  20616537.548    20616545.969
 02  4  4  0 32  0.0000000  0 11G 6G14G26G18G17G 9G15G 3G23G21G29
  24064112.282   -10203913.69649  -7935167.40645  24064112.401    24064131.196
  23793353.620    -5793684.29749  -3391984.63445  23793353.646    23793371.365
  23577976.494    -8027537.67949  -6235499.01845  23577976.976    23577987.779
  20530451.696   -24086649.37549 -18734357.36548  20530451.694    20530459.069
  20686340.300   -22863121.01549 -17487091.41547  20686340.175    20686349.261
  24297296.498    -3402188.74349  -2616619.32745  24297296.602    24297313.980
  20324761.029   -27050489.31349 -20421697.73848  20324760.751    20324769.616
  22355634.719   -14717188.62349 -11445869.50246  22355634.766    22355645.794
  23710600.675    -8216653.56149  -6371157.49646  23710600.542    23710611.634
  21548603.054   -22180913.68749 -16920136.67947  21548602.993    21548612.823
  20613380.865   -27098344.92249 -21061344.43247  20613381.103    20613389.484
 02  4  4  0 32 30.0000000  0 11G 6G14G26G18G17G 9G15G 3G23G21G29
  24085338.949   -10092369.16749  -7848250.04345  24085338.926    24085357.828
  23772089.551    -5905425.57349  -3479055.21045  23772089.636    23772107.082
  23596560.170    -7929880.07649  -6159402.26645  23596560.590    23596571.472
  20534882.627   -24063364.65349 -18716213.42348  20534882.627    20534890.005
  20690727.823   -22840064.18649 -17469125.07447  20690727.717    20690736.833
  24284377.385    -3470078.44649  -2669520.17645  24284377.416    24284394.850
  20325874.186   -27044639.59649 -20417139.49548  20325873.910    20325882.761
  22344594.227   -14775206.04249 -11491077.80146  22344594.340    22344605.358
  23725130.906    -8140296.86049  -6311658.83446  23725130.773    23725141.964
  21542713.969   -22211860.81349 -16944251.25647  21542713.900    21542723.737
  20610331.310   -27114370.27749 -21073831.65848  20610331.545    20610339.907
 02  4  4  0 33  0.0000000  0 11G 6G14G26G18G17G 9G15G 3G23G21G29
  24106581.089    -9980742.85049  -7761268.92745  24106581.090    24106599.923
  23750848.242    -6017046.88049  -3566032.29345  23750848.261    23750865.601
  23615204.619    -7831903.48949  -6083056.93645  23615205.024    23615215.870
  20539368.974   -24039788.87649 -18697842.68348  20539368.961    20539376.294
  20695174.225   -22816698.18649 -17450917.82147  20695174.119    20695183.251
  24271500.214    -3537746.61149  -2722248.39445  24271500.310    24271517.779
  20327048.563   -27038468.24949 -20412330.64348  20327048.277    20327057.094
  22333642.949   -14832755.02549 -11535921.09347  22333643.071    22333654.147
  23739659.938    -8063946.92749  -6252165.45446  23739659.735    23739670.974
  21536868.419   -22242578.92949 -16968187.38647  21536868.356    21536878.179
  20607388.382   -27129835.18949 -21085882.18848  20607388.612    20607396.967
 02  4  4  0 33 30.0000000  0 11G 6G14G26G18G17G 9G15G 3G23G21G29
  24127838.299    -9869037.02849  -7674225.88345  24127838.294    24127857.301
  23729630.310    -6128545.34349  -3652913.67645  23729630.299    23729647.517
  23633909.156    -7733610.90949  -6006465.38845  23633909.485    23633920.388
  20543910.506   -24015923.06549 -18679245.93348  20543910.487    20543917.794
  20699679.629   -22793022.15549 -17432468.97747  20699679.520    20699688.652
  24258665.919    -3605189.85049  -2774801.35845  24258666.085    24258683.468
  20328284.321   -27031974.33649 -20407270.43248  20328284.032    20328292.832
  22322781.129   -14889833.72749 -11580397.92047  22322781.300    22322792.355
  23754187.486    -7987604.47149  -6192677.89445  23754187.258    23754198.459
  21531066.478   -22273068.31349 -16991945.27947  21531066.383    21531076.198
  20604552.133   -27144739.46749 -21097495.85948  20604552.385    20604560.718
 02  4  4  0 34  0.0000000  0 11G 6G14G26G18G17G 9G15G 3G23G21G29
  24149110.360    -9757253.47549  -7587122.23545  24149110.448    24149129.432
  23708436.586    -6239917.49149  -3739696.62345  23708436.502    23708453.588
  23652673.378    -7635004.51249  -5929629.30445  23652673.725    23652684.727
  20548507.118   -23991767.81749 -18660423.65248  20548507.095    20548514.395
  20704244.321   -22769034.45249 -17413777.27147  20704244.250    20704253.372
  24245875.267    -3672404.15949  -2827175.93045  24245875.500    24245892.736
  20329581.760   -27025156.24949 -20401957.62448  20329581.454    20329590.261
  22312009.385   -14946439.40649 -11624506.16447  22312009.527    22312020.524
  23768713.522    -7911269.65749  -6133196.29745  23768713.342    23768724.487
  21525308.065   -22303328.66549 -17015524.70847  21525307.969    21525317.771
  20601822.840   -27159081.97949 -21108671.79948  20601823.085    20601831.401
 02  4  4  0 34 30.0000000  0 11G 6G14G26G18G17G 9G15G 3G23G21G29
  24170396.492    -9645395.52449  -7499960.66945  24170396.672    24170415.878
  23687267.120    -6351161.57949  -3826379.80445  23687267.077    23687283.967
  23671496.614    -7536088.24849  -5852551.76345  23671496.844    23671507.899
  20553158.322   -23967325.41149 -18641377.61148  20553158.305    20553165.610
  20708868.327   -22744735.18749 -17394842.79647  20708868.249    20708877.384
  24233128.773    -3739387.21149  -2879370.26245  24233128.915    24233145.876
  20330940.896   -27018013.80349 -20396392.06648  20330940.613    20330949.394
  22301327.846   -15002571.05549 -11668245.03747  22301327.962    22301338.916
  23783237.946    -7834944.09849  -6073721.91445  23783237.767    23783248.750
  21519592.982   -22333361.48549 -17038926.83647  21519592.886    21519602.653
  20599200.265   -27172863.36249 -21119410.47348  20599200.510    20599208.852
 02  4  4  0 35  0.0000000  0 11G 6G14G26G18G17G 9G15G 3G23G21G29
  24191696.423    -9533465.02749  -7412742.54745  24191696.697    24191715.922
  23666122.611    -6462274.71449  -3912960.97245  23666122.615    23666139.243
  23690378.338    -7436864.30149  -5775234.48845  23690378.672    23690389.689
  20557864.055   -23942596.46649 -18622108.29148  20557864.047    20557871.368
  20713551.880   -22720122.99349 -17375664.48447  20713551.787    20713560.937
  24220426.972    -3806135.03449  -2931381.29345  24220427.168    24220443.964
  20332362.002   -27010545.62649 -20390572.69448  20332361.719    20332370.485
  22290736.984   -15058226.02849 -11711612.47546  22290737.094    22290748.002
  23797760.422    -7758628.03249  -6014254.95745  23797760.204    23797771.401
  21513921.163   -22363166.75749 -17062151.65547  21513921.062    21513930.798
  20596684.660   -27186082.73849 -21129711.22448  20596684.892    20596693.234
 02  4  4  0 35 30.0000000  0 11G 6G14G26G18G17G 9G15G 3G23G21G29
  24213009.834    -9421464.27449  -7325469.68845  24213009.971    24213029.359
  23645003.572    -6573253.86749  -3999437.71145  23645003.596    23645020.135
  23709318.076    -7337335.68049  -5697679.77145  23709318.440    23709329.403
  20562624.115   -23917582.18249 -18602616.63248  20562624.102    20562631.425
  20718295.152   -22695196.89449 -17356241.56747  20718295.053    20718304.236
  24207770.427    -3872644.30349  -2983206.38345  24207770.570    24207787.490
  20333845.302   -27002750.73349 -20384498.74548  20333845.022    20333853.773
  22280237.267   -15113402.31549 -11754606.90347  22280237.353    22280248.251
  23812281.015    -7682322.22749  -5954795.97145  23812280.731    23812292.030
  21508292.551   -22392744.91649 -17085199.50747  21508292.479    21508302.157
  20594276.042   -27198739.74449 -21139573.76348  20594276.289    20594284.595
 02  4  4  0 36  0.0000000  0 11G 6G14G26G18G17G 9G15G 3G23G21G29
  24234335.944    -9309396.92849  -7238144.97545  24234336.097    24234355.590
  23623910.233    -6684097.56249  -4085808.89345  23623910.238    23623926.810
  23728314.983    -7237506.34949  -5619890.74245  23728315.359    23728326.241
  20567438.036   -23892284.96949 -18582904.49848  20567438.019    20567445.351
  20723098.115   -22669957.08749 -17336574.19547  20723098.018    20723107.196
  24195159.700    -3938912.84049  -3034843.89545  24195159.890    24195176.812
  20335390.721   -26994629.35549 -20378170.38648  20335390.442    20335399.213
  22269828.753   -15168099.12849 -11797227.71547  22269828.838    22269839.715
  23826799.271    -7606028.45849  -5895346.37245  23826798.961    23826810.293
  21502706.852   -22422097.84649 -17108071.85947  21502706.776    21502716.430
  20591974.266   -27210835.30949 -21148998.81148  20591974.523    20591982.814
 02  4  4  0 36 30.0000000  0 11G 6G14G26G18G17G 9G15G 3G23G21G29
  24255674.506    -9197264.08249  -7150769.17145  24255674.725    24255694.115
  23602843.323    -6794801.94149  -4172071.51145  23602843.403    23602859.944
  23747368.822    -7137378.20149  -5541868.86745  23747369.258    23747379.901
  20572305.748   -23866704.86049 -18562971.93048  20572305.729    20572313.050
  20727961.190   -22644401.62249 -17316660.84047  20727961.081    20727970.253
  24182595.650    -4004936.29549  -3086290.48245  24182595.768    24182612.689
  20336998.700   -26986179.26949 -20371585.88748  20336998.409    20337007.200
  22259512.036   -15222313.27349 -11839472.42547  22259512.131    22259523.016
  23841315.280    -7529746.32249  -5835905.80545  23841315.071    23841326.314
  21497164.112   -22451224.82149 -17130768.14347  21497164.033    21497173.668
  20589779.623   -27222368.05549 -21157985.30848  20589779.872    20589788.159
 02  4  4  0 37  0.0000000  0 11G 6G14G26G18G17G 9G15G 3G23G21G29
  24277024.843    -9085068.83749  -7063344.78545  24277025.134    24277044.726
  23581803.516    -6905364.86549  -4258223.94345  23581803.408    23581820.001
  23766478.871    -7036954.62449  -5463616.78945  23766479.339    23766489.940
  20577226.908   -23840843.77449 -18542820.41548  20577226.902    20577234.235
  20732884.341   -22618530.23549 -17296501.32847  20732884.263    20732893.404
  24170078.731    -4070711.98749  -3137543.99645  24170078.893    24170095.766
  20338669.318   -26977400.10549 -20364744.96748  20338669.042    20338677.816
  22249287.461   -15276043.36549 -11881339.95147  22249287.589    22249298.426
  23855828.855    -7453477.15049  -5776475.37045  23855828.624    23855839.908
  21491664.124   -22480127.12149 -17153289.35147  21491664.051    21491673.673
  20587691.975   -27233338.54049 -21166533.67848  20587692.227    20587700.474
 02  4  4  0 37 30.0000000  0 11G 6G14G26G18G17G 9G15G 3G23G21G29
  24298386.730    -8972814.03149  -6975873.96245  24298386.876    24298406.433
  23560791.041    -7015784.07649  -4344264.43645  23560790.895    23560807.339
  23785644.518    -6936239.09449  -5385137.22945  23785644.891    23785655.472
  20582201.237   -23814703.35849 -18522451.24548  20582201.239    20582208.544
  20737867.716   -22592342.52949 -17276095.33847  20737867.623    20737876.775
  24157609.463    -4136237.14749  -3188602.28045  24157609.616    24157626.411
  20340402.619   -26968291.45949 -20357647.31548  20340402.362    20340411.133
  22239155.289   -15329288.07149 -11922829.25247  22239155.373    22239166.201
  23870339.756    -7377222.04649  -5717055.90545  23870339.598    23870350.850
  21486206.714   -22508805.53149 -17175636.10447  21486206.649    21486216.305
  20585711.249   -27243746.95449 -21174644.08748  20585711.499    20585719.705
 02  4  4  0 38  0.0000000  0 11G 6G14G26G18G17G 9G15G 3G23G21G29
  24319759.279    -8860501.69949  -6888358.32845  24319759.520    24319779.280
  23539806.464    -7126056.63149  -4430190.64445  23539806.342    23539822.534
  23804865.063    -6835234.12249  -5306432.11345  23804865.585    23804876.069
  20587228.597   -23788284.29049 -18501864.94648  20587228.588    20587235.890
  20742911.495   -22565837.32449 -17255441.93847  20742911.371    20742920.547
  24145188.533    -4201508.08549  -3239462.43745  24145188.744    24145205.539
  20342198.875   -26958852.18649 -20350292.02948  20342198.589    20342207.346
  22229115.870   -15382045.11949 -11963938.56347  22229115.973    22229126.785
  23884847.898    -7300981.20449  -5657647.54845  23884847.774    23884858.998
  21480791.844   -22537260.43849 -17197808.70547  21480791.787    21480801.453
  20583837.667   -27253592.66349 -21182316.02548  20583837.896    20583846.059
 02  4  4  0 38 30.0000000  0 11G 6G14G26G18G17G 9G15G 3G23G21G29
  24341142.501    -8748133.95049  -6800799.53245  24341142.787    24341162.544
  23518850.355    -7236179.58049  -4516000.26845  23518850.279    23518866.398
  23824140.188    -6733942.11849  -5227503.34945  23824140.721    23824151.500
  20592308.793   -23761587.65849 -18481062.36648  20592308.791    20592316.087
  20748015.856   -22539013.50349 -17234540.27147  20748015.758    20748024.948
  24132816.816    -4266521.16149  -3290121.67845  24132816.969    24132833.843
  20344058.309   -26949080.93349 -20342678.06048  20344058.022    20344066.746
  22219169.656   -15434312.25549 -12004666.11447  22219169.769    22219180.578
  23899353.307    -7224755.09949  -5598250.64845  23899353.232    23899364.437
  21475419.576   -22565491.72649 -17219807.05547  21475419.497    21475429.157
  20582071.205   -27262875.36049 -21189549.25148  20582071.409    20582079.560
 02  4  4  0 39  0.0000000  0 11G 6G14G26G18G17G 9G15G 3G23G21G29
  24362535.746    -8635714.01149  -6713200.03045  24362535.807    24362555.825
  23497923.119    -7346151.11649  -4601691.91345  23497922.998    23497939.129
  23843469.255    -6632367.11749  -5148354.08445  23843469.778    23843480.686
  20597441.392   -23734615.63749 -18460045.19148  20597441.388    20597448.693
  20753180.946   -22511871.00149 -17213390.28547  20753180.832    20753189.977
  24120494.740    -4331274.10049  -3340578.21545  24120494.859    24120511.562
  20345980.847   -26938977.75449 -20334805.44848  20345980.561    20345989.288
  22209316.921   -15486088.55249 -12045011.20247  22209316.990    22209327.842
  23913855.648    -7148545.37049  -5538866.52745  23913855.602    23913866.760
  21470089.493   -22593501.14449 -17241632.51447  21470089.446    21470099.068
  20580411.737   -27271595.72649 -21196344.29748  20580411.937    20580420.078
 02  4  4  0 39 30.0000000  0 11G 6G14G26G18G17G 9G15G 3G23G21G29
  24383938.327    -8523244.36949  -6625561.80545  24383938.450    24383958.617
  23477025.085    -7455968.58449  -4687263.50345  23477025.025    23477041.087
  23862851.806    -6530512.17549  -5068986.65045  23862852.231    23862863.201
  20602626.141   -23707369.58149 -18438814.48548  20602626.129    20602633.430
  20758406.743   -22484409.35549 -17191991.61047  20758406.624    20758415.740
  24108222.572    -4395763.77649  -3390829.63545  24108222.715    24108239.194
  20347966.758   -26928541.61349 -20326673.38148  20347966.486    20347975.200
  22199557.879   -15537372.18749 -12084972.39547  22199557.956    22199568.815
  23928354.723    -7072352.78749  -5479495.76745  23928354.585    23928365.819
  21464801.554   -22621289.49249 -17263285.71147  21464801.477    21464811.067
  20578859.268   -27279753.86149 -21202701.23948  20578859.492    20578867.573
 02  4  4  0 40  0.0000000  0 11G 6G14G26G18G17G 9G15G 3G23G21G29
  24405350.037    -8410727.65549  -6537886.87045  24405350.057    24405370.262
  23456156.812    -7565629.54449  -4772713.14545  23456156.821    23456172.766
  23882286.897    -6428380.24049  -4989403.41545  23882287.297    23882298.246
  20607862.723   -23679850.89449 -18417371.34148  20607862.714    20607870.046
  20763693.491   -22456627.72149 -17170343.59947  20763693.334    20763702.454
  24096001.124    -4459986.89749  -3440873.32545  24096001.336    24096017.586
  20350016.183   -26917771.90249 -20318281.39148  20350015.897    20350024.642
  22189892.992   -15588161.44949 -12124548.36247  22189893.077    22189903.878
  23942850.307    -6996178.16449  -5420139.03145  23942850.200    23942861.598
  21459555.600   -22648856.71849 -17284766.60247  21459555.529    21459565.107
  20577413.772   -27287349.85549 -21208620.14848  20577414.003    20577422.079
 02  4  4  0 40 30.0000000  0 11G 6G14G26G18G17G 9G15G 3G23G21G29
  24426770.231    -8298165.54849  -6450176.62445  24426770.328    24426790.614
  23435319.245    -7675130.45849  -4858038.09045  23435319.158    23435334.928
  23901774.323    -6325973.67349  -4909606.15745  23901774.676    23901785.678
  20613151.078   -23652060.30349 -18395716.32648  20613151.062    20613158.417
  20769041.329   -22428524.58949 -17148445.06847  20769041.222    20769050.318
  24083831.012    -4523939.87549  -3490706.54645  24083831.112    24083847.426
  20352129.359   -26906666.89049 -20309628.12848  20352129.074    20352137.837
  22180322.531   -15638454.25949 -12163737.49147  22180322.652    22180333.396
  23957342.607    -6920021.51449  -5360796.25045  23957342.427    23957353.586
  21454351.697   -22676203.13449 -17306075.43947  21454351.622    21454361.219
  20576075.324   -27294383.12749 -21214100.58048  20576075.579    20576083.641
 02  4  4  0 41  0.0000000  0 11G 6G14G26G18G17G 9G15G 3G23G21G29
  24448198.316    -8185561.32649  -6362433.56145  24448198.394    24448219.208
  23414512.370    -7784469.66849  -4943237.05245  23414512.271    23414527.947
  23921313.175    -6223296.10149  -4829597.72345  23921313.629    23921324.542
  20618490.865   -23623999.51949 -18373850.76948  20618490.856    20618498.208
  20774450.291   -22400100.18149 -17126296.18547  20774450.187    20774459.304
  24071712.765    -4587620.17649  -3540327.29445  24071712.890    24071729.017
  20354306.375   -26895226.58649 -20300713.59448  20354306.107    20354314.853
  22170846.809   -15688249.32149 -12202538.75847  22170846.893    22170857.596
  23971831.184    -6843884.42449  -5301468.72045  23971830.938    23971842.128
  21449189.507   -22703330.26949 -17327213.40247  21449189.435    21449199.033
  20574843.846   -27300854.39049 -21219143.08248  20574844.092    20574852.157
 02  4  4  0 41 30.0000000  0 11G 6G14G26G18G17G 9G15G 3G23G21G29
  24469634.401    -8072916.40349  -6274658.82245  24469634.364    24469655.217
  23393736.893    -7893643.67849  -5028307.30545  23393736.834    23393752.315
  23940903.418    -6120349.74449  -4749379.86245  23940903.807    23940914.786
  20623881.976   -23595668.91649 -18351774.96348  20623881.984    20623889.333
  20779920.815   -22371352.76949 -17103895.61747  20779920.680    20779929.823
  24059647.278    -4651023.55849  -3589732.24645  24059647.463    24059663.464
  20356547.472   -26883449.31949 -20291536.49148  20356547.196    20356555.947
  22161466.288   -15737544.06349 -12240950.17947  22161466.316    22161477.030
  23986315.996    -6767766.49449  -5242156.15545  23986315.819    23986327.016
  21444069.113   -22730237.65449 -17348180.13647  21444069.030    21444078.665
  20573719.420   -27306762.97449 -21223747.13748  20573719.670    20573727.734
 02  4  4  0 42  0.0000000  0 11G 6G14G26G18G17G 9G15G 3G23G21G29
  24491077.490    -7960234.37449  -6186855.13945  24491077.509    24491098.465
  23372993.296    -8002651.05949  -5113247.71945  23372993.144    23373008.466
  23960543.871    -6017138.66849  -4668955.72945  23960544.220    23960555.333
  20629323.922   -23567071.20449 -18329491.01048  20629323.926    20629331.268
  20785452.630   -22342282.83249 -17081243.73047  20785452.501    20785461.676
  24047634.754    -4714148.12549  -3638919.95545  24047634.870    24047650.988
  20358852.685   -26871335.39149 -20282097.04848  20358852.400    20358861.159
  22152181.002   -15786337.83649 -12278971.22647  22152181.064    22152191.781
  24000796.834    -6691669.69649  -5182860.02445  24000796.704    24000807.866
  21438990.249   -22756926.99849 -17368976.95947  21438990.156    21438999.832
  20572701.945   -27312109.79049 -21227913.44148  20572702.185    20572710.270
 02  4  4  0 42 30.0000000  0 11G 6G14G26G18G17G 9G15G 3G23G21G29
  24512527.196    -7847517.29049  -6099024.14245  24512527.259    24512548.298
  23352281.779    -8111488.70749  -5198055.86845  23352281.673    23352296.882
  23980234.310    -5913665.22749  -4588327.14145  23980234.589    23980245.694
  20634816.560   -23538207.16649 -18306999.53748  20634816.564    20634823.888
  20791046.115   -22312888.98349 -17058339.44347  20791045.978    20791055.151
  24035676.043    -4776990.10249  -3687887.44645  24035676.238    24035692.498
  20361222.178   -26858883.46049 -20272394.22548  20361221.879    20361230.661
  22142991.558   -15834628.61749 -12316600.34047  22142991.606    22143002.265
  24015273.534    -6615594.20349  -5123580.52345  24015273.472    24015284.682
  21433952.896   -22783398.37749 -17389603.95047  21433952.793    21433962.452
  20571791.357   -27316894.87449 -21231642.03948  20571791.575    20571799.632
 02  4  4  0 43  0.0000000  0 11G 6G14G26G18G17G 9G15G 3G23G21G29
  24533983.195    -7734767.06749  -6011167.31945  24533983.146    24534004.531
  23331603.170    -8220153.57749  -5282729.35745  23331603.148    23331618.232
  23999974.003    -5809932.15649  -4507496.26345  23999974.314    23999985.535
  20640359.714   -23509077.56849 -18284301.13948  20640359.716    20640367.014
  20796701.417   -22283170.16149 -17035181.94147  20796701.273    20796710.441
  24023771.892    -4839545.91549  -3736631.95145  24023772.069    24023788.092
  20363656.172   -26846092.56349 -20262427.28648  20363655.884    20363664.686
  22133898.186   -15882414.40049 -12353835.95347  22133898.251    22133908.882
  24029746.157    -6539540.27349  -5064317.80345  24029746.083    24029757.276
  21428956.833   -22809652.57849 -17410061.70547  21428956.732    21428966.383
  20570987.741   -27321117.66749 -21234932.48448  20570987.981    20570996.006
 02  4  4  0 43 30.0000000  0 10G14G26G18G17G 9G15G 3G23G21G29
  23310958.416    -8328640.93649  -5367264.55845  23310958.431    23310973.362
  24019763.214    -5705940.32949  -4426463.74345  24019763.414    24019774.573
  20645953.555   -23479681.71449 -18261395.27348  20645953.574    20645960.877
  20802419.078   -22253123.59549 -17011769.05147  20802418.955    20802428.158
  24011923.214    -4901810.38049  -3785149.47245  24011923.412    24011939.264
  20366155.253   -26832959.61249 -20252193.81248  20366154.984    20366163.751
  22124901.594   -15929691.31849 -12390675.04747  22124901.689    22124912.305
  24044214.987    -6463506.42449  -5005070.77345  24044214.926    24044226.271
  21424002.453   -22835687.73349 -17430348.77547  21424002.362    21424012.014
  20570291.472   -27324776.41649 -21237783.41448  20570291.713    20570299.728
 02  4  4  0 44  0.0000000  0 10G14G26G18G17G 9G15G 3G23G21G29
  23290347.356    -8436951.74649  -5451662.19546  23290347.279    23290362.039
  24039600.319    -5601696.14049  -4345234.60045  24039600.431    24039611.756
  20651597.146   -23450024.47849 -18238285.73248  20651597.147    20651604.437
  20808198.515   -22222752.24249 -16988103.07147  20808198.414    20808207.610
  24000129.883    -4963784.01849  -3833440.34745  24000130.016    24000145.871
  20368718.939   -26819487.19349 -20241695.81148  20368718.689    20368727.455
  22116001.472   -15976461.32649 -12427119.14747  22116001.571    22116012.159
  24058679.150    -6387497.08949  -4945842.79845  24058678.983    24058690.477
  21419088.961   -22861508.06549 -17450468.44147  21419088.863    21419098.504
  20569701.824   -27327874.91849 -21240197.78648  20569702.042    20569710.065
 02  4  4  0 44 30.0000000  0 10G14G26G18G17G 9G15G 3G23G21G29
  23269770.349    -8545083.46449  -5535920.30246  23269770.263    23269784.780
  24059484.799    -5497202.73949  -4263811.24645  24059485.025    24059496.255
  20657290.243   -23420107.08649 -18214973.47048  20657290.226    20657297.494
  20814039.937   -22192055.29549 -16964183.38747  20814039.870    20814049.035
  23988392.432    -5025463.68049  -3881502.15745  23988392.542    23988408.404
  20371347.405   -26805674.62749 -20230932.75848  20371347.120    20371355.905
  22107198.186   -16022722.87649 -12463167.04147  22107198.295    22107208.851
  24073138.463    -6311512.75349  -4886634.32945  24073138.283    24073149.797
  21414216.176   -22887114.43949 -17470421.39347  21414216.067    21414225.716
  20569218.731   -27330413.46149 -21242175.82648  20569218.946    20569226.955
 02  4  4  0 45  0.0000000  0 10G14G26G18G17G 9G15G 3G23G21G29
  23249228.115    -8653032.48749  -5620036.04745  23249227.935    23249242.362
  24079416.363    -5392461.87849  -4182195.08145  24079416.616    24079427.953
  20663032.802   -23389929.68349 -18191458.60648  20663032.800    20663040.030
  20819943.647   -22161031.20449 -16940008.79347  20819943.573    20819952.710
  23976711.725    -5086844.98149  -3929331.45245  23976711.829    23976727.746
  20374040.897   -26791520.16549 -20219903.30148  20374040.605    20374049.403
  22098492.154   -16068473.20749 -12498816.59047  22098492.232    22098502.774
  24087593.147    -6235552.96849  -4827444.97845  24087592.957    24087604.591
  21409384.222   -22912506.21449 -17490207.13347  21409384.132    21409393.702
  20568842.318   -27332391.13549 -21243716.83248  20568842.557    20568850.571
 02  4  4  0 45 30.0000000  0 10G14G26G18G17G 9G15G 3G23G21G29
  23228720.817    -8760796.94149  -5704007.96345  23228720.672    23228735.059
  24099394.141    -5287477.14749  -4100388.87145  24099394.496    24099405.914
  20668824.476   -23359494.21149 -18167742.63648  20668824.461    20668831.682
  20825909.687   -22129679.47649 -16915578.88447  20825909.613    20825918.707
  23965088.177    -5147925.12249  -3976926.08445  23965088.335    23965104.192
  20376799.543   -26777023.51849 -20208607.19448  20376799.235    20376808.025
  22089883.587   -16113711.20849 -12534066.91547  22089883.662    22089894.209
  24102042.999    -6159618.89749  -4768275.66345  24102042.893    24102054.421
  21404592.942   -22937684.55149 -17509826.54247  21404592.829    21404602.350
  20568572.494   -27333808.79849 -21244821.45948  20568572.753    20568580.784
 02  4  4  0 46  0.0000000  0 10G14G26G18G17G 9G15G 3G23G21G29
  23208249.420    -8868372.93249  -5787833.02846  23208249.334    23208263.610
  24119418.194    -5182250.40549  -4018394.10045  24119418.544    24119430.043
  20674665.195   -23328801.05849 -18143825.88448  20674665.177    20674672.406
  20831938.344   -22097998.71849 -16890892.58747  20831938.269    20831947.402
  23953522.760    -5208700.27249  -4024283.06945  23953522.942    23953538.781
  20379623.593   -26762182.82349 -20197043.00848  20379623.310    20379632.090
  22081372.900   -16158434.75549 -12568916.36047  22081373.014    22081383.534
  24116488.003    -6083710.17549  -4709126.07545  24116487.953    24116499.395
  21399842.172   -22962649.66349 -17529279.80347  21399842.068    21399851.569
  20568409.385   -27334665.74349 -21245489.16648  20568409.636    20568417.642
 02  4  4  0 46 30.0000000  0 10G14G26G18G17G 9G15G 3G23G21G29
  23187814.212    -8975759.35049  -5871510.37646  23187814.092    23187828.333
  24139487.501    -5076786.14549  -3936214.23845  24139487.691    24139499.328
  20680554.491   -23297852.70449 -18119710.26948  20680554.460    20680561.687
  20838029.466   -22065989.56949 -16865950.39447  20838029.383    20838038.548
  23942015.787    -5269169.00049  -4071401.32145  23942015.947    23942031.602
  20382513.065   -26746998.66249 -20185211.18248  20382512.770    20382521.548
  22072960.295   -16202643.17949 -12603364.41147  22072960.418    22072970.898
  24130927.834    -6007828.97049  -4649997.95345  24130927.746    24130939.296
  21395131.745   -22987402.94149 -17548567.99747  21395131.639    21395141.129
  20568352.703   -27334963.56649 -21245721.18848  20568352.936    20568360.931
 02  4  4  0 47  0.0000000  0 10G14G26G18G17G 9G15G 3G23G21G29
  23167415.704    -9082952.76249  -5955037.34146  23167415.582    23167429.739
  24159601.602    -4971086.25449  -3853850.75345  24159601.865    24159613.494
  20686492.211   -23266649.74949 -18095396.27648  20686492.170    20686499.425
  20844183.418   -22033650.30949 -16840750.99447  20844183.342    20844192.556
  23930567.940    -5329327.08949  -4118277.48845  23930568.053    23930583.602
  20385468.190   -26731469.46949 -20173110.52248  20385467.914    20385476.654
  22064646.144   -16246334.20449 -12637409.30547  22064646.243    22064656.675
  24145362.385    -5931974.94249  -4590891.03745  24145362.303    24145374.036
  21390461.612   -23011944.12849 -17567690.93947  21390461.522    21390471.006
  20568402.523   -27334701.72149 -21245517.12148  20568402.751    20568410.729
 02  4  4  0 47 30.0000000  0 10G14G26G18G17G 9G15G 3G23G21G29
  23147054.377    -9189951.18849  -6038412.38846  23147054.278    23147068.294
  24179759.894    -4865154.34749  -3771306.49445  24179760.221    24179771.692
  20692478.027   -23235193.90049 -18070885.21248  20692477.986    20692485.230
  20850400.102   -22000981.26249 -16815294.60147  20850400.038    20850409.252
  23919179.647    -5389171.98049  -4164909.60445  23919179.656    23919195.204
  20388488.991   -26715595.02749 -20160740.82248  20388488.713    20388497.438
  22056430.589   -16289507.03549 -12671050.40247  22056430.671    22056441.079
  24159791.677    -5856149.45349  -4531806.31045  24159791.524    24159803.246
  21385831.643   -23036274.69449 -17586649.75247  21385831.537    21385841.024
  20568558.528   -27333881.38849 -21244877.85748  20568558.783    20568566.763
 02  4  4  0 48  0.0000000  0 10G14G26G18G17G 9G15G 3G23G21G29
  23126730.686    -9296751.14849  -6121632.79246  23126730.608    23126744.559
  24199961.800    -4758992.64449  -3688583.18845  24199962.135    24199973.574
  20698511.852   -23203485.73149 -18046177.54548  20698511.809    20698519.073
  20856679.857   -21967980.81049 -16789579.97947  20856679.841    20856689.044
  23907851.685    -5448699.82249  -4211294.67945  23907851.769    23907867.260
  20391575.766   -26699373.87349 -20148100.96448  20391575.496    20391584.206
  22048314.008   -16332159.34349 -12704285.90847  22048314.120    22048324.530
  24174215.482    -5780351.98849  -4472743.45945  24174215.329    24174227.003
  21381241.866   -23060394.08849 -17605444.03147  21381241.764    21381251.159
  20568820.997   -27332502.11549 -21243803.06548  20568821.231    20568829.222
 02  4  4  0 48 30.0000000  0 10G14G26G18G17G 9G15G 3G23G21G29
  23106445.033    -9403350.84849  -6204697.13446  23106444.981    23106458.842
  24220206.678    -4652604.68249  -3605683.57945  24220207.019    24220218.778
  20704593.352   -23171527.22349 -18021274.79948  20704593.328    20704600.554
  20863022.846   -21934648.82349 -16763607.01647  20863022.770    20863031.945
  23896584.634    -5507907.99049  -4257430.66945  23896584.789    23896600.126
  20394728.512   -26682806.06949 -20135190.97848  20394728.253    20394736.931
  22040296.795   -16374290.19849 -12737115.07147  22040296.881    22040307.248
  24188633.773    -5704583.91649  -4413703.51445  24188633.637    24188645.445
  21376691.950   -23084303.73949 -17624074.86947  21376691.854    21376701.230
  20569189.576   -27330564.83549 -21242293.45848  20569189.836    20569197.842
 02  4  4  0 49  0.0000000  0 10G14G26G18G17G 9G15G 3G23G21G29
  23086198.095    -9509747.61949  -6287603.37646  23086198.048    23086211.809
  24240494.224    -4545993.17749  -3522609.77145  24240494.784    24240506.294
  20710722.356   -23139319.24049 -17996177.66048  20710722.305    20710729.536
  20869428.995   -21900984.57949 -16737375.15547  20869428.895    20869438.034
  23885378.913    -5566793.52349  -4303315.29645  23885379.087    23885394.247
  20397947.487   -26665890.40649 -20122009.93848  20397947.205    20397955.882
  22032378.977   -16415898.03749 -12769536.70047  22032379.072    22032389.459
  24203046.399    -5628845.65049  -4354686.77145  24203046.150    24203058.079
  21372181.840   -23108004.37549 -17642542.84047  21372181.737    21372191.093
  20569664.368   -27328069.75649 -21240349.21248  20569664.618    20569672.622
 02  4  4  0 49 30.0000000  0 10G14G26G18G17G 9G15G 3G23G21G29
  23065990.306    -9615938.62749  -6370349.26746  23065990.238    23066003.960
  24260823.798    -4439161.06049  -3439364.05445  24260824.461    24260835.882
  20716898.533   -23106863.18149 -17970887.21348  20716898.510    20716905.720
  20875898.504   -21866987.30249 -16710883.77547  20875898.396    20875907.500
  23874235.124    -5625353.20549  -4348945.98745  23874235.342    23874250.441
  20401232.761   -26648626.00849 -20108557.15348  20401232.491    20401241.159
  22024561.043   -16456981.32149 -12801549.58847  22024561.134    22024571.505
  24217453.164    -5553137.73149  -4295693.70145  24217452.957    24217464.955
  21367711.468   -23131496.11849 -17660848.03347  21367711.351    21367720.689
  20570245.161   -27325017.41749 -21237970.73148  20570245.435    20570253.425
 02  4  4  0 50  0.0000000  0 10G14G26G18G17G 9G15G 3G23G21G29
  23045822.200    -9721921.64549  -6452933.10446  23045822.139    23045835.658
  24281194.759    -4332111.43449  -3355948.83545  24281195.388    24281206.706
  20723121.648   -23074160.33349 -17945404.46148  20723121.641    20723128.867
  20882431.431   -21832656.76249 -16684132.71747  20882431.314    20882440.418
  23863153.908    -5683584.04449  -4394320.42945  23863154.003    23863169.200
  20404584.526   -26631012.38249 -20094832.24148  20404584.270    20404592.936
  22016843.114   -16497538.94649 -12833152.86147  22016843.207    22016853.564
  24231854.000    -5477460.90249  -4236724.82445  24231853.787    24231865.790
  21363280.611   -23154780.17449 -17678991.39447  21363280.489    21363289.788
  20570931.889   -27321408.46349 -21235158.52348  20570932.160    20570940.134
 02  4  4  0 50 30.0000000  0 10G14G26G18G17G 9G15G 3G23G21G29
  23025694.191    -9827693.89249  -6535352.70046  23025694.104    23025707.583
  24301606.490    -4224847.17549  -3272366.38845  24301606.988    24301618.464
  20729391.455   -23041212.11449 -17919730.51448  20729391.441    20729398.676
  20889027.828   -21797992.20849 -16657121.40247  20889027.727    20889036.873
  23852135.909    -5741482.92749  -4439436.22045  23852136.090    23852151.210
  20408002.903   -26613048.72249 -20080834.57748  20408002.644    20408011.303
  22009225.527   -16537569.39949 -12864345.36247  22009225.610    22009235.980
  24246248.900    -5401815.55849  -4177780.50345  24246248.741    24246260.892
  21358889.180   -23177857.06849 -17696973.33647  21358889.079    21358898.319
  20571724.491   -27317243.35549 -21231912.95148  20571724.741    20571732.694
 02  4  4  0 51  0.0000000  0 10G14G26G18G17G 9G15G 3G23G21G29
  23005606.669    -9933253.25149  -6617606.39846  23005606.541    23005619.962
  24322058.493    -4117371.41549  -3188619.13345  24322058.979    24322070.690
  20735707.698   -23008019.93749 -17893866.46748  20735707.688    20735714.932
  20895687.980   -21762993.26049 -16629849.51147  20895687.836    20895696.981
  23841181.738    -5799046.95949  -4484291.06145  23841181.904    23841197.020
  20411488.013   -26594734.48949 -20066563.73948  20411487.731    20411496.415
  22001708.446   -16577071.48249 -12895126.14247  22001708.524    22001718.916
  24260637.586    -5326202.54449  -4118861.36845  24260637.321    24260649.611
  21354536.969   -23200727.90249 -17714794.70847  21354536.852    21354546.070
  20572622.786   -27312522.66449 -21228234.45148  20572623.049    20572630.988
 02  4  4  0 51 30.0000000  0 10G14G26G18G17G 9G15G 3G23G21G29
  22985560.206   -10038596.65849  -6699691.85346  22985560.118    22985573.460
  24342550.396    -4009686.49049  -3104708.88845  24342550.872    24342562.302
  20742070.208   -22974584.59649 -17867812.93948  20742070.214    20742077.441
  20902411.817   -21727658.83749 -16602316.21747  20902411.712    20902420.889
  23830291.828    -5856272.58449  -4528882.20845  23830291.953    23830307.090
  20415039.977   -26576068.63949 -20052018.92048  20415039.692    20415048.378
  21994292.191   -16616043.56049 -12925493.93747  21994292.288    21994302.709
  24275020.154    -5250621.99049  -4059967.52745  24275019.904    24275032.138
  21350223.962   -23223392.68849 -17732455.52947  21350223.838    21350233.028
  20573626.784   -27307246.65649 -21224123.24448  20573627.024    20573634.925
 02  4  4  0 52  0.0000000  0 10G14G26G18G17G 9G15G 3G23G21G29
  22965555.315   -10143721.90649  -6781607.31046  22965555.257    22965568.481
  24363081.374    -3901795.76749  -3020638.30645  24363081.799    24363093.365
  20748478.734   -22940907.43549 -17841570.98048  20748478.747    20748485.940
  20909199.617   -21691988.69049 -16574521.31847  20909199.552    20909208.719
  23819466.603    -5913157.35849  -4573207.75645  23819466.787    23819482.066
  20418658.907   -26557050.97449 -20037199.95448  20418658.627    20418667.301
  21986977.029   -16654484.54849 -12955447.89847  21986977.172    21986987.540
  24289396.517    -5175074.72149  -4001099.57745  24289396.241    24289408.303
  21345949.998   -23245852.30749 -17749956.47847  21345949.886    21345959.081
  20574736.185   -27301416.44249 -21219580.18348  20574736.446    20574744.356
 02  4  4  0 52 30.0000000  0 10G14G26G18G17G 9G15G 3G23G21G29
  22945592.378   -10248626.44949  -6863350.77746  22945592.328    22945605.384
  24383650.950    -3793702.34949  -2936409.74845  24383651.359    24383663.108
  20754933.000   -22906990.05749 -17815141.84348  20754932.999    20754940.187
  20916051.466   -21655982.36849 -16546464.45647  20916051.339    20916060.500
  23808706.999    -5969698.03949  -4617265.17245  23808707.245    23808722.569
  20422344.966   -26537680.69049 -20022106.23048  20422344.675    20422353.346
  21979763.313   -16692393.24249 -12984987.08847  21979763.376    21979773.688
  24303766.171    -5099561.36849  -3942258.16845  24303765.952    24303778.184
  21341714.879   -23268107.61349 -17767298.23047  21341714.768    21341723.953
  20575950.963   -27295032.41149 -21214605.58148  20575951.245    20575959.148
 02  4  4  0 53  0.0000000  0 11G14G26G18G31G17G 9G15G 3G23G21G29
  22925671.018   -10353312.35949  -6944923.89846  22925671.028    22925683.968
  24404257.994    -3685413.45749  -2852028.87745  24404258.373    24404269.736
  20761431.927   -22872837.95949 -17788529.80448  20761431.950    20761439.120
  24423173.402    -3011620.17449  -2020520.62945  24423172.860    24423188.392
  20922966.477   -21619643.70949 -16518148.63547  20922966.362    20922975.523
  23798012.746    -6025896.21249  -4661055.69245  23798012.969    23798028.138
  20426097.398   -26517961.33049 -20006740.49148  20426097.107    20426105.795
  21972650.171   -16729772.71049 -13014113.89547  21972650.251    21972660.545
  24318128.653    -5024086.94049  -3883446.99345  24318128.231    24318140.542
  21337517.678   -23290163.81649 -17784484.82847  21337517.564    21337526.762
  20577270.234   -27288099.70149 -21209203.43148  20577270.502    20577278.367
 02  4  4  0 53 30.0000000  0 11G14G26G18G31G17G 9G15G 3G23G21G29
  22905792.874   -10457771.66749  -7026320.42746  22905792.820    22905805.768
  24424902.424    -3576926.57149  -2767493.73145  24424902.791    24424914.109
  20767976.258   -22838447.29149 -17761731.86548  20767976.259    20767983.428
  24406344.321    -3100057.11149  -2089432.29645  24406343.810    24406359.078
  20929945.854   -21582966.69449 -16489569.16647  20929945.760    20929954.937
  23787385.405    -6081743.50849  -4704572.84345  23787385.595    23787400.446
  20429917.414   -26497886.92349 -19991098.08648  20429917.133    20429925.812
  21965639.087   -16766616.27749 -13042823.11747  21965639.115    21965649.444
  24332484.511    -4948646.46049  -3824662.29745  24332484.151    24332496.369
  21333359.243   -23312016.10749 -17801512.53947  21333359.143    21333368.336
  20578694.783   -27280613.61449 -21203370.08048  20578695.036    20578702.871
 02  4  4  0 54  0.0000000  0 11G14G26G18G31G17G 9G15G 3G23G21G29
  22885958.433   -10562000.90149  -7107537.69446  22885958.441    22885971.329
  24445584.007    -3468243.96249  -2682806.07945  24445584.464    24445595.913
  20774565.902   -22803818.37849 -17734748.27648  20774565.907    20774573.050
  24389576.083    -3188174.58649  -2158095.03645  24389575.519    24389590.710
  20936989.891   -21545950.24949 -16460725.20347  20936989.774    20936998.978
  23776825.331    -6137236.36749  -4747813.78245  23776825.527    23776840.355
  20433805.235   -26477456.12149 -19975177.96548  20433804.961    20433813.625
  21958730.217   -16802921.98349 -13071113.22747  21958730.287    21958740.640
  24346833.897    -4873239.73249  -3765903.93545  24346833.578    24346845.929
  21329239.708   -23333664.20349 -17818381.13647  21329239.605    21329248.811
  20580224.632   -27272574.19149 -21197105.55148  20580224.867    20580232.663
 02  4  4  0 54 30.0000000  0 11G14G26G18G31G17G 9G15G 3G23G21G29
  22866167.999   -10665999.28849  -7188575.07546  22866167.962    22866180.798
  24466302.059    -3359369.93449  -2597969.26045  24466302.401    24466314.103
  20781200.424   -22768953.86349 -17707581.10948  20781200.404    20781207.540
  24372868.657    -3275971.54149  -2226508.01845  24372868.136    24372883.343
  20944098.361   -21508595.06449 -16431617.29247  20944098.252    20944107.484
  23766332.804    -6192373.23849  -4790777.29445  23766332.941    23766347.848
  20437760.791   -26456669.67449 -19958980.71848  20437760.503    20437769.123
  21951923.712   -16838690.05449 -13098984.39747  21951923.810    21951934.200
  24361176.550    -4797868.79149  -3707173.41845  24361176.318    24361188.628
  21325158.533   -23355110.51149 -17835092.49747  21325158.450    21325167.632
  20581859.433   -27263983.27649 -21190411.28948  20581859.625    20581867.410
 02  4  4  0 55  0.0000000  0 11G14G26G18G31G17G 9G15G 3G23G21G29
  22846422.109   -10769763.63249  -7269430.09346  22846422.081    22846434.757
  24487056.286    -3250306.64249  -2512984.95645  24487056.913    24487068.347
  20787879.618   -22733854.51949 -17680230.95648  20787879.610    20787886.684
  24356222.849    -3363444.52049  -2294668.56845  24356222.438    24356237.554
  20951271.476   -21470900.03749 -16402244.57447  20951271.386    20951280.652
  23755908.862    -6247150.20549  -4833460.38445  23755909.037    23755923.869
  20441784.292   -26435526.21249 -19942505.27847  20441783.977    20441792.595
  21945219.856   -16873918.85649 -13126435.36147  21945219.941    21945230.335
  24375512.513    -4722533.29049  -3648470.51945  24375512.184    24375524.562
  21321115.894   -23376354.46449 -17851646.17347  21321115.809    21321125.021
  20583599.106   -27254841.02849 -21183287.41848  20583599.291    20583607.059
 02  4  4  0 55 30.0000000  0 11G14G26G18G31G17G 9G15G 3G23G21G29
  22826721.120   -10873292.02349  -7350101.26946  22826721.070    22826733.607
  24507845.658    -3141057.80649  -2427856.07645  24507846.172    24507857.523
  20794603.096   -22698522.26349 -17652699.31948  20794603.076    20794610.156
  24339639.099    -3450591.61049  -2362575.15645  24339638.860    24339653.642
  20958509.286   -21432865.29449 -16372607.13847  20958509.176    20958518.470
  23745553.982    -6301565.18449  -4875861.45045  23745554.125    23745568.687
  20445875.589   -26414026.03849 -19925751.87947  20445875.275    20445883.913
  21938618.799   -16908607.73349 -13153465.59947  21938618.841    21938629.209
  24389841.503    -4647234.60949  -3589796.33545  24389841.244    24389853.630
  21317111.489   -23397397.63849 -17868043.39547  21317111.401    21317120.609
  20585443.372   -27245149.13749 -21175735.25548  20585443.574    20585451.319
 02  4  4  0 56  0.0000000  0 11G14G26G18G31G17G 9G15G 3G23G21G29
  22807065.507   -10976581.79449  -7430586.49946  22807065.448    22807077.932
  24528669.813    -3031626.21549  -2342584.80745  24528670.285    24528681.624
  20801370.686   -22662958.38349 -17624987.19548  20801370.661    20801377.760
  24323117.936    -3537410.21549  -2430225.78945  24323117.547    24323132.447
  20965811.739   -21394490.47549 -16342704.70747  20965811.671    20965821.002
  23735268.541    -6355615.20849  -4917978.11945  23735268.656    23735282.987
  20450034.991   -26392168.20849 -19908719.79247  20450034.676    20450043.338
  21932120.667   -16942755.51349 -13180074.20547  21932120.739    21932131.059
  24404163.360    -4571973.00549  -3531151.07745  24404163.049    24404175.531
  21313145.224   -23418240.54349 -17884284.56747  21313145.097    21313154.285
  20587392.087   -27234908.27849 -21167755.32548  20587392.295    20587400.021
 02  4  4  0 56 30.0000000  0 11G14G26G18G31G17G 9G15G 3G23G21G29
  22787455.683   -11079630.74649  -7510884.07546  22787455.583    22787468.067
  24549528.153    -2922014.84149  -2257173.43245  24549528.566    24549540.244
  20808182.086   -22627164.19149 -17597095.60648  20808182.065    20808189.168
  24306659.544    -3623897.91549  -2497618.56545  24306659.171    24306674.037
  20973179.093   -21355774.92349 -16312536.77347  20973179.040    20973188.354
  23725052.934    -6409297.48349  -4959808.21645  23725053.009    23725067.389
  20454262.525   -26369952.14549 -19891408.56647  20454262.229    20454270.917
  21925725.687   -16976360.94249 -13206260.20547  21925725.786    21925736.076
  24418478.286    -4496749.09549  -3472535.07345  24418477.980    24418490.226
  21309216.810   -23438884.20549 -17900370.48447  21309216.686    21309225.859
  20589445.185   -27224119.00249 -21159348.06248  20589445.404    20589453.121
 02  4  4  0 57  0.0000000  0 11G14G26G18G31G17G 9G15G 3G23G21G29
  22767892.181   -11182436.27449  -7590991.98146  22767892.097    22767904.497
  24570420.286    -2812226.28149  -2171623.97345  24570420.691    24570432.240
  20815037.144   -22591140.45649 -17569025.15248  20815037.130    20815044.228
  24290264.639    -3710051.99349  -2564751.38745  24290264.231    24290279.178
  20980611.559   -21316717.93349 -16282102.77047  20980611.385    20980620.651
  23714907.819    -6462608.66349  -5001349.13145  23714907.921    23714922.418
  20458558.412   -26347377.15649 -19873817.65647  20458558.105    20458566.761
  21919434.222   -17009422.75749 -13232022.60447  21919434.302    21919444.572
  24432785.596    -4421563.08849  -3413948.76045  24432785.343    24432797.933
  21305326.227   -23459329.14749 -17916301.55647  21305326.120    21305335.259
  20591602.495   -27212782.00749 -21150514.00148  20591602.680    20591610.427
 02  4  4  0 57 30.0000000  0 11G14G26G18G31G17G 9G15G 3G23G21G29
  22748375.394   -11284996.24549  -7670908.54446  22748375.338    22748387.633
  24591345.516    -2702264.25149  -2085939.38745  24591345.845    24591357.584
  20821935.543   -22554889.33049 -17540777.51648  20821935.514    20821942.595
  24273933.664    -3795870.58849  -2631622.78045  24273933.346    24273948.130
  20988108.711   -21277319.84749 -16251402.98247  20988108.575    20988117.864
  23704833.846    -6515546.65349  -5042599.28345  23704834.065    23704848.490
  20462922.596   -26324443.13149 -19855946.98948  20462922.294    20462930.945
  21913246.237   -17041940.70149 -13257361.20647  21913246.315    21913256.545
  24447085.847    -4346416.16849  -3355392.76745  24447085.486    24447097.911
  21301473.202   -23479576.78249 -17932078.88447  21301473.087    21301482.237
  20593863.705   -27200899.04649 -21141254.51548  20593863.915    20593871.691
 02  4  4  0 58  0.0000000  0 11G14G26G18G31G17G 9G15G 3G23G21G29
  22728905.857   -11387308.05449  -7750631.73646  22728905.836    22728918.109
  24612303.079    -2592131.15949  -2000121.45645  24612303.507    24612315.228
  20828877.011   -22518411.69349 -17512353.37148  20828876.968    20828884.044
  24257667.185    -3881350.85949  -2698230.54945  24257666.957    24257681.840
  20995670.922   -21237579.89749 -16220436.80047  20995670.820    20995680.146
  23694831.606    -6568108.13149  -5083556.04745  23694831.799    23694845.979
  20467355.336   -26301149.13749 -19837795.81348  20467355.025    20467363.654
  21907161.957   -17073913.30749 -13282274.86847  21907162.048    21907172.274
  24461378.376    -4271308.51249  -3296867.45145  24461378.090    24461390.562
  21297657.663   -23499627.35949 -17947702.64847  21297657.539    21297666.676
  20596228.730   -27188470.44149 -21131569.85248  20596228.938    20596236.729
 02  4  4  0 58 30.0000000  0 11G14G26G18G31G17G 9G15G 3G23G21G29
  22709484.041   -11489369.12549  -7830159.55146  22709484.002    22709496.277
  24633292.927    -2481829.64149  -1914172.32145  24633293.386    24633304.816
  20835861.414   -22481708.54749 -17483753.51048  20835861.373    20835868.463
  24241465.557    -3966490.11249  -2764572.59645  24241465.323    24241480.072
  21003298.384   -21197497.31749 -16189203.64647  21003298.269    21003307.623
  23684901.453    -6620290.17249  -5124217.14245  23684901.645    23684915.712
  20471856.684   -26277494.34449 -19819363.50147  20471856.369    20471865.019
  21901181.693   -17105339.56749 -13306762.81547  21901181.787    21901191.970
  24475663.515    -4196240.38649  -3238372.92445  24475663.201    24475675.750
  21293879.593   -23519480.92349 -17963172.90847  21293879.484    21293888.617
  20598697.420   -27175496.93049 -21121460.59148  20598697.668    20598705.457
 02  4  4  0 59  0.0000000  0 11G14G26G18G31G17G 9G15G 3G23G21G29
  22690110.424   -11591177.26349  -7909490.29646  22690110.374    22690122.536
  24654314.039    -2371362.94249  -1828094.47945  24654314.423    24654326.002
  20842888.397   -22444781.52249 -17454979.19848  20842888.339    20842895.443
  24225329.264    -4051286.05849  -2830647.13345  24225328.974    24225343.735
  21010991.044   -21157072.10749 -16157703.51247  21010990.924    21011000.307
  23675043.855    -6672090.39149  -5164580.68945  23675044.068    23675058.303
  20476426.697   -26253478.54049 -19800649.87347  20476426.395    20476435.056
  21895305.587   -17136218.68949 -13330824.40547  21895305.705    21895315.795
  24489940.846    -4121212.55449  -3179909.78945  24489940.597    24489953.053
  21290138.819   -23539138.74349 -17978490.63147  21290138.684    21290147.800
  20601269.639   -27161979.73449 -21110927.67948  20601269.888    20601277.660
 02  4  4  0 59 30.0000000  0 10G14G18G31G17G 9G15G 3G23G21G29
  22670785.232   -11692730.19849  -7988622.16746  22670785.193    22670797.308
  20849957.707   -22407631.96749 -17426031.48248  20849957.645    20849964.750
  24209258.694    -4135736.36149  -2896452.33845  24209258.490    24209273.134
  21018748.981   -21116303.82949 -16125936.04647  21018748.923    21018758.298
  23665259.771    -6723505.74049  -5204644.33445  23665259.921    23665274.121
  20481065.510   -26229101.53949 -19781654.80147  20481065.204    20481073.835
  21889533.807   -17166549.74549 -13354458.94047  21889533.891    21889543.952
  24504210.448    -4046225.59349  -3121478.48845  24504210.278    24504222.548
  21286435.074   -23558601.60549 -17993656.44347  21286434.968    21286444.070
  20603945.118   -27147919.94749 -21099971.96948  20603945.375    20603953.107
 02  4  4  1  0  0.0000000  0 10G14G18G31G17G 9G15G 3G23G21G29
  22651509.119   -11794025.62149  -8067553.40446  22651509.088    22651521.126
  20857069.083   -22370261.37849 -17396911.53748  20857069.032    20857076.129
  24193254.269    -4219838.66849  -2961986.39345  24193254.160    24193268.820
  21026572.360   -21075192.34949 -16093901.13747  21026572.207    21026581.566
  23655549.459    -6774533.82049  -5244406.25045  23655549.524    23655563.573
  20485773.087   -26204363.10549 -19762378.09347  20485772.765    20485781.387
  21883866.472   -17196331.83649 -13377665.70447  21883866.515    21883876.562
  24518472.132    -3971279.97149  -3063079.46045  24518471.805    24518484.364
  21282768.330   -23577870.42249 -18008671.04747  21282768.196    21282777.289
  20606723.650   -27133318.79549 -21088594.41848  20606723.862    20606731.580
 02  4  4  1  0 30.0000000  0 10G14G18G31G17G 9G15G 3G23G21G29
  22632282.580   -11895060.34049  -8146281.48246  22632282.558    22632294.581
  20864222.449   -22332669.99449 -17367619.54848  20864222.429    20864229.493
  24177316.973    -4303589.43949  -3027246.52045  24177316.842    24177331.310
  21034461.105   -21033736.43849 -16061597.84347  21034461.006    21034470.384
  23645913.459    -6825170.74949  -5283863.36345  23645913.555    23645927.323
  20490549.742   -26179261.56249 -19742818.44647  20490549.438    20490558.022
  21878303.795   -17225563.37049 -13400443.47147  21878303.866    21878313.954
  24532726.155    -3896375.58849  -3004712.49745  24532725.916    24532738.149
  21279138.446   -23596945.23149 -18023534.47647  21279138.339    21279147.397
  20609605.139   -27118176.39549 -21076795.11848  20609605.347    20609613.059
 02  4  4  1  1  0.0000000  0 10G14G18G31G17G 9G15G 3G23G21G29
  22613106.143   -11995832.11449  -8224804.68746  22613106.163    22613118.029
  20871417.594   -22294859.35749 -17338156.70747  20871417.568    20871424.587
  24161446.816    -4386986.68149  -3092231.17345  24161446.798    24161461.121
  21042415.538   -20991935.80749 -16029025.93947  21042415.439    21042424.818
  23636352.148    -6875414.34149  -5323013.96845  23636352.354    23636365.940
  20495395.638   -26153796.40349 -19722975.46047  20495395.293    20495403.879
  21872846.080   -17254243.62849 -13422791.67147  21872846.134    21872856.222
  24546972.253    -3821512.91749  -2946378.00645  24546971.945    24546983.982
  21275545.408   -23615826.75249 -18038247.29547  21275545.287    21275554.317
  20612589.362   -27102493.84049 -21064574.91448  20612589.581    20612597.288
 02  4  4  1  1 30.0000000  0 10G14G18G31G17G 9G15G 3G23G21G29
  22593980.235   -12096338.47049  -8303121.06146  22593980.203    22593992.015
  20878654.240   -22256830.55949 -17308523.87347  20878654.199    20878661.216
  24145644.538    -4470028.09749  -3156938.56245  24145644.488    24145658.700
  21050435.686   -20949790.11149 -15996185.15547  21050435.547    21050444.871
  23626866.431    -6925261.53449  -5361855.70245  23626866.601    23626880.097
  20500310.707   -26127967.32049 -19702848.90747  20500310.381    20500318.978
  21867493.476   -17282371.50249 -13444709.44247  21867493.529    21867503.586
  24561209.943    -3746692.27949  -2888076.41645  24561209.738    24561222.357
  21271988.958   -23634515.78349 -18052810.11747  21271988.868    21271997.862
  20615676.228   -27086272.14749 -21051934.60948  20615676.454    20615684.176
 02  4  4  1  2  0.0000000  0 10G14G18G31G17G 9G15G 3G23G21G29
  22574905.269   -12196577.25049  -8381228.93846  22574905.169    22574916.949
  20885932.076   -22218585.11549 -17278722.22547  20885932.040    20885939.054
  24129910.263    -4552711.24349  -3221366.77645  24129910.231    24129924.512
  21058521.483   -20907299.08049 -15963075.27447  21058521.379    21058530.628
  23617456.463    -6974709.74249  -5400386.54245  23617456.586    23617470.297
  20505295.142   -26101773.85349 -19682438.40947  20505294.810    20505303.415
  21862246.049   -17309946.53649 -13466196.42947  21862246.102    21862256.182
  24575440.046    -3671914.46749  -2829808.04445  24575439.866    24575452.304
  21268469.096   -23653012.61349 -18067223.17147  21268469.005    21268477.979
  20618865.387   -27069512.73249 -21038875.29648  20618865.616    20618873.344
 02  4  4  1  2 30.0000000  0 10G14G18G31G17G 9G15G 3G23G21G29
  22555881.727   -12296545.47249  -8459126.00146  22555881.639    22555893.353
  20893251.057   -22180123.63549 -17248752.24047  20893251.023    20893258.048
  24114244.762    -4635033.10049  -3285513.46345  24114244.706    24114258.950
  21066673.215   -20864461.87249 -15929695.64447  21066673.036    21066682.261
  23608123.093    -7023755.71849  -5438603.97345  23608123.217    23608136.904
  20510349.169   -26075214.79049 -19661743.03047  20510348.841    20510357.424
  21857104.035   -17336967.26549 -13487251.49947  21857104.132    21857114.241
  24589661.643    -3597179.07549  -2771572.77245  24589661.333    24589673.875
  21264985.672   -23671318.00749 -18081487.05847  21264985.567    21264994.522
  20622156.836   -27052215.95849 -21025397.26548  20622157.088    20622164.785
 02  4  4  1  3  0.0000000  0 10G14G18G31G17G 9G15G 3G23G21G29
  22536910.073   -12396241.29549  -8536810.80646  22536909.953    22536921.599
  20900610.735   -22141447.90949 -17218615.30347  20900610.718    20900617.762
  24098648.385    -4716991.67649  -3349377.07645  24098648.304    24098662.564
  21074890.687   -20821278.68149 -15896046.42347  21074890.517    21074899.760
  23598866.784    -7072396.95849  -5476505.99145  23598866.845    23598880.521
  20515472.751   -26048290.09349 -19640762.73947  20515472.454    20515481.000
  21852067.699   -17363433.36049 -13507874.38447  21852067.808    21852077.857
  24603875.104    -3522487.33249  -2713371.51745  24603874.901    24603887.570
  21261538.420   -23689433.09249 -18095602.65047  21261538.294    21261547.274
  20625550.219   -27034383.40749 -21011501.74448  20625550.469    20625558.168
 02  4  4  1  3 30.0000000  0 10G14G18G31G17G 9G15G 3G23G21G29
  22517990.802   -12495661.54049  -8614280.87746  22517990.740    22518002.341
  20908011.156   -22102558.34049 -17188311.73647  20908011.125    20908018.183
  24083121.728    -4798583.73449  -3412955.08645  24083121.602    24083135.897
  21083174.216   -20777748.47249 -15862126.79247  21083174.032    21083183.314
  23589688.239    -7120630.01449  -5514089.95845  23589688.319    23589701.835
  20520666.113   -26020998.72149 -19619496.73947  20520665.809    20520674.384
  21847137.266   -17389343.13149 -13528063.76947  21847137.361    21847147.368
  24618080.451    -3447838.79349  -2655203.96745  24618080.158    24618092.926
  21258127.353   -23707358.09249 -18109570.12747  21258127.235    21258136.229
  20629045.494   -27016015.53649 -20997189.09148  20629045.749    20629053.435
 02  4  4  1  4  0.0000000  0 10G14G18G31G17G 9G15G 3G23G21G29
  22499124.269   -12594804.57349  -8691534.94046  22499124.221    22499135.793
  20915451.915   -22063456.91849 -17157843.09347  20915451.874    20915458.941
  24067665.193    -4879807.62449  -3476246.22645  24067665.032    24067679.242
  21091523.735   -20733871.44649 -15827936.92947  21091523.572    21091532.861
  23580587.713    -7168452.86149  -5551354.30245  23580587.759    23580601.249
  20525929.224   -25993340.84849 -19597945.15647  20525928.925    20525937.524
  21842312.624   -17414696.60949 -13547819.68547  21842312.692    21842322.702
  24632277.084    -3373234.29449  -2597070.57845  24632277.029    24632289.072
  21254752.369   -23725093.61549 -18123389.96447  21254752.241    21254761.237
  20632642.301   -26997114.19249 -20982460.74748  20632642.539    20632650.188
 02  4  4  1  4 30.0000000  0 10G14G18G31G17G 9G15G 3G23G21G29
  22480310.796   -12693668.49049  -8768571.51646  22480310.795    22480322.324
  20922932.606   -22024145.38249 -17127210.72347  20922932.565    20922939.639
  24052278.971    -4960661.60249  -3539249.11045  24052278.905    24052293.055
  21099939.157   -20689647.83049 -15793476.99647  21099939.026    21099948.303
  23571565.474    -7215863.52249  -5588297.44745  23571565.595    23571579.029
  20531262.061   -25965316.54549 -19576108.04447  20531261.773    20531270.393
  21837593.840   -17439493.82949 -13567142.15847  21837593.888    21837603.899
  24646465.569    -3298675.00949  -2538972.52445  24646465.466    24646477.741
  21251413.123   -23742641.31349 -18137063.44347  21251412.993    21251421.959
  20636340.308   -26977680.87849 -20967317.88348  20636340.549    20636348.173
 02  4  4  1  5  0.0000000  0 10G14G18G31G17G 9G15G 3G23G21G29
  22461551.189   -12792249.97849  -8845388.03746  22461551.182    22461562.581
  20930453.284   -21984624.08649 -17096414.90347  20930453.239    20930460.300
  24036963.914    -5041142.08749  -3601960.97345  24036963.797    24036977.891
  21108420.882   -20645076.34549 -15758745.99147  21108420.704    21108429.992
  23562622.364    -7262858.39749  -5624916.58245  23562622.556    23562635.829
  20536664.906   -25936924.47249 -19553984.35747  20536664.613    20536673.232
  21832981.234   -17463732.82849 -13586029.65647  21832981.322    21832991.298
  24660645.219    -3224160.10849  -2480909.19745  24660645.001    24660657.834
  21248109.670   -23760000.78049 -18150590.24347  21248109.530    21248118.484
  20640139.552   -26957715.88249 -20951760.72348  20640139.749    20640147.378
 02  4  4  1  5 30.0000000  0 10G14G18G31G17G 9G15G 3G23G21G29
  22442845.685   -12890547.05549  -8921982.92246  22442845.752    22442857.025
  20938013.554   -21944894.41349 -17065456.70447  20938013.515    20938020.593
  24021720.367    -5121246.96849  -3664380.16245  24021720.170    24021734.244
  21116968.663   -20600156.98849 -15723743.90347  21116968.547    21116977.848
  23553758.886    -7309435.39749  -5661210.17145  23553759.062    23553772.399
  20542137.782   -25908164.34749 -19531573.87547  20542137.464    20542146.089
  21828474.959   -17487413.35449 -13604481.97147  21828475.031    21828484.965
  24674816.272    -3149690.59849  -2422880.98645  24674816.181    24674828.487
  21244841.845   -23777173.01849 -18163971.15147  21244841.732    21244850.644
  20644039.592   -26937220.76749 -20935790.47948  20644039.799    20644047.451
 02  4  4  1  6  0.0000000  0 10G14G18G31G17G 9G15G 3G23G21G29
  22424194.747   -12988557.51649  -8998354.49146  22424194.813    22424205.956
  20945613.282   -21904957.66949 -17034337.15647  20945613.254    20945620.311
  24006548.718    -5200974.00749  -3726504.92745  24006548.513    24006562.485
  21125582.797   -20554889.76649 -15688470.75147  21125582.654    21125591.941
  23544975.668    -7355591.55649  -5697175.79745  23544975.793    23544988.887
  20547680.759   -25879035.75349 -19508876.27147  20547680.437    20547689.062
  21824075.093   -17510534.90249 -13622498.72147  21824075.127    21824085.050
  24688978.842    -3075266.83949  -2364888.54345  24688978.705    24688991.307
  21241609.475   -23794158.89249 -18177206.84847  21241609.370    21241618.268
  20648040.265   -26916196.89649 -20919408.22048  20648040.469    20648048.127
 02  4  4  1  6 30.0000000  0 10G14G18G31G17G 9G15G 3G23G21G29
  22405598.776   -13086279.15549  -9074500.97546  22405598.787    22405609.904
  20953252.155   -21864815.02049 -17003057.15947  20953252.105    20953259.180
  23991449.368    -5280320.88049  -3788333.44645  23991449.146    23991463.110
  21134263.147   -20509274.18549 -15652926.16647  21134262.964    21134272.286
  23536272.950    -7401324.23749  -5732811.45545  23536273.088    23536286.088
  20553293.884   -25849538.42449 -19485891.33647  20553293.581    20553302.203
  21819781.670   -17533096.67949 -13640079.29147  21819781.759    21819791.681
  24703132.409    -3000889.18049  -2306932.08245  24703132.237    24703145.017
  21238412.428   -23810959.31149 -18190298.03747  21238412.323    21238421.216
  20652141.300   -26894645.48049 -20902614.88748  20652141.550    20652149.217
 02  4  4  1  7  0.0000000  0 10G14G18G31G17G 9G15G 3G23G21G29
  22387058.304   -13183709.15649  -9150420.23746  22387058.373    22387069.321
  20960930.039   -21824467.43249 -16971617.47347  20960929.990    20960937.071
  23976422.878    -5359284.57949  -3849863.40045  23976422.569    23976436.624
  21143009.814   -20463309.81249 -15617109.79647  21143009.689    21143019.065
  23527651.251    -7446630.59549  -5768114.92545  23527651.376    23527664.436
  20558977.442   -25819671.20449 -19462618.17747  20558977.146    20558985.752
  21815594.960   -17555097.71949 -13657222.91747  21815595.078    21815605.006
  24717277.368    -2926557.54949  -2249011.44245  24717277.035    24717290.090
  21235250.645   -23827574.12349 -18203244.59647  21235250.562    21235259.466
  20656342.613   -26872567.41849 -20885411.17848  20656342.851    20656350.516
 02  4  4  1  7 30.0000000  0 10G14G18G31G17G 9G15G 3G23G21G29
  22368573.766   -13280845.39549  -9226110.59546  22368573.809    22368584.710
  20968646.656   -21783916.16449 -16940019.07147  20968646.608    20968653.706
  23961469.732    -5437863.06849  -3911093.18945  23961469.460    23961483.490
  21151823.052   -20416996.36649 -15581021.41947  21151822.898    21151832.270
  23519111.138    -7491508.21849  -5803084.30845  23519111.259    23519124.230
  20564731.380   -25789434.06949 -19439056.77447  20564731.103    20564739.701
  21811515.088   -17576537.50849 -13673929.20547  21811515.162    21811525.131
  24731413.487    -2852272.58249  -2191127.11745  24731413.138    24731425.960
  21232123.993   -23844004.39649 -18216047.35847  21232123.887    21232132.823
  20660643.883   -26849964.02849 -20867798.12548  20660644.134    20660651.784
 02  4  4  1  8  0.0000000  0 10G14G18G31G17G 9G15G 3G23G21G29
  22350145.687   -13377685.13449  -9301569.90046  22350145.656    22350156.499
  20976401.857   -21743162.07049 -16908262.62447  20976401.819    20976408.941
  23946590.295    -5516053.82949  -3972020.84645  23946590.101    23946604.026
  21160702.769   -20370333.32249 -15544660.61747  21160702.630    21160711.973
  23510653.211    -7535953.92649  -5837717.15245  23510653.314    23510666.234
  20570555.839   -25758826.39249 -19415206.63847  20570555.571    20570564.145
  21807542.165   -17597415.16449 -13690197.47347  21807542.243    21807552.246
  24745540.610    -2778034.17249  -2133279.03645  24745540.108    24745552.935
  21229032.486   -23860250.15849 -18228706.34147  21229032.377    21229041.319
  20665044.953   -26826836.41149 -20849776.57948  20665045.157    20665052.794
 02  4  4  1  8 30.0000000  0 10G14G18G31G17G 9G15G 3G23G21G29
  22331774.405   -13474226.06849  -9376796.37446  22331774.345    22331785.112
  20984195.487   -21702206.36049 -16876349.07247  20984195.444    20984202.578
  23931785.251    -5593854.22849  -4032644.31945  23931785.030    23931798.877
  21169649.033   -20323320.43949 -15508027.22947  21169648.917    21169658.306
  23502277.898    -7579965.19349  -5872011.47145  23502278.002    23502290.978
  20576450.891   -25727847.74949 -19391067.43047  20576450.620    20576459.196
  21803676.325   -17617730.02349 -13706027.18847  21803676.429    21803686.427
  24759658.617    -2703842.65249  -2075467.60045  24759658.514    24759671.337
  21225975.969   -23876312.19149 -18241222.16847  21225975.863    21225984.757
  20669545.481   -26803185.90249 -20831347.58748  20669545.671    20669553.319
 02  4  4  1  9  0.0000000  0 10G14G18G31G17G 9G15G 3G23G21G29
  22313460.346   -13570465.96949  -9451788.27446  22313460.284    22313471.046
  20992027.221   -21661050.24449 -16844279.36047  20992027.172    20992034.329
  23917054.809    -5671262.25549  -4092962.05945  23917054.568    23917068.397
  21178661.907   -20275957.45449 -15471121.03347  21178661.758    21178671.242
  23493985.851    -7623539.71249  -5905965.42945  23493985.992    23493998.903
  20582416.551   -25696497.74949 -19366638.85147  20582416.270    20582424.904
  21799917.725   -17637481.45249 -13721417.86547  21799917.821    21799927.824
  24773768.174    -2629698.53949  -2017693.05245  24773767.887    24773780.731
  21222954.240   -23892191.37849 -18253595.51347  21222954.115    21222962.990
  20674145.262   -26779013.65749 -20812512.05048  20674145.487    20674153.133
 02  4  4  1  9 30.0000000  0 10G14G18G31G17G 9G15G 3G23G21G29
  22295203.921   -13666403.13649  -9526544.27746  22295203.872    22295214.689
  20999896.762   -21619695.52949 -16812054.89947  20999896.714    20999903.882
  23902399.496    -5748275.91849  -4152972.50945  23902399.213    23902412.912
  21187741.227   -20228244.81949 -15433942.37547  21187741.132    21187750.640
  23485777.290    -7666675.16049  -5939577.27545  23485777.465    23485790.334
  20588452.940   -25664776.28249 -19341920.80847  20588452.661    20588461.306
  21796266.248   -17656669.77549 -13736369.76347  21796266.349    21796276.403
  24787868.202    -2555602.53549  -1959956.03745  24787868.165    24787880.344
  21219967.071   -23907888.74649 -18265827.18147  21219966.963    21219975.828
  20678843.975   -26754321.69249 -20793271.53848  20678844.194    20678851.809
 02  4  4  1 10  0.0000000  0 10G14G18G31G17G 9G15G 3G23G21G29
  22277005.792   -13762033.90749  -9601061.52346  22277005.770    22277016.618
  21007804.162   -21578141.85549 -16779675.41047  21007804.120    21007811.288
  23887819.860    -5824891.83849  -4212673.03145  23887819.526    23887833.143
  21196887.487   -20180180.97049 -15396490.05847  21196887.410    21196896.835
  23477653.065    -7709368.02749  -5972844.24145  23477653.230    23477666.027
  20594560.278   -25632681.99149 -19316912.26547  20594560.013    20594568.640
  21792722.296   -17675293.27349 -13750881.53647  21792722.372    21792732.466
  24801959.261    -2481553.70349  -1902255.67445  24801959.111    24801971.507
  21217014.566   -23923404.01049 -18277916.95247  21217014.477    21217023.294
  20683641.597   -26729110.15149 -20773626.16548  20683641.823    20683649.382
 02  4  4  1 10 30.0000000  0 10G14G18G31G17G 9G15G 3G23G21G29
  22258866.180   -13857357.24849  -9675339.22946  22258866.178    22258876.995
  21015748.933   -21536391.71849 -16747142.82747  21015748.900    21015756.061
  23873316.099    -5901108.75649  -4272062.65045  23873315.838    23873329.320
  21206100.460   -20131766.90649 -15358764.84647  21206100.352    21206109.769
  23469613.191    -7751616.63149  -6005765.05245  23469613.435    23469626.195
  20600738.414   -25600215.53849 -19291613.72747  20600738.136    20600746.783
  21789285.651   -17693352.57549 -13764953.67947  21789285.761    21789295.845
  24816041.241    -2407553.38049  -1844593.19745  24816041.032    24816053.683
  21214096.488   -23938738.80249 -18289866.09747  21214096.367    21214105.132
  20688537.529   -26703381.53549 -20753577.87048  20688537.763    20688545.328
 02  4  4  1 11  0.0000000  0 10G14G18G31G17G 9G15G 3G23G21G29
  22240785.618   -13952370.06749  -9749374.97846  22240785.625    22240796.441
  21023731.040   -21494445.33249 -16714457.32347  21023731.014    21023738.152
  23858888.811    -5976923.38849  -4331138.79945  23858888.656    23858902.002
  21215380.248   -20083001.50649 -15320765.86047  21215380.128    21215389.523
  23461658.730    -7793417.80949  -6038337.22545  23461658.891    23461671.578
  20606987.648   -25567375.71349 -19266024.24947  20606987.350    20606996.021
  21785956.620   -17710846.64449 -13778585.38047  21785956.736    21785966.744
  24830113.997    -2333601.07449  -1786968.12045  24830113.860    24830126.421
  21211212.745   -23953892.84749 -18301674.39747  21211212.613    21211221.331
  20693531.789   -26677136.43949 -20733127.13047  20693532.016    20693539.566
 02  4  4  1 11 30.0000000  0 10G14G18G31G17G 9G15G 3G23G21G29
  22222764.453   -14047070.75449  -9823167.51146  22222764.491    22222775.224
  21031750.148   -21452304.64249 -16681620.41347  21031750.112    21031757.224
  23844538.446    -6052334.14249  -4389900.23145  23844538.230    23844551.579
  21224726.841   -20033885.22949 -15282493.47647  21224726.727    21224736.008
  23453789.640    -7834769.64449  -6070559.26045  23453789.790    23453802.227
  20613307.873   -25534162.71249 -19240143.98047  20613307.554    20613316.215
  21782735.205   -17727775.36349 -13791776.55047  21782735.306    21782745.254
  24844177.274    -2259697.84949  -1729381.29045  24844177.163    24844189.924
  21208363.097   -23968867.65649 -18313343.02947  21208362.986    21208371.679
  20698623.953   -26650376.82049 -20712275.46148  20698624.191    20698631.749
 02  4  4  1 12  0.0000000  0 10G14G18G31G17G 9G15G 3G23G21G29
  22204803.362   -14141456.35949  -9896714.52146  22204803.325    22204814.047
  21039806.138   -21409970.03149 -16648632.39447  21039806.085    21039813.194
  23830265.578    -6127338.12449  -4448344.70045  23830265.381    23830278.608
  21234140.316   -19984417.45949 -15243947.19447  21234140.140    21234149.493
  23446006.506    -7875669.19649  -6102428.88345  23446006.568    23446018.916
  20619699.200   -25500575.92049 -19213972.44847  20619698.909    20619707.551
  21779621.475   -17744138.13249 -13804526.71547  21779621.562    21779631.461
  24858231.142    -2185843.45949  -1671832.54245  24858230.954    24858243.932
  21205547.458   -23983663.65449 -18324872.32747  21205547.365    21205556.056
  20703813.840   -26623103.76749 -20691023.70648  20703814.068    20703821.629
 02  4  4  1 12 30.0000000  0 10G14G18G31G17G 9G15G 3G23G21G29
  22186902.489   -14235524.84349  -9970014.43246  22186902.498    22186913.086
  21047898.776   -21367442.71649 -16615494.22047  21047898.753    21047905.852
  23816070.375    -6201932.89749  -4506470.32045  23816070.338    23816083.501
  21243620.724   -19934597.98849 -15205126.85647  21243620.527    21243629.842
  23438309.959    -7916114.02449  -6133944.16345  23438310.106    23438322.161
  20626161.833   -25466614.62549 -19187509.10547  20626161.555    20626170.181
  21776615.535   -17759934.26349 -13816835.35347  21776615.633    21776625.528
  24872275.961    -2112038.17849  -1614322.00045  24872275.791    24872288.578
  21202765.759   -23998281.30349 -18336262.66147  21202765.671    21202774.349
  20709101.149   -26595318.57949 -20669372.89047  20709101.368    20709108.929
 02  4  4  1 13  0.0000000  0 10G14G18G31G17G 9G15G 3G23G21G29
  22169062.407   -14329274.26049 -10043065.71846  22169062.378    22169072.940
  21056027.871   -21324724.14149 -16582207.00847  21056027.825    21056034.933
  23801953.458    -6276116.76749  -4564275.74145  23801953.451    23801966.566
  21253167.993   -19884426.92149 -15166032.55647  21253167.828    21253177.076
  23430700.262    -7956102.03349  -6165103.46845  23430700.355    23430712.582
  20632695.688   -25432279.00749 -19160754.08047  20632695.402    20632704.002
  21773717.411   -17775163.70449 -13828702.41247  21773717.509    21773727.407
  24886311.518    -2038282.35549  -1556849.96745  24886311.374    24886324.119
  21200017.980   -24012720.89049 -18347514.24247  21200017.863    21200026.573
  20714485.603   -26567023.11149 -20647324.45147  20714485.820    20714493.377
 02  4  4  1 13 30.0000000  0 10G14G18G31G17G 9G15G 3G23G21G29
  22151283.545   -14422702.19449 -10115866.51446  22151283.486    22151293.948
  21064193.165   -21281815.40549 -16548771.62247  21064193.122    21064200.195
  23787915.269    -6349887.41049  -4621759.18745  23787915.249    23787928.293
  21262782.204   -19833904.20549 -15126664.24447  21262782.012    21262791.293
  23423177.995    -7995630.74149  -6195904.87145  23423178.072    23423190.501
  20639300.851   -25397568.71349 -19133707.10647  20639300.540    20639309.169
  21770927.163   -17789826.20849 -13840127.70647  21770927.271    21770937.147
  24900337.343    -1964576.23449  -1499416.75045  24900337.165    24900350.282
  21197303.888   -24026983.31449 -18358627.77647  21197303.772    21197312.485
  20719966.838   -26538218.64349 -20624879.38947  20719967.075    20719974.656
 02  4  4  1 14  0.0000000  0 10G14G18G31G17G 9G15G 3G23G21G29
  22133566.195   -14515806.25949 -10188414.93446  22133566.181    22133576.599
  21072394.432   -21238717.38849 -16515188.74847  21072394.405    21072401.474
  23773956.266    -6423242.03349  -4678918.45245  23773956.193    23773969.158
  21272463.353   -19783029.17349 -15087021.40547  21272463.210    21272472.569
  23415743.832    -8034697.23149  -6226346.09945  23415743.898    23415756.376
  20645977.442   -25362483.06849 -19106367.64647  20645977.127    20645985.758
  21768244.929   -17803921.09849 -13851110.71347  21768245.048    21768254.915
  24914353.640    -1890919.80849  -1442022.26345  24914353.432    24914366.666
  21194623.403   -24041068.99249 -18369603.58947  21194623.288    21194632.017
  20725544.747   -26508906.49849 -20602038.73648  20725544.984    20725552.580
 02  4  4  1 14 30.0000000  0 10G14G18G31G17G 9G15G 3G23G21G29
  22115910.974   -14608584.54449 -10260709.50246  22115910.964    22115921.304
  21080631.525   -21195431.23749 -16481459.26847  21080631.492    21080638.541
  23760076.764    -6496178.96749  -4735752.24345  23760076.621    23760089.525
  21282211.542   -19731801.99249 -15047104.15847  21282211.422    21282220.818
  23408398.084    -8073299.36249  -6256425.50245  23408398.203    23408410.690
  20652725.392   -25327022.24049 -19078735.83547  20652725.096    20652733.738
  21765670.814   -17817448.09349 -13861651.19147  21765670.940    21765680.725
  24928360.517    -1817313.50649  -1384666.74245  24928360.306    24928373.381
  21191976.398   -24054978.97249 -18380442.49547  21191976.300    21191985.011
  20731218.954   -26479088.51749 -20578803.92448  20731219.166    20731226.768
 02  4  4  1 15  0.0000000  0  9G14G18G31G17G 9G15G 3G21G29
  22098318.128   -14701034.95749 -10332748.58146  22098318.083    22098328.342
  21088904.122   -21151958.44649 -16447584.35647  21088904.076    21088911.131
  23746277.243    -6568695.88049  -4792258.75045  23746277.034    23746289.836
  21292026.819   -19680222.72749 -15006912.55347  21292026.697    21292036.121
  23401141.160    -8111434.90149  -6286141.30546  23401141.228    23401153.710
  20659544.843   -25291185.86749 -19050811.38847  20659544.515    20659553.193
  21763204.761   -17830407.26049 -13871749.20247  21763204.877    21763214.596
  21189362.639   -24068714.13849 -18391145.18147  21189362.530    21189371.243
  20736989.077   -26448766.13949 -20555176.07248  20736989.301    20736996.922
 02  4  4  1 15 30.0000000  0  9G14G18G31G17G 9G15G 3G21G29
  22080788.112   -14793155.13749 -10404530.34747  22080788.059    22080798.280
  21097212.067   -21108299.90049 -16413564.70547  21097212.034    21097219.098
  23732557.895    -6640790.37949  -4848436.10245  23732557.822    23732570.531
  21301909.021   -19628291.30649 -14966446.54347  21301908.915    21301918.325
  23393973.429    -8149101.38949  -6315491.63145  23393973.509    23393985.857
  20666435.745   -25254973.62749 -19022594.06547  20666435.484    20666444.153
  21760846.821   -17842798.18549 -13881404.43347  21760846.899    21760856.672
  21186782.109   -24082274.79349 -18401711.88547  21186781.996    21186790.702
  20742854.860   -26417941.01149 -20531156.47248  20742855.080    20742862.739
 02  4  4  1 16  0.0000000  0  9G14G18G31G17G 9G15G 3G21G29
  22063321.609   -14884941.74449 -10476052.18147  22063321.521    22063331.646
  21105555.312   -21064455.73449 -16379400.41547  21105555.278    21105562.377
  23718919.621    -6712459.38049  -4904281.89245  23718919.494    23718932.181
  21311858.547   -19576006.50449 -14925705.17147  21311858.427    21311867.808
  23386895.358    -8186295.85349  -6344474.12745  23386895.361    23386907.694
  20673398.509   -25218384.21649 -18994082.84047  20673398.214    20673406.894
  21758597.186   -17854619.88449 -13890616.10747  21758597.257    21758607.054
  21184234.822   -24095660.79049 -18412142.49147  21184234.690    21184243.382
  20748816.230   -26386613.67849 -20506745.54148  20748816.453    20748824.098
 02  4  4  1 16 30.0000000  0  9G14G18G31G17G 9G15G 3G21G29
  22045918.789   -14976393.66049 -10547313.22347  22045918.689    22045928.754
  21113933.556   -21020427.73049 -16345092.87147  21113933.528    21113940.647
  23705362.628    -6783701.46149  -4959795.02445  23705362.320    23705375.067
  21321875.130   -19523369.00849 -14884688.96147  21321875.023    21321884.421
  23379907.203    -8223016.49449  -6373087.40145  23379907.208    23379919.676
  20680432.914   -25181418.10649 -18965278.08947  20680432.624    20680441.308
  21756455.781   -17865872.97549 -13899384.71247  21756455.869    21756465.654
  21181720.613   -24108872.97549 -18422437.65847  21181720.480    21181729.158
  20754872.809   -26354786.35249 -20481945.00448  20754873.030    20754880.631
 02  4  4  1 17  0.0000000  0  9G14G18G31G17G 9G15G 3G21G29
  22028580.257   -15067507.87949 -10618311.13047  22028580.142    22028590.127
  21122346.679   -20976216.32449 -16310642.41647  21122346.654    21122353.790
  23691887.282    -6854513.68049  -5014973.18545  23691887.018    23691899.714
  21331958.905   -19470378.09449 -14843397.36547  21331958.792    21331968.256
  23373009.861    -8259260.34249  -6401329.16845  23373009.923    23373022.347
  20687539.198   -25144074.20549 -18936178.95047  20687538.925    20687547.609
  21754422.748   -17876556.45149 -13907709.46047  21754422.857    21754432.602
  21179239.403   -24121911.50849 -18432597.51247  21179239.298    21179247.961
  20761024.313   -26322460.06249 -20456755.66148  20761024.522    20761032.106
 02  4  4  1 17 30.0000000  0  9G14G18G31G17G 9G15G 3G21G29
  22011306.221   -15158282.76349 -10689044.61947  22011306.121    22011316.057
  21130794.471   -20931822.97749 -16276050.19847  21130794.455    21130801.577
  23678494.164    -6924894.34049  -5069815.07545  23678493.910    23678506.544
  21342109.931   -19417034.13949 -14801830.69047  21342109.835    21342119.237
  23366203.789    -8295025.46449  -6429197.89945  23366203.904    23366215.973
  20694717.370   -25106352.74649 -18906785.61847  20694717.125    20694725.781
  21752498.131   -17886670.56749 -13915590.55747  21752498.199    21752507.933
  21176791.122   -24134777.17649 -18442622.67347  21176791.013    21176799.667
  20767270.327   -26289636.81949 -20431179.09047  20767270.548    20767278.129
 02  4  4  1 18  0.0000000  0  9G14G18G31G17G 9G15G 3G21G29
  21994097.122   -15248716.47149 -10759512.25347  21994097.024    21994106.906
  21139276.637   -20887249.00749 -16241317.23147  21139276.613    21139283.703
  23665183.506    -6994841.55849  -5124319.21645  23665183.285    23665195.869
  21352328.145   -19363337.34749 -14759989.06747  21352328.061    21352337.487
  23359489.315    -8330309.93449  -6456692.10345  23359489.482    23359501.147
  20701967.363   -25068253.98749 -18877098.27847  20701967.067    20701975.701
  21750681.704   -17896215.67249 -13923028.26547  21750681.786    21750691.525
  21174375.432   -24147471.41249 -18452514.24747  21174375.335    21174384.003
  20773610.516   -26256318.76249 -20405216.94547  20773610.749    20773618.327
 02  4  4  1 18 30.0000000  0  9G14G18G31G17G 9G15G 3G21G29
  21976953.343   -15338806.82649 -10829712.34947  21976953.273    21976963.129
  21147792.887   -20842495.88549 -16206444.67247  21147792.858    21147799.937
  23651955.592    -7064353.50949  -5178484.19445  23651955.493    23651968.058
  21362613.439   -19309287.86249 -14717872.62347  21362613.391    21362622.734
  23352866.614    -8365111.67049  -6483810.15345  23352866.837    23352878.378
  20709289.181   -25029777.80649 -18847116.85047  20709288.868    20709297.478
  21748973.589   -17905191.91549 -13930022.69747  21748973.629    21748983.380
  21171992.312   -24159994.66349 -18462272.58247  21171992.195    21172000.883
  20780044.563   -26222507.48949 -20378870.47747  20780044.784    20780052.384
 02  4  4  1 19  0.0000000  0  9G14G18G31G17G 9G15G 3G21G29
  21959875.522   -15428550.61349 -10899642.39547  21959875.445    21959885.215
  21156343.292   -20797563.28249 -16171432.25647  21156343.238    21156350.287
  23638811.258    -7133426.63549  -5232307.22245  23638811.132    23638823.783
  21372966.110   -19254884.35449 -14675480.32147  21372966.083    21372975.492
  23346336.508    -8399427.25449  -6510549.36845  23346336.707    23346348.301
  20716683.130   -24990922.53949 -18816840.02847  20716682.819    20716691.376
  21747373.938   -17913597.73949 -13936572.65247  21747374.016    21747383.782
  21169641.826   -24172346.40849 -18471897.27847  21169641.692    21169650.372
  20786572.378   -26188203.32249 -20352139.94147  20786572.605    20786580.237
 02  4  4  1 19 30.0000000  0  9G14G18G31G17G 9G15G 3G21G29
  21942863.607   -15517948.08449 -10969302.59347  21942863.532    21942873.225
  21164927.185   -20752454.59849 -16136282.63347  21164927.136    21164934.160
  23625750.389    -7202061.35949  -5285788.63645  23625750.274    23625762.886
  21383385.830   -19200129.19349 -14632813.98947  21383385.670    21383395.077
  23339898.919    -8433256.79349  -6536909.89146  23339899.144    23339910.750
  20724148.800   -24951690.53949 -18786269.64547  20724148.441    20724156.954
  21745882.429   -17921435.43149 -13942679.91447  21745882.519    21745892.277
  21167323.382   -24184529.77149 -18481390.76947  21167323.267    21167331.934
  20793193.213   -26153410.42449 -20325028.57347  20793193.432    20793201.105
 02  4  4  1 20  0.0000000  0  9G14G18G31G17G 9G15G 3G21G29
  21925918.351   -15606995.31449 -11038689.87347  21925918.253    21925927.890
  21173544.701   -20707169.05849 -16100995.19947  21173544.660    21173551.661
  23612773.760    -7270253.57649  -5338925.26245  23612773.628    23612786.237
  21393872.592   -19145020.59549 -14589872.26647  21393872.480    21393881.903
  23333554.642    -8466596.21749  -6562888.48146  23333554.866    23333566.491
  20731686.498   -24912079.72949 -18755404.08647  20731686.132    20731694.650
  21744499.422   -17928703.10949 -13948343.00347  21744499.516    21744509.236
  21165037.291   -24196542.98249 -18490751.67447  21165037.200    21165045.859
  20799907.085   -26118128.64849 -20297536.26347  20799907.314    20799914.965
 02  4  4  1 20 30.0000000  0  9G14G18G31G17G 9G15G 3G21G29
  21909040.134   -15695690.30249 -11107802.67647  21909040.038    21909049.571
  21182195.629   -20661707.99149 -16065570.99547  21182195.591    21182202.596
  23599881.678    -7338001.35249  -5391715.55245  23599881.522    23599894.112
  21404426.668   -19089558.60749 -14546655.15847  21404426.564    21404436.018
  23327304.026    -8499443.48949  -6588483.60346  23327304.223    23327315.697
  20739296.211   -24872090.02549 -18724243.28747  20739295.894    20739304.466
  21743224.813   -17935401.25849 -13953562.30747  21743224.908    21743234.549
  21162783.369   -24208387.35249 -18499981.01547  21162783.260    21162791.912
  20806713.636   -26082359.88549 -20269664.48547  20806713.862    20806721.520
 02  4  4  1 21  0.0000000  0  9G14G18G31G17G 9G15G 3G21G29
  21892229.259   -15784030.95849 -11176639.37647  21892229.196    21892238.708
  21190879.825   -20616072.14449 -16030010.59847  21190879.789    21190886.800
  23587074.523    -7405302.61149  -5444157.91745  23587074.408    23587086.995
  21415047.967   -19033743.35349 -14503162.78247  21415047.861    21415057.340
  23321147.450    -8531796.27849  -6613693.39246  23321147.635    23321159.073
  20746978.066   -24831721.42149 -18692787.23547  20746977.746    20746986.387
  21742058.619   -17941529.64649 -13958337.63847  21742058.716    21742068.313
  21160561.403   -24220063.75849 -18509079.47347  21160561.288    21160569.923
  20813612.533   -26046105.83549 -20241414.55947  20813612.756    20813620.400
 02  4  4  1 21 30.0000000  0  9G14G18G31G17G 9G15G 3G21G29
  21875486.268   -15872015.26849 -11245198.40647  21875486.196    21875495.736
  21199597.098   -20570262.46049 -15994314.74047  21199597.074    21199604.091
  23574352.765    -7472155.22249  -5496250.69445  23574352.626    23574365.197
  21425736.467   -18977574.81249 -14459395.12947  21425736.351    21425745.864
  23315085.151    -8563652.80749  -6638516.48346  23315085.363    23315096.857
  20754732.143   -24790973.72049 -18661035.78147  20754731.798    20754740.463
  21741000.806   -17947088.36249 -13962669.07347  21741000.898    21741010.515
  21158371.306   -24231572.72349 -18518047.45847  21158371.194    21158379.784
  20820603.478   -26009368.21849 -20212787.82547  20820603.706    20820611.327
 02  4  4  1 22  0.0000000  0  9G14G18G31G17G 9G15G 3G21G29
  21858811.490   -15959641.07349 -11313478.08947  21858811.420    21858820.915
  21208347.256   -20524280.08949 -15958484.32147  21208347.217    21208354.275
  23561716.732    -7538557.06849  -5547992.22345  23561716.673    23561729.152
  21436492.357   -18921052.88049 -14415352.10747  21436492.145    21436501.737
  23309117.606    -8595010.77849  -6662951.10446  23309117.864    23309129.501
  20762558.326   -24749846.53549 -18628988.63047  20762558.010    20762566.720
  21740051.358   -17952077.45049 -13966556.63947  21740051.456    21740061.098
  21156213.107   -24242914.09249 -18526884.84847  21156212.989    21156221.522
  20827686.135   -25972148.62249 -20183785.52247  20827686.353    20827693.920
 02  4  4  1 22 30.0000000  0  9G14G18G31G17G 9G15G 3G21G29
  21842205.611   -16046905.20849 -11381475.96647  21842205.536    21842214.929
  21217130.221   -20478125.17449 -15922519.45547  21217130.187    21217137.273
  23549167.048    -7604505.34549  -5599380.32845  23549166.991    23549179.389
  21447315.446   -18864176.78749 -14371033.11947  21447315.312    21447324.892
  23303245.548    -8625867.17549  -6686994.89846  23303245.839    23303257.505
  20770457.040   -24708338.80349 -18596644.94047  20770456.662    20770465.417
  21739210.445   -17956496.11949 -13969999.73647  21739210.568    21739220.254
  21154086.887   -24254087.45149 -18535591.32547  21154086.751    21154095.272
  20834860.343   -25934448.04249 -20154408.43347  20834860.516    20834868.092
 02  4  4  1 23  0.0000000  0  9G14G18G31G17G 9G15G 3G21G29
  21825668.546   -16133807.30549 -11449191.71647  21825668.455    21825677.819
  21225945.587   -20431800.11049 -15886422.00147  21225945.554    21225952.653
  23536703.899    -7669999.26849  -5650414.37845  23536703.789    23536716.051
  21458205.880   -18806947.72949 -14326439.08147  21458205.673    21458215.240
  23297469.240    -8656221.17349  -6710647.20046  23297469.488    23297481.135
  20778427.842   -24666451.87649 -18564005.77747  20778427.504    20778436.241
  21738477.857   -17960345.79449 -13972999.45547  21738477.975    21738487.652
  21151992.222   -24265094.96749 -18544168.56947  21151992.081    21152000.572
  20842125.441   -25896269.62049 -20124658.99447  20842125.627    20842133.187
 02  4  4  1 23 30.0000000  0  9G14G18G31G17G 9G15G 3G21G29
  21809200.843   -16220344.92649 -11516623.46447  21809200.745    21809210.144
  21234793.231   -20385305.40949 -15850192.36747  21234793.199    21234800.305
  23524327.594    -7735036.34849  -5701092.47945  23524327.487    23524339.671
  21469163.283   -18749365.80449 -14281570.09047  21469163.167    21469172.735
  23291788.954    -8686070.50949  -6733906.28946  23291789.180    23291800.734
  20786470.883   -24624185.31649 -18531070.80747  20786470.546    20786479.284
  21737853.620   -17963626.19849 -13975555.58747  21737853.707    21737863.353
  21149928.958   -24275937.09649 -18552616.94347  21149928.839    21149937.373
  20849481.215   -25857614.70449 -20094538.26547  20849481.384    20849488.929
 02  4  4  1 24  0.0000000  0  9G14G18G31G17G 9G15G 3G21G29
  21792803.009   -16306515.45849 -11583769.17747  21792802.926    21792812.313
  21243673.000   -20338641.93349 -15813831.21547  21243672.971    21243680.072
  23512038.692    -7799614.23849  -5751412.76245  23512038.545    23512050.681
  21480187.963   -18691430.41349 -14236425.67847  21480187.865    21480197.674
  23286205.296    -8715412.60549  -6756770.11746  23286205.545    23286216.925
  20794586.324   -24581538.37949 -18497839.43147  20794586.008    20794594.734
  21737337.671   -17966337.26849 -13977668.08847  21737337.774    21737347.422
  21147897.244   -24286613.82149 -18560936.43847  21147897.125    21147905.648
  20856927.369   -25818484.74049 -20064047.36647  20856927.580    20856935.097
 02  4  4  1 24 30.0000000  0  9G14G18G31G17G 9G15G 3G21G29
  21776475.226   -16392317.89649 -11650628.06847  21776475.150    21776484.472
  21252584.585   -20291811.12449 -15777339.67047  21252584.552    21252591.675
  23499837.314    -7863731.85949  -5801374.39445  23499837.122    23499849.350
  21491279.875   -18633142.55749 -14191006.61747  21491279.747    21491289.451
  23280718.280    -8744246.36449  -6779237.86146  23280718.524    23280729.821
  20802774.036   -24538511.89549 -18464312.30147  20802773.699    20802782.376
  21736929.869   -17968480.14349 -13979337.83147  21736929.957    21736939.621
  21145896.672   -24297126.51949 -18569128.11147  21145896.570    21145905.079
  20864463.463   -25778882.32449 -20033188.31847  20864463.662    20864471.176
 02  4  4  1 25  0.0000000  0  9G14G18G31G17G 9G15G 3G21G29
  21760218.083   -16477748.92749 -11717197.54347  21760218.025    21760227.320
  21261528.041   -20244812.95149 -15740717.72247  21261528.010    21261535.152
  23487724.142    -7927385.91149  -5850974.82345  23487723.977    23487736.221
  21502439.148   -18574501.01449 -14145311.95847  21502438.922    21502448.569
  23275328.833    -8772568.68049  -6801307.04846  23275329.035    23275339.983
  20811034.126   -24495104.63649 -18430488.47147  20811033.811    20811042.501
  21736630.353   -17970053.76349 -13980564.01447  21736630.454    21736640.177
  21143927.503   -24307474.64149 -18577191.55447  21143927.384    21143935.862
  20872089.287   -25738808.11949 -20001961.65547  20872089.493    20872097.018
 02  4  4  1 25 30.0000000  0  9G14G18G31G17G 9G15G 3G21G29
  21744031.747   -16562808.03749 -11783477.21347  21744031.680    21744040.974
  21270502.902   -20197649.72049 -15703967.15147  21270502.867    21270510.007
  23475699.447    -7990575.95449  -5900213.66145  23475699.262    23475711.412
  21513665.250   -18515507.38249 -14099342.92647  21513665.090    21513674.764
  23270036.770    -8800378.83749  -6822977.16546  23270036.949    23270047.584
  20819366.426   -24451318.01549 -18396369.02247  20819366.113    20819374.839
  21736438.886   -17971059.88149 -13981347.98447  21736438.986    21736448.724
  21141989.304   -24317659.90049 -18585128.08047  21141989.146    21141997.613
  20879804.282   -25698265.47849 -19970369.96947  20879804.492    20879812.033
 02  4  4  1 26  0.0000000  0  9G14G18G31G17G 9G15G 3G21G29
  21727916.761   -16647492.14949 -11849464.68847  21727916.736    21727925.994
  21279509.163   -20150321.43149 -15667087.96647  21279509.132    21279516.263
  23463763.624    -8053298.93049  -5949088.56845  23463763.385    23463775.534
  21524958.586   -18456160.76549 -14053098.85147  21524958.471    21524968.063
  23264842.658    -8827673.93149  -6844245.94446  23264842.815    23264853.306
  20827771.123   -24407150.73749 -18361952.95647  20827770.834    20827779.588
  21736355.572   -17971497.62149 -13981689.06447  21736355.664    21736365.384
  21140082.042   -24327682.54449 -18592937.89347  21140081.886    21140090.351
  20887608.291   -25657255.02449 -19938413.75647  20887608.490    20887616.037
 02  4  4  1 26 30.0000000  0  9G14G18G31G17G 9G15G 3G21G29
  21711873.519   -16731799.63249 -11915158.68547  21711873.433    21711882.613
  21288546.603   -20102829.41049 -15630081.19647  21288546.566    21288553.704
  23451916.943    -8115553.25749  -5997598.29345  23451916.696    23451928.840
  21536318.971   -18396461.68249 -14006580.13747  21536318.827    21536328.438
  23259746.952    -8854452.11949  -6865111.94946  23259747.102    23259757.447
  20836248.289   -24362603.06949 -18327240.48847  20836247.966    20836256.727
  21736380.287   -17971367.49849 -13981587.65447  21736380.407    21736390.159
  21138205.620   -24337543.08849 -18600621.40047  21138205.475    21138213.931
  20895500.859   -25615779.19249 -19906094.90847  20895501.086    20895508.626
 02  4  4  1 27  0.0000000  0  9G14G18G31G17G 9G15G 3G21G29
  21695902.245   -16815728.56249 -11980557.69647  21695902.160    21695911.301
  21297615.053   -20055174.42649 -15592947.43647  21297615.018    21297622.138
  23440159.805    -8177336.82149  -6045741.19445  23440159.556    23440171.742
  21547746.393   -18336410.00949 -13959786.66947  21547746.276    21547755.944
  23254749.769    -8880711.58949  -6885573.74046  23254749.932    23254760.329
  20844797.835   -24317674.92349 -18292231.54247  20844797.527    20844806.283
  21736513.035   -17970669.93349 -13981044.07747  21736513.145    21736522.889
  21136360.001   -24347241.81849 -18608178.82247  21136359.843    21136368.297
  20903481.697   -25573839.60549 -19873414.69447  20903481.931    20903489.454
 02  4  4  1 27 30.0000000  0  9G14G18G31G17G 9G15G 3G21G29
  21680003.471   -16899276.43949 -12045659.78647  21680003.406    21680012.504
  21306714.447   -20007357.05449 -15555687.14247  21306714.389    21306721.498
  23428492.685    -8238647.33449  -6093515.47545  23428492.472    23428504.568
  21559240.968   -18276005.46749 -13912718.25047  21559240.878    21559250.599
  23249851.616    -8906450.30249  -6905629.74545  23249851.763    23249862.238
  20853419.896   -24272365.63549 -18256925.60847  20853419.578    20853428.330
  21736753.836   -17969404.57149 -13980058.06747  21736753.918    21736763.630
  21134545.142   -24356778.80549 -18615610.20747  21134544.979    21134553.426
  20911550.510   -25531437.59349 -19840374.15447  20911550.745    20911558.241
 02  4  4  1 28  0.0000000  0  9G14G18G31G17G 9G15G 3G21G29
  21664177.593   -16982441.49049 -12110463.56847  21664177.502    21664186.591
  21315844.532   -19959378.19949 -15518301.01147  21315844.458    21315851.551
  23416915.978    -8299483.03449  -6140919.77846  23416915.776    23416927.763
  21570802.758   -18215248.50049 -13865375.20547  21570802.664    21570812.327
  23245053.041    -8931666.27949  -6925278.43646  23245053.145    23245063.855
  20862114.511   -24226675.33749 -18221322.78547  20862114.189    20862122.896
  21737102.515   -17967572.23449 -13978630.25047  21737102.627    21737112.276
  21132760.904   -24366154.84049 -18622916.17247  21132760.744    21132769.153
  20919706.905   -25488575.48649 -19806975.09047  20919707.118    20919714.605
 02  4  4  1 28 30.0000000  0  9G14G18G31G17G 9G15G 3G21G29
  21648424.834   -17065221.73449 -12174967.51047  21648424.778    21648433.866
  21325005.130   -19911239.05049 -15480789.98247  21325005.066    21325012.116
  23405429.969    -8359842.01949  -6187952.60646  23405429.788    23405441.637
  21582431.425   -18154139.36649 -13817757.74347  21582431.343    21582441.047
  23240354.365    -8956357.57449  -6944518.26746  23240354.448    23240365.208
  20870881.636   -24180604.02449 -18185423.07047  20870881.290    20870889.984
  21737558.994   -17965173.35549 -13976760.98047  21737559.101    21737568.724
  21131007.241   -24375370.21849 -18630096.95247  21131007.088    21131015.493
  20927950.499   -25445255.09549 -19773218.93347  20927950.721    20927958.197
 02  4  4  1 29  0.0000000  0  9G14G18G31G17G 9G15G 3G21G29
  21632745.735   -17147615.55449 -12239170.33947  21632745.642    21632754.702
  21334196.093   -19862940.57049 -15443154.79947  21334196.003    21334203.038
  23394034.898    -8419722.63749  -6234612.69646  23394034.737    23394046.615
  21594127.114   -18092678.34849 -13769866.08546  21594126.997    21594136.759
  23235755.762    -8980522.73349  -6963348.11546  23235755.841    23235766.708
  20879721.235   -24134151.90949 -18149226.63547  20879720.850    20879729.512
  21738123.224   -17962208.18849 -13974450.44347  21738123.350    21738132.930
  21129283.921   -24384426.17749 -18637153.50847  21129283.761    21129292.167
  20936280.949   -25401478.43349 -19739107.23747  20936281.154    20936288.616
 02  4  4  1 29 30.0000000  0  9G14G18G31G17G 9G15G 3G21G29
  21617140.450   -17229620.65749 -12303070.25747  21617140.426    21617149.482
  21343417.157   -19814483.47149 -15405396.01547  21343417.090    21343424.122
  23382731.301    -8479122.80449  -6280898.40545  23382731.102    23382742.955
  21605889.747   -18030865.27749 -13721700.08946  21605889.644    21605899.504
  23231257.712    -9004159.53049  -6981766.26946  23231257.805    23231268.743
  20888633.336   -24087318.86749 -18112733.37047  20888632.930    20888641.568
  21738795.152   -17958677.10549 -13971698.93347  21738795.315    21738804.863
  21127590.964   -24393322.60049 -18644085.74947  21127590.813    21127599.212
  20944697.819   -25357247.26049 -19704641.37047  20944698.037    20944705.509
 02  4  4  1 30  0.0000000  0  9G14G18G31G17G 9G15G 3G21G29
  21601609.599   -17311235.54849 -12366666.14247  21601609.537    21601618.551
  21352668.178   -19765869.01049 -15367514.61447  21352668.135    21352675.145
  23371519.458    -8538040.82849  -6326808.43545  23371519.184    23371531.084
  21617719.386   -17968700.65449 -13673260.15446  21617719.214    21617729.068
  23226860.438    -9027266.49849  -6999771.56146  23226860.579    23226871.583
  20897617.749   -24040105.03349 -18075943.38647  20897617.381    20897626.062
  21739574.657   -17954580.99249 -13968507.13847  21739574.756    21739584.311
  21125928.194   -24402060.35049 -18650894.34847  21125928.044    21125936.419
  20953200.799   -25312563.72949 -19669823.02747  20953201.021    20953208.485
 02  4  4  1 30 30.0000000  0  9G14G18G31G17G 9G15G 3G21G29
  21586153.374   -17392458.08149 -12429956.28147  21586153.317    21586162.285
  21361949.051   -19717097.86449 -15329511.12447  21361948.971    21361955.978
  23360399.713    -8596474.80549  -6372341.28845  23360399.442    23360411.352
  21629615.843   -17906184.47049 -13624546.28646  21629615.679    21629625.549
  23222564.355    -9049841.75049  -7017362.55246  23222564.503    23222575.537
  20906674.742   -23992510.26449 -18038856.56547  20906674.370    20906683.067
  21740461.608   -17949919.94149 -13964875.13747  21740461.712    21740471.288
  21124295.604   -24410639.66949 -18657579.50047  21124295.455    21124303.811
  20961789.538   -25267429.52649 -19634653.51547  20961789.765    20961797.225
 02  4  4  1 31  0.0000000  0  9G14G18G31G17G 9G15G 3G21G29
  21570772.118   -17473286.49149 -12492939.30247  21570772.046    21570780.983
  21371259.540   -19668170.80949 -15291386.14147  21371259.485    21371266.473
  23349372.385    -8654423.01049  -6417495.61245  23349372.166    23349384.008
  21641579.025   -17843317.24749 -13575558.89446  21641578.917    21641588.773
  23218369.850    -9071883.48749  -7034537.80346  23218369.977    23218380.956
  20915804.157   -23944534.71149 -18001473.01647  20915803.810    20915812.509
  21741456.058   -17944694.49349 -13960803.33747  21741456.133    21741465.659
  21122693.067   -24419060.79049 -18664141.36547  21122692.944    21122701.290
  20970463.614   -25221846.99749 -19599134.64947  20970463.810    20970471.291
 02  4  4  1 31 30.0000000  0  9G14G18G31G17G 9G15G 3G21G29
  21555466.121   -17553719.28549 -12555614.06547  21555466.072    21555474.958
  21380599.469   -19619089.14549 -15253140.68247  21380599.429    21380606.387
  23338437.794    -8711883.99649  -6462270.29445  23338437.606    23338449.425
  21653609.140   -17780099.18749 -13526298.10346  21653609.008    21653618.800
  23214277.196    -9093390.38549  -7051296.29446  23214277.271    23214288.199
  20925005.994   -23896178.65949 -17963792.98647  20925005.680    20925014.347
  21742557.660   -17938905.44549 -13956292.37247  21742557.711    21742567.218
  21121120.443   -24427324.99549 -18670580.96747  21121120.303    21121128.651
  20979222.574   -25175818.17049 -19563268.02147  20979222.796    20979230.253
 02  4  4  1 32  0.0000000  0  9G14G18G31G17G 9G15G 3G21G29
  21540235.901   -17633754.04449 -12617978.67147  21540235.855    21540244.716
  21389968.805   -19569853.15749 -15214774.97847  21389968.743    21389975.671
  23327596.427    -8768855.22749  -6506663.35646  23327596.282    23327608.005
  21665705.850   -17716530.20049 -13476763.88046  21665705.804    21665715.661
  23210286.612    -9114360.21649  -7067636.28946  23210286.713    23210297.674
  20934280.406   -23847441.54249 -17925816.03247  20934280.089    20934288.737
  21743766.447   -17932552.69049 -13951342.15747  21743766.554    21743776.079
  21119577.684   -24435432.12249 -18676898.17047  21119577.541    21119585.892
  20988066.267   -25129344.35049 -19527054.64747  20988066.474    20988073.938
 02  4  4  1 32 30.0000000  0  9G14G18G31G17G 9G15G 3G21G29
  21525081.716   -17713389.44549 -12680032.07147  21525081.616    21525090.487
  21399367.162   -19520464.32749 -15176290.17447  21399367.116    21399374.023
  23316848.447    -8825335.52649  -6550673.86746  23316848.342    23316860.035
  21677869.383   -17652611.06349 -13426956.79846  21677869.224    21677879.224
  23206398.663    -9134791.71549  -7083556.81246  23206398.744    23206409.535
  20943627.179   -23798324.06049 -17887542.68747  20943626.819    20943635.479
  21745082.265   -17925637.74649 -13945953.87347  21745082.373    21745091.924
  21118064.689   -24443382.80249 -18683093.46248  21118064.528    21118072.886
  20996993.996   -25082428.57149 -19490496.88447  20996994.213    20997001.684
 02  4  4  1 33  0.0000000  0  9G14G18G31G17G 9G15G 3G21G29
  21510003.943   -17792622.85349 -12741772.25547  21510003.884    21510012.730
  21408794.611   -19470922.65349 -15137686.27047  21408794.580    21408801.460
  23306194.316    -8881322.53249  -6594299.98546  23306194.288    23306205.895
  21690099.525   -17588341.23049 -13376876.43446  21690099.437    21690109.302
  23202613.601    -9154682.50449  -7099056.00846  23202613.625    23202624.201
  20953046.428   -23748825.51549 -17848972.39647  20953046.078    20953054.762
  21746505.187   -17918160.23549 -13940127.22747  21746505.298    21746514.826
  21116581.429   -24451177.20549 -18689166.98648  21116581.285    21116589.643
  21006005.672   -25035071.76449 -19453595.46947  21006005.875    21006013.392
 02  4  4  1 33 30.0000000  0  9G14G18G31G17G 9G15G 3G21G29
  21495002.835   -17871453.70549 -12803198.74647  21495002.780    21495011.564
  21418250.725   -19421230.42749 -15098965.05447  21418250.684    21418257.562
  23295634.297    -8936815.66349  -6637541.27646  23295634.218    23295645.724
  21702396.182   -17523722.12149 -13326523.91446  21702396.064    21702406.020
  23198931.424    -9174032.18549  -7114133.57646  23198931.464    23198941.928
  20962537.961   -23698947.14449 -17810106.13947  20962537.597    20962546.310
  21748034.822   -17910122.08149 -13933863.71547  21748034.919    21748044.393
  21115127.566   -24458817.11849 -18695120.12847  21115127.432    21115135.786
  21015100.730   -24987276.99649 -19416352.78747  21015100.928    21015108.441
 02  4  4  1 34  0.0000000  0  9G14G18G31G17G 9G15G 3G21G29
  21480078.893   -17949879.21049 -12864309.39447  21480078.821    21480087.578
  21427735.555   -19371387.29149 -15060126.24847  21427735.507    21427742.400
  23285168.842    -8991812.08449  -6680395.51046  23285168.703    23285180.101
  21714759.442   -17458753.16249 -13275898.80646  21714759.295    21714769.203
  23195352.543    -9192838.00549  -7128787.34545  23195352.592    23195362.899
  20972101.974   -23648687.85749 -17770943.07847  20972101.636    20972110.381
  21749671.262   -17901522.76549 -13927162.93947  21749671.296    21749680.785
  21113703.273   -24466301.54549 -18700952.12147  21113703.128    21113711.491
  21024278.870   -24939045.40849 -19378769.72247  21024279.075    21024286.558
 02  4  4  1 34 30.0000000  0  9G14G18G31G17G 9G15G 3G21G29
  21465232.313   -18027897.94949 -12925103.07247  21465232.239    21465240.941
  21437248.849   -19321394.54649 -15021170.85847  21437248.812    21437255.711
  23274798.008    -9046310.68949  -6722861.83946  23274797.833    23274809.262
  21727189.092   -17393435.00849 -13225001.60546  21727188.941    21727198.821
  23191877.322    -9211098.94149  -7143016.54945  23191877.338    23191887.767
  20981738.410   -23598048.28849 -17731483.68647  20981738.065    20981746.798
  21751414.187   -17892363.39449 -13920025.75547  21751414.239    21751423.707
  21112308.413   -24473631.38549 -18706663.65247  21112308.263    21112316.612
  21033539.728   -24890379.46149 -19340848.19847  21033539.923    21033547.366
 02  4  4  1 35  0.0000000  0  9G14G18G31G17G 9G15G 3G21G29
  21450463.750   -18105507.14049 -12985577.62847  21450463.663    21450472.275
  21446790.619   -19271251.86849 -14982098.64147  21446790.606    21446797.541
  23264522.396    -9100308.57849  -6764937.99746  23264522.327    23264533.703
  21739685.358   -17327766.85349 -13173831.67946  21739685.239    21739695.147
  23188506.372    -9228812.12449  -7156818.91645  23188506.432    23188516.910
  20991447.432   -23547027.25849 -17691727.03647  20991447.074    20991455.829
  21753263.731   -17882643.76949 -13912452.01047  21753263.809    21753273.345
  21110943.123   -24480805.90349 -18712254.15447  21110942.978    21110951.310
  21042883.043   -24841280.11649 -19302588.96147  21042883.215    21042890.654
 02  4  4  1 35 30.0000000  0  9G14G18G31G17G 9G15G 3G21G29
  21435773.239   -18182705.91749 -13045732.38547  21435773.133    21435781.635
  21456360.691   -19220960.96849 -14942910.92947  21456360.641    21456367.585
  23254342.327    -9153805.22249  -6806623.56946  23254342.194    23254353.597
  21752247.926   -17261749.88849 -13122389.95946  21752247.842    21752257.881
  23185239.806    -9245977.20949  -7170194.20945  23185239.912    23185250.452
  21001228.743   -23495626.02749 -17651674.13747  21001228.422    21001237.151
  21755219.619   -17872365.31449 -13904442.82047  21755219.735    21755229.264
  21109607.011   -24487826.92149 -18717725.04247  21109606.883    21109615.233
  21052308.136   -24791750.41349 -19263994.38047  21052308.330    21052315.810
 02  4  4  1 36  0.0000000  0  9G14G18G31G17G 9G15G 3G21G29
  21421161.147   -18259492.60449 -13105566.03547  21421161.039    21421169.454
  21465958.725   -19170522.88849 -14903608.52447  21465958.676    21465965.639
  23244257.883    -9206798.96549  -6847917.27346  23244257.686    23244269.070
  21764876.909   -17195384.70049 -13070676.86446  21764876.819    21764886.703
  23182077.822    -9262592.98949  -7183141.45845  23182077.951    23182088.488
  21011082.407   -23443844.87949 -17611325.19847  21011082.061    21011090.775
  21757281.704   -17861529.19749 -13895999.08247  21757281.817    21757291.326
  21108299.975   -24494695.14649 -18723076.87047  21108299.858    21108308.229
  21061814.763   -24741792.68249 -19225066.27147  21061814.959    21061822.474
 02  4  4  1 36 30.0000000  0  9G14G18G31G17G 9G15G 3G21G29
  21406627.725   -18335865.75749 -13165077.44547  21406627.610    21406635.953
  21475584.656   -19119938.25249 -14864191.91847  21475584.622    21475591.593
  23234269.336    -9259288.13449  -6888817.79946  23234269.221    23234280.570
  21777572.028   -17128671.67649 -13018692.74946  21777571.930    21777581.829
  23179020.634    -9278657.50049  -7195659.14245  23179020.798    23179031.357
  21021008.305   -23391683.88949 -17570680.27547  21021007.949    21021016.690
  21759449.743   -17850136.22549 -13887121.43247  21759449.856    21759459.342
  21107021.930   -24501411.10249 -18728310.04847  21107021.823    21107030.181
  21071402.485   -24691408.62549 -19185805.95847  21071402.702    21071410.205
 02  4  4  1 37  0.0000000  0  9G14G18G31G17G 9G15G 3G21G29
  21392173.366   -18411823.41949 -13224265.11147  21392173.257    21392181.539
  21485238.296   -19069208.02649 -14824661.86947  21485238.259    21485245.230
  23224377.204    -9311271.08449  -6929323.86546  23224377.118    23224388.468
  21790333.382   -17061610.92449 -12966437.67946  21790333.236    21790343.139
  23176068.771    -9294169.38349  -7207746.21345  23176068.941    23176079.383
  21031006.380   -23339143.32049 -17529739.59447  21031006.087    21031014.807
  21761723.578   -17838187.09249 -13877810.40947  21761723.672    21761733.163
  21105772.913   -24507974.79949 -18733424.59247  21105772.778    21105781.104
  21081070.969   -24640600.60649 -19146215.29147  21081071.138    21081078.662
 02  4  4  1 37 30.0000000  0  9G14G18G31G17G 9G15G 3G21G29
  21377798.354   -18487363.84449 -13283127.64547  21377798.269    21377806.523
  21494919.462   -19018333.00749 -14785018.99547  21494919.427    21494926.447
  23214581.742    -9362746.29549  -6969434.30546  23214581.669    23214592.985
  21803160.584   -16994202.94549 -12913912.05346  21803160.496    21803170.603
  23173222.284    -9309127.26849  -7219401.58345  23173222.343    23173232.838
  21041076.769   -23286223.01949 -17488503.01747  21041076.486    21041085.214
  21764103.100   -17825682.40549 -13868066.49647  21764103.225    21764112.665
  21104552.788   -24514386.39649 -18738420.61047  21104552.662    21104560.945
  21090819.717   -24589370.45449 -19106295.68647  21090819.909    21090827.398
 02  4  4  1 38  0.0000000  0  9G14G18G31G17G 9G15G 3G21G29
  21363503.115   -18562485.26249 -13341663.69447  21363503.045    21363511.261
  21504628.056   -18967313.86249 -14745263.81547  21504628.016    21504635.044
  23204883.360    -9413711.90349  -7009147.64546  23204883.204    23204894.494
  21816053.959   -16926448.07149 -12861116.10546  21816053.850    21816063.859
  23170481.470    -9323529.52849  -7230624.03645  23170481.580    23170492.110
  21051219.324   -23232923.20649 -17446970.69347  21051219.064    21051227.806
  21766588.260   -17812622.84649 -13857890.21047  21766588.355    21766597.792
  21103361.554   -24520646.31949 -18743298.44147  21103361.417    21103369.704
  21100648.426   -24537720.30049 -19066048.80847  21100648.595    21100656.093
 02  4  4  1 38 30.0000000  0  9G14G18G31G17G 9G15G 3G21G29
  21349287.960   -18637186.00049 -13399871.94647  21349287.876    21349296.068
  21514363.886   -18916151.51949 -14705397.04947  21514363.846    21514370.917
  23195282.036    -9464166.48949  -7048462.80246  23195281.881    23195293.215
  21829013.331   -16858346.49449 -12808050.01046  21829013.228    21829023.179
  23167846.636    -9337374.91749  -7241412.54246  23167846.744    23167857.412
  21061434.082   -23179244.23249 -17405142.92747  21061433.843    21061442.591
  21769178.812   -17799009.38149 -13847282.30947  21769178.911    21769188.307
  21102199.085   -24526754.91649 -18748058.35847  21102198.952    21102207.236
  21110556.680   -24485652.18349 -19025476.24647  21110556.875    21110564.345
 02  4  4  1 39  0.0000000  0  9G14G18G31G17G 9G15G 3G21G29
  21335153.044   -18711464.86949 -13457751.45847  21335152.971    21335161.158
  21524126.824   -18864846.94049 -14665419.45047  21524126.787    21524133.848
  23185778.165    -9514108.89749  -7087378.85746  23185778.110    23185789.313
  21842038.663   -16789899.12649 -12754714.46446  21842038.451    21842048.463
  23165318.181    -9350662.31049  -7251766.25946  23165318.294    23165328.997
  21071720.989   -23125186.52549 -17363020.04947  21071720.711    21071729.429
  21771874.506   -17784843.47949 -13836243.93347  21771874.555    21771883.939
  21101065.234   -24532713.15049 -18752701.11347  21101065.107    21101073.399
  21120543.951   -24433168.75149 -18984580.06247  21120544.162    21120551.619
 02  4  4  1 39 30.0000000  0  9G14G18G31G17G 9G15G 3G21G29
  21321098.810   -18785319.69749 -13515300.55847  21321098.741    21321106.904
  21533916.752   -18813400.51349 -14625331.32347  21533916.720    21533923.771
  23176372.304    -9563537.07049  -7125894.20746  23176372.191    23176383.312
  21855129.581   -16721105.92149 -12701109.42346  21855129.398    21855139.324
  23162896.225    -9363390.06849  -7261683.91446  23162896.320    23162907.011
  21082080.008   -23070749.86549 -17320601.88247  21082079.680    21082088.399
  21774675.272   -17770125.29549 -13824775.21047  21774675.346    21774684.714
  21099960.058   -24538520.83249 -18757226.54947  21099959.922    21099968.197
  21130609.966   -24380271.43149 -18943361.36647  21130610.183    21130617.635
 02  4  4  1 40  0.0000000  0  9G14G18G31G17G 9G15G 3G21G29
  21307125.567   -18858749.12749 -13572518.17447  21307125.474    21307133.631
  21543733.459   -18761813.30949 -14585133.50147  21543733.413    21543740.470
  23167064.530    -9612449.75449  -7164007.88046  23167064.395    23167075.389
  21868286.299   -16651967.48849 -12647235.38646  21868286.070    21868296.026
  23160580.880    -9375557.12549  -7271164.63346  23160581.023    23160591.630
  21092511.008   -23015934.68049 -17277888.75247  21092510.689    21092519.377
  21777580.916   -17754855.84649 -13812876.93347  21777580.984    21777590.400
  21098883.365   -24544178.87049 -18761635.38047  21098883.227    21098891.467
  21140754.265   -24326962.74549 -18901822.12747  21140754.490    21140761.938
 02  4  4  1 40 30.0000000  0  9G14G18G31G17G 9G15G 3G21G29
  21293233.644   -18931751.03449 -13629402.66847  21293233.561    21293241.723
  21553576.920   -18710085.51549 -14544826.13547  21553576.899    21553583.926
  23157855.083    -9660845.03549  -7201718.38646  23157854.922    23157865.896
  21881508.642   -16582483.93349 -12593092.42246  21881508.347    21881518.402
  23158372.565    -9387161.81749  -7280207.15246  23158372.762    23158383.338
  21103014.051   -22960740.87049 -17234880.60347  21103013.688    21103022.409
  21780591.296   -17739035.99049 -13800549.76647  21780591.390    21780600.820
  21097835.168   -24549687.21149 -18765927.57447  21097835.023    21097843.247
  21150976.520   -24273244.41549 -18859963.68847  21150976.753    21150984.211
 02  4  4  1 41  0.0000000  0  9G14G18G31G17G 9G15G 3G21G29
  21279423.336   -19004323.97649 -13685952.90047  21279423.272    21279431.420
  21563447.079   -18658217.70549 -14504409.66147  21563447.036    21563454.076
  23148744.251    -9708721.58849  -7239024.69746  23148744.188    23148755.195
  21894796.671   -16512655.56649 -12538680.75546  21894796.378    21894806.283
  23156271.410    -9398202.70649  -7288810.36846  23156271.617    23156282.246
  21113589.064   -22905168.65749 -17191577.59447  21113588.717    21113597.478
  21783706.316   -17722666.54449 -13787794.34147  21783706.414    21783715.793
  21096815.385   -24555045.93149 -18770103.17447  21096815.239    21096823.460
  21161276.305   -24219118.61149 -18817787.73547  21161276.513    21161283.967
 02  4  4  1 41 30.0000000  0  9G14G18G31G17G 9G15G 3G21G29
  21265694.991   -19076466.48849 -13742167.73547  21265694.936    21265703.071
  21573343.550   -18606211.27449 -14463885.17647  21573343.495    21573350.556
  23139732.562    -9756078.16549  -7275925.82946  23139732.477    23139743.454
  21908149.952   -16442483.36249 -12484001.19846  21908149.704    21908159.672
  23154277.847    -9408678.82749  -7296973.48446  23154278.057    23154288.645
  21124236.087   -22849218.27749 -17147979.90347  21124235.736    21124244.489
  21786925.691   -17705748.82249 -13774611.68747  21786925.755    21786935.142
  21095824.022   -24560255.57749 -18774162.60647  21095823.875    21095832.078
  21171653.222   -24164587.62749 -18775296.06047  21171653.439    21171660.873
 02  4  4  1 42  0.0000000  0  9G14G18G31G17G 9G15G 3G21G29
  21252048.934   -19148176.61949 -13798045.64947  21252048.863    21252056.987
  21583266.358   -18554066.33249 -14423252.76147  21583266.326    21583273.392
  23130820.046    -9802912.97849  -7312420.38646  23130819.977    23130831.024
  21921568.663   -16371967.15649 -12429053.55446  21921568.514    21921578.517
  23152392.062    -9418588.55549  -7304695.24846  23152392.253    23152402.796
  21134955.092   -22792889.67549 -17104087.49547  21134954.715    21134963.455
  21790249.218   -17688283.49449 -13761002.33047  21790249.304    21790258.673
  21094860.975   -24565316.39149 -18778106.06447  21094860.822    21094869.009
  21182106.841   -24109653.35549 -18732490.13347  21182107.052    21182114.489
 02  4  4  1 42 30.0000000  0  9G14G18G31G17G 9G15G 3G21G29
  21238485.354   -19219453.01249 -13853585.58847  21238485.283    21238493.397
  21593215.420   -18501783.74349 -14382513.09847  21593215.388    21593222.464
  23122007.204    -9849224.87749  -7348507.47946  23122007.018    23122018.092
  21935052.806   -16301107.86949 -12373838.58546  21935052.599    21935062.617
  23150614.113    -9427930.95549  -7311974.96646  23150614.284    23150624.937
  21145745.923   -22736183.30849 -17059900.73847  21145745.595    21145754.322
  21793676.751   -17670271.69549 -13746967.15347  21793676.852    21793686.240
  21093926.080   -24570229.12349 -18781934.14347  21093925.929    21093934.098
  21192636.809   -24054318.06249 -18689371.72747  21192637.033    21192644.470
 02  4  4  1 43  0.0000000  0  9G14G18G31G17G 9G15G 3G21G29
  21225004.649   -19290294.17749 -13908786.39147  21225004.575    21225012.647
  21603190.404   -18449364.53349 -14341666.96947  21603190.383    21603197.458
  23113293.985    -9895012.65049  -7384186.16546  23113293.850    23113304.882
  21948602.109   -16229905.85549 -12318356.55646  21948601.909    21948611.994
  23148944.297    -9436704.99149  -7318811.79246  23148944.529    23148955.083
  21156608.538   -22679099.89349 -17015420.16847  21156608.235    21156616.948
  21797207.958   -17651714.98649 -13732507.37047  21797208.017    21797217.453
  21093019.280   -24574994.23449 -18785647.18447  21093019.127    21093027.328
  21203242.651   -23998584.16349 -18645942.71547  21203242.831    21203250.283
 02  4  4  1 43 30.0000000  0  9G14G18G31G17G 9G15G 3G21G29
  21211606.950   -19360698.95549 -13963647.15047  21211606.890    21211614.943
  21613191.290   -18396809.53449 -14300715.03847  21613191.269    21613198.371
  23104680.836    -9940274.86649  -7419455.32646  23104680.672    23104691.661
  21962216.603   -16158361.87749 -12262608.05346  21962216.385    21962226.412
  23147383.155    -9444909.38949  -7325204.74946  23147383.301    23147393.652
  21167542.783   -22621639.74849 -16970646.04947  21167542.545    21167551.235
  21800842.628   -17632614.33249 -13717623.73747  21800842.711    21800852.159
  21092140.501   -24579612.07349 -18789245.47047  21092140.335    21092148.591
  21213923.854   -23942453.80649 -18602204.77847  21213924.046    21213931.553
 02  4  4  1 44  0.0000000  0  9G14G18G31G17G 9G15G 3G21G29
  21198292.522   -19430666.05149 -14018166.85547  21198292.488    21198300.575
  21623217.864   -18344119.77849 -14259658.10247  21623217.808    21623224.893
  23096167.769    -9985010.64049  -7454314.27546  23096167.636    23096178.534
  21975895.902   -16086476.82549 -12206593.76746  21975895.714    21975905.711
  23145930.172    -9452543.62449  -7331153.41645  23145930.297    23145940.745
  21178548.691   -22563803.55349 -16925578.90447  21178548.416    21178557.147
  21804580.589   -17612971.24849 -13702317.42347  21804580.633    21804590.103
  21091289.578   -24584083.31249 -18792729.51947  21091289.444    21091297.716
  21224680.040   -23885929.57749 -18558159.92747  21224680.230    21224687.759
 02  4  4  1 44 30.0000000  0  9G14G18G31G17G 9G15G 3G21G29
  21185061.849   -19500193.01849 -14072343.60347  21185061.817    21185069.930
  21633270.131   -18291295.00849 -14218495.95547  21633270.059    21633277.149
  23087755.358   -10029217.68249  -7488761.22146  23087755.220    23087766.058
  21989640.162   -16014250.13249 -12150313.27346  21989640.019    21989650.017
  23144586.048    -9459605.75049  -7336656.28945  23144586.197    23144596.725
  21189626.242   -22505590.69449 -16880218.25347  21189625.967    21189634.677
  21808421.751   -17592785.69349 -13686588.40647  21808421.834    21808431.302
  21090466.752   -24588407.20749 -18796098.74947  21090466.604    21090474.864
  21235510.887   -23829012.79149 -18513809.19047  21235511.111    21235518.619
 02  4  4  1 45  0.0000000  0  9G14G18G31G17G 9G15G 3G21G29
  21171915.153   -19569279.11949 -14126176.83547  21171915.088    21171923.203
  21643347.806   -18238336.48349 -14177229.59347  21643347.752    21643354.842
  23079443.704   -10072895.46849  -7522795.75346  23079443.544    23079454.311
  22003449.210   -15941683.04749 -12093767.56546  22003449.089    22003459.254
  23143351.099    -9466095.17149  -7341712.90945  23143351.261    23143361.636
  21200775.407   -22447001.97049 -16834564.73347  21200775.039    21200783.712
  21812365.762   -17572059.80149 -13670438.36147  21812365.833    21812375.284
  21089671.747   -24592584.82949 -18799354.00747  21089671.594    21089679.850
  21246416.009   -23771706.28549 -18469154.77647  21246416.222    21246423.713
 02  4  4  1 45 30.0000000  0  9G14G18G31G17G 9G15G 3G21G29
  21158852.625   -19637922.66849 -14179665.21147  21158852.561    21158860.644
  21653450.864   -18185244.61049 -14135859.30647  21653450.808    21653457.910
  23071233.134   -10116042.29049  -7556416.55946  23071232.928    23071243.642
  22017323.057   -15868776.00349 -12036956.90846  22017322.894    22017333.004
  23142225.562    -9472010.72349  -7346322.35246  23142225.650    23142235.888
  21211995.955   -22388037.61649 -16788618.51247  21211995.601    21212004.291
  21816412.393   -17550794.62749 -13653868.08747  21816412.462    21816421.914
  21088904.509   -24596616.42949 -18802495.49747  21088904.365    21088912.613
  21257394.857   -23714012.07249 -18424198.24747  21257395.062    21257402.515
 02  4  4  1 46  0.0000000  0  9G14G18G31G17G 9G15G 3G21G29
  21145874.455   -19706123.05749 -14232808.26647  21145874.386    21145882.444
  21663578.926   -18132021.31349 -14094386.61647  21663578.896    21663585.972
  23063123.654   -10158657.79349  -7589623.33246  23063123.441    23063134.169
  22031261.256   -15795530.63049 -11979882.63746  22031261.086    22031271.193
  23141209.033    -9477352.47449  -7350484.67146  23141209.214    23141219.280
  21223287.787   -22328698.90649 -16742380.56347  21223287.414    21223296.098
  21820561.291   -17528992.12849 -13636879.12547  21820561.310    21820570.766
  21088164.903   -24600502.99949 -18805523.96247  21088164.757    21088172.961
  21268446.893   -23655933.38349 -18378942.12847  21268447.100    21268454.531
 02  4  4  1 46 30.0000000  0  9G14G18G31G17G 9G15G 3G21G29
  21132981.151   -19773877.67149 -14285603.97347  21132981.092    21132989.071
  21673732.190   -18078665.86349 -14052810.94447  21673732.157    21673739.179
  23055115.713   -10200739.43149  -7622414.11246  23055115.466    23055126.186
  22045263.800   -15721946.14949 -11922544.16546  22045263.622    22045274.027
  23140302.224    -9482118.00349  -7354197.98446  23140302.372    23140312.367
  21234650.940   -22268984.99949 -16695850.27247  21234650.577    21234659.326
  21824812.378   -17506652.08249 -13619471.29447  21824812.437    21824821.892
  21087453.062   -24604243.87949 -18808438.89947  21087452.900    21087461.072
  21279571.904   -23597471.06349 -18333387.07047  21279572.089    21279579.541
 02  4  4  1 47  0.0000000  0  9G14G18G31G17G 9G15G 3G21G29
  21120172.902   -19841184.98649 -14338051.13547  21120172.849    21120180.781
  21683910.515   -18025178.64149 -14011132.59047  21683910.461    21683917.458
  23047209.546   -10242285.94849  -7654787.91646  23047209.369    23047220.081
  22059330.847   -15648022.79849 -11864941.59546  22059330.713    22059341.120
  23139505.115    -9486306.32849  -7357461.53546  23139505.254    23139515.343
  21246085.532   -22208896.09049 -16649027.76547  21246085.151    21246093.919
  21829165.593   -17483775.65049 -13601645.50647  21829165.643    21829175.094
  21086768.848   -24607839.27949 -18811240.48348  21086768.674    21086776.838
  21290769.498   -23538627.08349 -18287534.62147  21290769.717    21290777.158
 02  4  4  1 47 30.0000000  0  9G14G18G31G17G 9G15G 3G21G29
  21107449.985   -19908044.02749 -14390148.99147  21107449.927    21107457.821
  21694113.658   -17971560.81249 -13969352.47547  21694113.598    21694120.613
  23039405.305   -10283296.80949  -7686744.32346  23039405.182    23039415.864
  22073462.420   -15573761.94849 -11807076.06746  22073462.200    22073472.470
  23138817.888    -9489917.03449  -7360274.97546  23138818.040    23138828.344
  21257591.374   -22148432.94049 -16601913.63947  21257590.906    21257599.709
  21833620.485   -17460364.98449 -13583403.43147  21833620.549    21833629.988
  21086112.131   -24611290.37849 -18813929.63248  21086111.969    21086120.117
  21302039.209   -23479404.35649 -18241387.04747  21302039.455    21302046.870
 02  4  4  1 48  0.0000000  0  9G14G18G31G17G 9G15G 3G21G29
  21094812.640   -19974453.36849 -14441896.42447  21094812.585    21094820.462
  21704341.484   -17917813.20849 -13927471.23447  21704341.427    21704348.464
  23031703.283   -10323770.61949  -7718282.25646  23031703.194    23031713.798
  22087657.937   -15499163.98849 -11748947.85246  22087657.792    22087668.046
  23138240.825    -9492949.06349  -7362637.50446  23138240.950    23138251.371
  21269168.203   -22087595.93549 -16554508.20747  21269167.821    21269176.610
  21838176.805   -17436421.22049 -13564745.95547  21838176.895    21838186.337
  21085482.914   -24614596.76649 -18816506.01948  21085482.754    21085490.906
  21313380.642   -23419804.99949 -18194945.99147  21313380.883    21313388.268
 02  4  4  1 48 30.0000000  0  9G14G18G31G17G 9G15G 3G21G29
  21082261.112   -20040411.94349 -14493292.61947  21082261.035    21082268.855
  21714593.837   -17863936.74249 -13885489.57047  21714593.800    21714600.797
  23024103.703   -10363706.50549  -7749401.02846  23024103.615    23024114.137
  22101917.541   -15424229.87349 -11690557.70746  22101917.381    22101927.640
  23137774.128    -9495401.56649  -7364548.46746  23137774.273    23137784.540
  21280816.048   -22026385.73149 -16506811.96447  21280815.748    21280824.575
  21842834.317   -17411945.74649 -13545674.16547  21842834.390    21842843.876
  21084881.092   -24617759.20549 -18818970.23848  21084880.931    21084889.062
  21324793.296   -23359831.52649 -18148213.41647  21324793.513    21324800.855
 02  4  4  1 49  0.0000000  0  9G14G18G31G17G 9G15G 3G21G29
  21069795.566   -20105918.46949 -14544336.56447  21069795.484    21069803.263
  21724870.621   -17809931.98349 -13843407.94847  21724870.555    21724877.565
  23016606.629   -10403103.50849  -7780099.88246  23016606.535    23016617.079
  22116240.894   -15348960.34349 -11631906.19046  22116240.755    22116251.001
  23137417.869    -9497273.96749  -7366007.39046  23137417.949    23137428.083
  21292534.824   -21964803.22049 -16458825.62047  21292534.515    21292543.323
  21847592.743   -17386940.21249 -13526189.33747  21847592.846    21847602.272
  21084306.595   -24620778.21649 -18821322.69348  21084306.428    21084314.554
  21336276.655   -23299486.27549 -18101191.14547  21336276.823    21336284.167
 02  4  4  1 49 30.0000000  0  9G14G18G31G17G 9G15G 3G21G29
  21057416.349   -20170971.50549 -14595027.14547  21057416.254    21057423.992
  21735171.749   -17755799.27349 -13801226.62047  21735171.684    21735178.696
  23009212.327   -10441960.26249  -7810377.77946  23009212.184    23009222.819
  22130628.024   -15273355.81049 -11572993.64446  22130627.915    22130638.123
  23137172.091    -9498565.38549  -7367013.62345  23137172.099    23137182.095
  21304324.513   -21902848.37449 -16410549.14947  21304324.163    21304332.956
  21852451.912   -17361405.52949 -13506292.19047  21852451.972    21852461.372
  21083759.440   -24623653.47249 -18823563.13148  21083759.257    21083767.399
  21347830.296   -23238771.40049 -18053880.85647  21347830.484    21347837.825
 02  4  4  1 50  0.0000000  0  9G14G18G31G17G 9G15G 3G21G29
  21045123.646   -20235569.51649 -14645363.15847  21045123.564    21045131.274
  21745497.040   -17701539.48349 -13758946.26947  21745496.956    21745503.987
  23001921.062   -10480275.67049  -7840233.83746  23001920.902    23001931.534
  22145078.766   -15197416.93049 -11513820.54246  22145078.691    22145088.813
  23137037.038    -9499274.89849  -7367566.38945  23137037.063    23137046.939
  21316184.870   -21840521.66349 -16361982.91347  21316184.533    21316193.368
  21857411.429   -17335343.18849 -13485983.88347  21857411.489    21857420.876
  21083239.498   -24626385.55449 -18825691.99948  21083239.337    21083247.490
  21359453.832   -23177689.00649 -18006284.18547  21359454.048    21359461.410
 02  4  4  1 50 30.0000000  0  9G14G18G31G17G 9G15G 3G21G29
  21032917.817   -20299710.87449 -14695343.34047  21032917.774    21032925.458
  21755846.525   -17647152.60649 -13716566.89347  21755846.431    21755853.460
  22994733.048   -10518048.22749  -7869666.89746  22994732.898    22994743.603
  22159593.056   -15121143.89249 -11454387.06546  22159592.933    22159603.170
  23137013.010    -9499401.23449  -7367664.76046  23137013.079    23137022.837
  21328116.049   -21777822.92249 -16313126.76647  21328115.723    21328124.529
  21862471.137   -17308754.10049 -13465265.12247  21862471.186    21862480.572
  21082746.806   -24628974.44549 -18827709.29048  21082746.658    21082754.795
  21371146.993   -23116240.93349 -17958402.57347  21371147.203    21371154.594
 02  4  4  1 51  0.0000000  0  9G14G18G31G17G 9G15G 3G21G29
  21020799.100   -20363394.89049 -14744967.15747  21020799.044    21020806.696
  21766219.963   -17592640.03849 -13674089.56247  21766219.880    21766226.873
  22987648.411   -10555277.48949  -7898676.61846  22987648.263    22987659.004
  22174170.648   -15044538.15949 -11394694.35346  22174170.590    22174180.875
  23137099.991    -9498944.32849  -7367308.63746  23137100.119    23137109.741
  21340117.753   -21714753.39049 -16263981.69747  21340117.434    21340126.276
  21867630.682   -17281640.47749 -13444137.63747  21867630.764    21867640.158
  21082281.269   -24631420.82949 -18829615.54448  21082281.130    21082289.261
  21382909.221   -23054430.24549 -17910238.40147  21382909.420    21382916.802
 02  4  4  1 51 30.0000000  0  9G14G18G31G17G 9G15G 3G21G29
  21008767.577   -20426620.53649 -14794233.80147  21008767.473    21008775.112
  21776617.131   -17538002.31549 -13631514.71947  21776617.052    21776624.068
  22980667.376   -10591962.44549  -7927262.20546  22980667.255    22980678.009
  22188811.509   -14967600.40049 -11334742.91346  22188811.375    22188821.662
  23137298.096    -9497903.38049  -7366497.41946  23137298.202    23137307.790
  21352189.869   -21651313.85949 -16214548.31947  21352189.577    21352198.431
  21872889.851   -17254003.60449 -13422602.42347  21872889.913    21872899.316
  21081842.740   -24633725.15249 -18831411.10548  21081842.614    21081850.714
  21394740.007   -22992259.15149 -17861793.39447  21394740.180    21394747.530
 02  4  4  1 52  0.0000000  0  9G14G18G31G17G 9G15G 3G21G29
  20996823.768   -20489385.26249 -14843141.28847  20996823.682    20996831.303
  21787038.260   -17483238.74349 -13588841.81347  21787038.197    21787045.205
  22973790.500   -10628100.90349  -7955421.94646  22973790.296    22973800.987
  22203515.525   -14890330.01649 -11274532.30346  22203515.436    22203525.854
  23137607.508    -9496276.62049  -7365229.75946  23137607.638    23137617.211
  21364332.637   -21587503.33049 -16164825.86147  21364332.330    21364341.194
  21878248.581   -17225843.70949 -13400659.66047  21878248.624    21878258.009
  21081431.519   -24635886.18049 -18833095.00648  21081431.379    21081439.470
  21406639.193   -22929728.63249 -17813068.31547  21406639.392    21406646.690
 02  4  4  1 52 30.0000000  0  9G14G18G31G17G 9G15G 3G21G29
  20984967.564   -20551689.32549 -14891689.81747  20984967.509    20984975.130
  21797482.915   -17428351.70549 -13546072.69747  21797482.857    21797489.887
  22967017.509   -10663693.46649  -7983156.31746  22967017.215    22967027.824
  22218282.480   -14812729.55949 -11214064.48746  22218282.373    22218292.798
  23138028.219    -9494064.99149  -7363506.34946  23138028.387    23138037.986
  21376545.659   -21523324.02549 -16114816.03147  21376545.276    21376554.118
  21883706.107   -17197164.34749 -13378312.11747  21883706.145    21883715.581
  21081047.051   -24637906.37149 -18834669.16048  21081046.905    21081054.989
  21418605.921   -22866842.71949 -17764066.30747  21418606.157    21418613.464
 02  4  4  1 53  0.0000000  0  9G14G18G31G17G 9G15G 3G21G29
  20973199.429   -20613530.86749 -14939877.94247  20973199.396    20973207.011
  21807951.085   -17373341.20649 -13503207.37947  21807950.990    21807958.033
  22960348.402   -10698738.60249  -8010464.12546  22960348.212    22960358.829
  22233112.178   -14734798.94449 -11153339.40746  22233112.057    22233122.453
  23138560.530    -9491267.15849  -7361326.15046  23138560.698    23138570.296
  21388828.839   -21458775.70249 -16064518.67147  21388828.432    21388837.318
  21889262.309   -17167966.17649 -13355560.30547  21889262.349    21889271.812
  21080689.588   -24639784.78049 -18836132.82948  21080689.452    21080697.512
  21430639.993   -22803602.83949 -17714788.47547  21430640.247    21430647.586
 02  4  4  1 53 30.0000000  0  9G14G18G31G17G 9G15G 3G21G29
  20961519.684   -20674908.16749 -14987704.32047  20961519.622    20961527.241
  21818442.744   -17318206.92449 -13460245.61047  21818442.686    21818449.750
  22953783.884   -10733234.58449  -8037344.02146  22953783.737    22953794.334
  22248004.727   -14656538.20649 -11092357.10246  22248004.656    22248015.121
  23139204.734    -9487881.71249  -7358688.07346  23139204.862    23139214.423
  21401182.132   -21393858.20149 -16013933.64147  21401181.820    21401190.730
  21894917.113   -17138249.78949 -13332404.69247  21894917.164    21894926.626
  21080359.193   -24641521.23449 -18837485.88148  21080359.041    21080367.080
  21442741.139   -22740010.79549 -17665236.23647  21442741.389    21442748.763
 02  4  4  1 54  0.0000000  0  9G14G18G31G17G 9G15G 3G21G29
  20949928.336   -20735821.00149 -15035168.78347  20949928.247    20949935.828
  21828957.690   -17262950.49349 -13417188.66347  21828957.617    21828964.713
  22947323.981   -10767181.59549  -8063796.15846  22947323.828    22947334.376
  22262959.838   -14577949.23149 -11031119.01446  22262959.733    22262970.126
  23139960.589    -9483909.40149  -7355592.71746  23139960.808    23139970.377
  21413605.463   -21328573.30949 -15963062.33547  21413605.169    21413614.058
  21900669.979   -17108017.97449 -13308847.44247  21900670.022    21900679.496
  21080055.576   -24643116.65849 -18838729.03548  21080055.411    21080063.439
  21454908.689   -22676069.78149 -17615412.07447  21454908.956    21454916.337
 02  4  4  1 54 30.0000000  0  9G14G18G31G17G 9G15G 3G21G29
  20938425.467   -20796268.64549 -15082270.75247  20938425.390    20938432.962
  21839495.741   -17207572.70849 -13374037.15147  21839495.682    21839502.769
  22940968.750   -10800578.85249  -8089819.91446  22940968.488    22940979.052
  22277977.204   -14499033.06349 -10969625.96446  22277977.067    22277987.476
  23140828.243    -9479349.92949  -7352039.81946  23140828.438    23140838.139
  21426098.537   -21262921.77049 -15911905.30147  21426098.221    21426107.184
  21906520.565   -17077272.64649 -13284890.04347  21906520.602    21906530.113
  21079778.723   -24644571.35949 -18839862.53848  21079778.553    21079786.587
  21467142.168   -22611782.59649 -17565318.16147  21467142.417    21467149.812
 02  4  4  1 55  0.0000000  0  9G14G18G31G17G 9G15G 3G21G29
  20927011.504   -20856248.82649 -15129008.46647  20927011.452    20927018.999
  21850056.885   -17152073.54349 -13330791.05947  21850056.830    21850063.930
  22934718.303   -10833424.62749  -8115413.96246  22934718.095    22934728.633
  22293056.892   -14419789.58149 -10907877.88946  22293056.738    22293067.095
  23141807.911    -9474201.97849  -7348028.34246  23141808.090    23141817.766
  21438661.428   -21196903.42749 -15860462.44747  21438661.114    21438670.072
  21912468.785   -17046014.32649 -13260532.91447  21912468.864    21912478.373
  21079528.682   -24645885.24549 -18840886.32348  21079528.526    21079536.552
  21479441.289   -22547150.47849 -17514955.47647  21479441.492    21479448.894
 02  4  4  1 55 30.0000000  0  9G14G18G31G17G 9G15G 3G21G29
  20915686.829   -20915760.44149 -15175381.07047  20915686.732    20915694.255
  21860641.086   -17096453.28849 -13287450.61547  21860641.023    21860648.124
  22928573.018   -10865718.02849  -8140577.56646  22928572.829    22928583.307
  22308198.566   -14340219.42449 -10845875.27046  22308198.426    22308208.830
  23142899.639    -9468464.74449  -7343557.69946  23142899.804    23142909.465
  21451294.071   -21130518.58949 -15808734.04347  21451293.728    21451302.691
  21918514.364   -17014244.68749 -13235777.36347  21918514.438    21918523.958
  21079305.434   -24647058.20549 -18841800.29948  21079305.291    21079313.300
  21491805.637   -22482175.60449 -17464325.71547  21491805.822    21491813.209
 02  4  4  1 56  0.0000000  0  9G14G18G31G17G 9G15G 3G21G29
  20904451.317   -20974802.98749 -15221388.16447  20904451.250    20904458.731
  21871248.092   -17040713.16049 -13244016.76647  21871248.020    21871255.130
  22922532.822   -10897459.11849  -8165310.81846  22922532.641    22922543.145
  22323402.131   -14260324.17549 -10783619.32446  22323401.981    22323412.488
  23144103.586    -9462138.23749  -7338627.89246  23144103.750    23144113.298
  21463996.134   -21063768.56449 -15756721.06247  21463995.835    21464004.833
  21924656.766   -16981965.97749 -13210625.13147  21924656.866    21924666.399
  21079108.872   -24648091.06649 -18842605.09848  21079108.727    21079116.713
  21504234.572   -22416861.01049 -17413431.22947  21504234.748    21504242.161
 02  4  4  1 56 30.0000000  0  9G14G18G31G17G 9G15G 3G21G29
  20893305.280   -21033375.35349 -15267028.88447  20893305.206    20893312.668
  21881877.840   -16984853.63549 -13200489.87747  21881877.751    21881884.862
  22916597.978   -10928646.70249  -8189612.77146  22916597.770    22916608.309
  22338667.464   -14180104.40749 -10721110.53046  22338667.372    22338677.973
  23145419.811    -9455221.75849  -7333238.35946  23145419.909    23145429.402
  21476767.679   -20996653.79449 -15704423.85847  21476767.353    21476776.344
  21930895.765   -16949179.71649 -13185077.40847  21930895.877    21930905.429
  21078938.949   -24648983.90049 -18843300.78848  21078938.775    21078946.768
  21516727.747   -22351208.73249 -17362273.62047  21516727.929    21516735.380
 02  4  4  1 57  0.0000000  0  9G14G18G31G17G 9G15G 3G21G29
  20882249.005   -21091476.22649 -15312302.20747  20882248.920    20882256.348
  21892530.246   -16928874.83949 -13156870.04647  21892530.157    21892537.282
  22910768.553   -10959280.18249  -8213482.95746  22910768.385    22910778.839
  22353994.549   -14099560.63849 -10658349.25346  22353994.412    22354005.047
  23146848.222    -9447715.20549  -7327389.02146  23146848.350    23146857.909
  21489608.636   -20929174.72949 -15651842.80547  21489608.214    21489617.181
  21937231.164   -16915887.35449 -13159135.31647  21937231.251    21937240.753
  21078795.700   -24649736.49349 -18843887.19748  21078795.524    21078803.534
  21529284.771   -22285221.01249 -17310854.62147  21529284.986    21529292.414
 02  4  4  1 57 30.0000000  0  9G14G18G31G17G 9G15G 3G21G29
  20871282.665   -21149104.37249 -15357207.17047  20871282.592    20871289.969
  21903205.263   -16872777.16149 -13113157.58847  21903205.216    21903212.294
  22905044.879   -10989358.49149  -8236920.53546  22905044.717    22905055.054
  22369383.101   -14018693.79249 -10595336.22446  22369382.978    22369393.574
  23148389.157    -9439617.86049  -7321079.33546  23148389.234    23148398.782
  21502518.711   -20861331.64949 -15598978.09147  21502518.336    21502527.324
  21943662.498   -16882090.65249 -13132800.23347  21943662.578    21943672.052
  21078679.029   -24650349.36649 -18844364.74148  21078678.864    21078686.899
  21541905.255   -22218900.00749 -17259175.92347  21541905.469    21541912.882
 02  4  4  1 58  0.0000000  0  9G14G18G31G17G 9G15G 3G21G29
  20860406.474   -21206258.91649 -15401743.09047  20860406.401    20860413.742
  21913902.804   -16816561.43049 -13069353.12747  21913902.741    21913909.819
  22899426.929   -11018880.96749  -8259925.00646  22899426.757    22899436.973
  22384832.877   -13937504.77249 -10532072.15046  22384832.783    22384843.458
  23150042.549    -9430929.51749  -7314309.13746  23150042.608    23150052.052
  21515497.927   -20793125.34849 -15545830.35847  21515497.601    21515506.539
  21950189.453   -16847791.54449 -13106073.65847  21950189.520    21950198.991
  21078588.891   -24650822.86349 -18844733.66048  21078588.727    21078596.761
  21554588.654   -22152248.29849 -17207239.53647  21554588.868    21554596.273
 02  4  4  1 58 30.0000000  0  9G14G18G31G17G 9G15G 3G21G29
  20849620.569   -21262938.94749 -15445909.26947  20849620.498    20849627.762
  21924622.711   -16760228.13749 -13025457.06047  21924622.640    21924629.696
  22893914.900   -11047846.83949  -8282495.75546  22893914.683    22893924.855
  22400343.757   -13855994.45849 -10468557.70746  22400343.704    22400354.502
  23151808.338    -9421649.84549  -7307078.17246  23151808.357    23151817.841
  21528546.220   -20724556.75049 -15492400.31547  21528545.838    21528554.788
  21956811.642   -16812991.55449 -13078956.79747  21956811.726    21956821.226
  21078525.344   -24651156.79049 -18844993.82348  21078525.181    21078533.216
  21567334.627   -22085268.11049 -17155047.18647  21567334.805    21567342.197
 02  4  4  1 59  0.0000000  0  9G14G18G31G17G 9G15G 3G21G29
  20838925.321   -21319142.64849 -15489704.28647  20838925.232    20838932.429
  21935364.944   -16703777.21749 -12981469.34347  21935364.903    21935371.925
  22888508.903   -11076255.04849  -8304631.97146  22888508.715    22888518.873
  22415915.801   -13774163.06049 -10404793.11546  22415915.704    22415926.646
  23153686.789    -9411777.90049  -7299385.70846  23153686.877    23153696.348
  21541663.349   -20655625.68849 -15438687.84247  21541663.027    21541671.953
  21963528.936   -16777692.08349 -13051450.72747  21963529.035    21963538.493
  21078488.368   -24651350.78549 -18845144.96248  21078488.216    21078496.231
  21580142.730   -22017961.11349 -17102600.18547  21580142.888    21580150.267
 02  4  4  1 59 30.0000000  0  9G14G18G31G17G 9G15G 3G21G29
  20828320.762   -21374869.62749 -15533127.82348  20828320.694    20828327.860
  21946129.407   -16647209.59649 -12937390.68747  21946129.361    21946136.367
  22883209.064   -11104105.19649  -8326333.32846  22883208.874    22883219.068
  22431548.710   -13692011.83849 -10340779.26346  22431548.562    22431559.580
  23155678.030    -9401313.79749  -7291231.79946  23155678.147    23155687.570
  21554849.329   -20586333.50949 -15384693.97747  21554848.988    21554857.832
  21970340.939   -16741895.09449 -13023556.97747  21970341.010    21970350.469
  21078477.879   -24651405.79049 -18845187.79648  21078477.724    21078485.733
  21593012.502   -21950330.02249 -17049900.64447  21593012.668    21593020.049
 02  4  4  2  0  0.0000000  0  9G14G18G31G17G 9G15G 3G21G29
  20817807.047   -21430119.27849 -15576179.42348  20817806.962    20817814.130
  21956915.889   -16590526.33949 -12893221.92247  21956915.833    21956922.802
  22878015.512   -11131397.20049  -8347599.76246  22878015.330    22878025.496
  22447242.209   -13609542.50249 -10276517.51046  22447242.077    22447253.029
  23157781.841    -9390257.83749  -7282616.68546  23157781.921    23157791.383
  21568103.708   -20516681.26249 -15330419.52047  21568103.373    21568112.215
  21977247.113   -16705602.95049 -12995277.39747  21977247.178    21977256.664
  21078493.839   -24651321.92649 -18845122.41248  21078493.683    21078501.687
  21605943.324   -21882377.87649 -16996950.93047  21605943.507    21605950.898
 02  4  4  2  0 30.0000000  0  9G14G18G31G17G 9G15G 3G21G29
  20807384.401   -21484890.02549 -15618857.85148  20807384.328    20807391.472
  21967724.431   -16533727.12549 -12848962.79647  21967724.351    21967731.309
  22872928.434   -11158129.53249  -8368430.08546  22872928.261    22872938.430
  22462996.308   -13526754.90649 -10212007.80946  22462996.171    22463006.931
  23159998.356    -9378609.16249  -7273539.74146  23159998.467    23160007.993
  21581426.556   -20446668.90549 -15275864.43847  21581426.269    21581435.140
  21984247.341   -16668816.62949 -12966612.74847  21984247.412    21984256.928
  21078536.253   -24651098.86349 -18844948.56748  21078536.103    21078544.110
  21618935.024   -21814106.01649 -16943752.09047  21618935.203    21618942.598
 02  4  4  2  1  0.0000000  0  9G14G18G31G17G 9G15G 3G21G29
  20797053.082   -21539180.98549 -15661162.42148  20797053.020    20797060.159
  21978554.977   -16476812.16549 -12804613.48147  21978554.913    21978561.858
  22867947.940   -11184301.70349  -8388823.92846  22867947.710    22867957.951
  22478810.788   -13443650.09049 -10147250.93746  22478810.573    22478821.445
  23162327.581    -9366367.40249  -7264000.64246  23162327.765    23162337.340
  21594817.967   -20376296.98949 -15221029.17847  21594817.639    21594826.562
  21991341.274   -16631537.83149 -12937564.34547  21991341.351    21991350.833
  21078605.122   -24650736.95549 -18844666.54248  21078604.985    21078612.940
  21631987.082   -21745516.82349 -16890305.97647  21631987.257    21631994.670
 02  4  4  2  1 30.0000000  0  9G14G18G31G17G 9G15G 3G21G29
  20786813.131   -21592991.86249 -15703092.89848  20786813.079    20786820.218
  21989407.303   -16419782.67249 -12760174.92947  21989407.230    21989414.237
  22863074.009   -11209913.93049  -8408781.45146  22863073.784    22863084.007
  22494685.262   -13360229.48349 -10082247.91146  22494685.113    22494695.881
  23164769.619    -9353532.95549  -7253999.72446  23164769.734    23164779.619
  21608277.369   -20305567.19249 -15165915.07947  21608277.081    21608286.037
  21998528.387   -16593769.37349 -12908134.39547  21998528.436    21998537.901
  21078700.266   -24650236.95649 -18844276.91048  21078700.100    21078708.063
  21645098.959   -21676613.33949 -16836614.95747  21645099.150    21645106.561
 02  4  4  2  2  0.0000000  0  9G14G18G31G17G 9G15G 3G21G29
  20776664.806   -21646321.32549 -15744648.25048  20776664.754    20776671.888
  22000281.360   -16362639.05249 -12715647.43947  22000281.292    22000288.320
  22858306.833   -11234965.55249  -8428302.14046  22858306.564    22858316.768
  22510619.553   -13276493.86149 -10016999.46946  22510619.442    22510630.401
  23167324.604    -9340105.59149  -7243536.80146  23167324.725    23167334.734
  21621804.862   -20234479.88149 -15110522.40547  21621804.586    21621813.497
  22005808.283   -16555512.86249 -12878324.15247  22005808.356    22005817.825
  21078821.742   -24649598.56849 -18843779.44648  21078821.585    21078829.565
  21658270.236   -21607397.63049 -16782680.64747  21658270.471    21658277.873
 02  4  4  2  2 30.0000000  0  9G14G18G31G17G 9G15G 3G21G29
  20766608.318   -21699168.25249 -15785827.59448  20766608.256    20766615.384
  22011177.099   -16305381.49649 -12671031.16847  22011177.049    22011184.083
  22853646.468   -11259455.57849  -8447385.21146  22853646.160    22853656.408
  22526613.899   -13192443.71349  -9951505.91846  22526613.730    22526624.718
  23169992.514    -9326084.68149  -7232611.34746  23169992.678    23170002.852
  21635400.287   -20163035.54549 -15054851.53447  21635399.964    21635408.891
  22013180.906   -16516769.82949 -12848134.78847  22013180.922    22013190.414
  21078969.570   -24648821.48349 -18843173.89548  21078969.423    21078977.396
  21671500.648   -21537871.53649 -16728504.47847  21671500.862    21671508.285
 02  4  4  2  3  0.0000000  0  9G14G18G31G17G 9G15G 3G21G29
  20756643.621   -21751532.79749 -15826631.05848  20756643.565    20756650.683
  22022094.290   -16248011.13649 -12626326.99347  22022094.251    22022101.275
  22849092.897   -11283384.17749  -8466030.81846  22849092.653    22849102.898
  22542667.639   -13108080.99049  -9885768.82946  22542667.506    22542678.579
  23172773.471    -9311471.16749  -7221224.12246  23172773.572    23172783.577
  21649063.276   -20091235.91149 -14998903.81547  21649062.985    21649071.962
  22020645.542   -16477542.85249 -12817568.32647  22020645.544    22020655.106
  21079143.617   -24647906.64349 -18842461.00048  21079143.483    21079151.465
  21684789.461   -21468038.35349 -16674089.02047  21684789.673    21684797.090
 02  4  4  2  3 30.0000000  0  9G14G18G31G17G 9G15G 3G21G29
  20746770.989   -21803413.75049 -15867057.69948  20746770.909    20746778.006
  22033032.979   -16190528.31549 -12581535.18747  22033032.909    22033039.920
  22844646.315   -11306750.53849  -8484238.30246  22844646.111    22844656.415
  22558780.721   -13023406.58849  -9819788.86646  22558780.491    22558791.583
  23175667.277    -9296264.82649  -7209374.97046  23175667.329    23175677.092
  21662793.842   -20019081.40449 -14942679.56047  21662793.560    21662802.546
  22028201.881   -16437833.86649 -12786626.27647  22028201.863    22028211.470
  21079343.855   -24646854.20849 -18841640.88748  21079343.714    21079351.688
  21698136.382   -21397899.99949 -16619435.77047  21698136.603    21698144.011
 02  4  4  2  4  0.0000000  0  9G14G18G31G17G 9G15G 3G21G29
  20736990.547   -21854810.11449 -15907106.74148  20736990.470    20736997.551
  22043992.994   -16132933.15049 -12536655.84147  22043992.882    22043999.921
  22840306.981   -11329554.03049  -8502007.21246  22840306.705    22840316.990
  22574952.990   -12938421.05649  -9753566.45846  22574952.785    22574963.935
  23178673.942    -9280465.17649  -7197063.50146  23178673.998    23178683.709
  21676591.884   -19946572.20649 -14886178.92147  21676591.628    21676600.617
  22035849.613   -16397644.51249 -12755309.92047  22035849.619    22035859.283
  21079570.324   -24645663.87449 -18840713.33348  21079570.197    21079578.164
  21711540.884   -21327458.94649 -16564546.64947  21711541.093    21711548.504
 02  4  4  2  4 30.0000000  0  9G14G18G31G17G 9G15G 3G21G29
  20727302.398   -21905721.37149 -15946777.77448  20727302.317    20727309.370
  22054974.230   -16075226.25249 -12491689.43647  22054974.149    22054981.192
  22836074.654   -11351794.53749  -8519337.41646  22836074.435    22836084.717
  22591184.159   -12853125.70049  -9687102.66446  22591183.989    22591195.059
  23181793.474    -9264072.28749  -7184289.75546  23181793.568    23181803.257
  21690457.288   -19873709.28949 -14829402.65647  21690456.989    21690466.068
  22043588.414   -16356976.88949 -12723620.87947  22043588.441    22043598.055
  21079823.018   -24644335.90249 -18839678.52248  21079822.882    21079830.800
  21725002.534   -21256717.50449 -16509423.44847  21725002.744    21725010.144
 02  4  4  2  5  0.0000000  0  9G14G18G31G17G 9G15G 3G21G29
  20717706.844   -21956146.01149 -15986069.63148  20717706.770    20717713.803
  22065976.730   -16017407.73349 -12446636.05847  22065976.652    22065983.706
  22831949.710   -11373471.12349  -8536228.20946  22831949.490    22831959.732
  22607474.287   -12767520.90749  -9620397.72646  22607474.131    22607485.191
  23185025.972    -9247085.95449  -7171053.60346  23185026.040    23185035.613
  21704389.833   -19800493.34649 -14772351.33347  21704389.563    21704398.648
  22051417.914   -16315832.47249 -12691560.30747  22051417.951    22051427.594
  21080101.985   -24642869.83949 -18838536.10348  21080101.869    21080109.736
  21738521.028   -21185677.57249 -16454067.67147  21738521.225    21738528.617
 02  4  4  2  5 30.0000000  0  9G14G18G31G17G 9G15G 3G21G29
  20708203.967   -22006083.74449 -16024982.08248  20708203.889    20708210.921
  22077000.335   -15959478.27049 -12401496.22747  22077000.261    22077007.321
  22827932.006   -11394583.98849  -8552679.73946  22827931.782    22827942.101
  22623822.947   -12681608.15249  -9553452.82146  22623822.853    22623833.912
  23188371.221    -9229506.60449  -7157355.33346  23188371.334    23188380.859
  21718389.445   -19726925.40049 -14715025.71947  21718389.142    21718398.176
  22059337.747   -16274213.63849 -12659130.06947  22059337.768    22059347.422
  21080407.094   -24641266.47049 -18837286.69248  21080406.948    21080414.797
  21752095.802   -21114341.84049 -16398481.39847  21752095.987    21752103.398
 02  4  4  2  6  0.0000000  0  9G14G18G31G17G 9G15G 3G21G29
  20698793.805   -22055534.08249 -16063514.73848  20698793.743    20698800.765
  22088044.903   -15901438.48749 -12356270.42647  22088044.845    22088051.906
  22824021.607   -11415132.95149  -8568691.86146  22824021.409    22824031.692
  22640230.024   -12595388.58549  -9486268.86746  22640229.945    22640241.112
  23191829.219    -9211334.49649  -7143195.20346  23191829.291    23191838.826
  21732455.713   -19653006.36749 -14657426.52847  21732455.454    21732464.524
  22067347.365   -16232122.76049 -12626331.99647  22067347.413    22067357.034
  21080738.295   -24639525.93149 -18835930.39648  21080738.159    21080745.983
  21765726.366   -21042712.86349 -16342666.62047  21765726.551    21765733.929
 02  4  4  2  6 30.0000000  0  9G14G18G31G17G 9G15G 3G21G29
  20689476.760   -22104495.17549 -16101666.16348  20689476.693    20689483.723
  22099110.633   -15843287.66549 -12310958.10447  22099110.574    22099117.665
  22820218.754   -11435116.52849  -8584263.42946  22820218.632    22820228.868
  22656695.674   -12508862.11249  -9418845.73546  22656695.516    22656706.626
  23195400.113    -9192568.45149  -7128572.26346  23195400.179    23195409.715
  21746588.932   -19578736.27449 -14599553.76947  21746588.630    21746597.729
  22075446.664   -16189560.72549 -12593166.79547  22075446.726    22075456.348
  21081095.786   -24637647.28949 -18834466.48248  21081095.631    21081103.484
  21779412.442   -20970791.90249 -16286624.31747  21779412.656    21779420.048
 02  4  4  2  7  0.0000000  0  9G14G18G31G17G 9G15G 3G21G29
  20680252.637   -22152967.70149 -16139436.88748  20680252.569    20680259.605
  22110197.116   -15785027.74049 -12265560.76047  22110197.059    22110204.192
  22816523.435   -11454535.72149  -8599395.20646  22816523.230    22816533.419
  22673218.968   -12422031.28549  -9351185.43446  22673218.837    22673230.110
  23199083.681    -9173210.37949  -7113488.00246  23199083.719    23199093.363
  21760788.585   -19504117.22549 -14541409.09647  21760788.200    21760797.301
  22083634.947   -16146531.23349 -12559637.34047  22083635.008    22083644.573
  21081479.365   -24635631.63449 -18832895.81348  21081479.206    21081487.043
  21793153.436   -20898582.50349 -16230357.25847  21793153.664    21793161.043
 02  4  4  2  7 30.0000000  0  9G14G18G31G17G 9G15G 3G21G29
  20671121.881   -22200949.82349 -16176825.47748  20671121.800    20671128.840
  22121304.496   -15726657.82149 -12220077.71047  22121304.460    22121311.586
  22812935.733   -11473389.05249  -8614086.05546  22812935.543    22812945.671
  22689800.363   -12334896.06349  -9283287.94046  22689800.169    22689811.464
  23202880.070    -9153258.92549  -7097941.37046  23202880.131    23202889.991
  21775054.608   -19429148.85549 -14482992.21147  21775054.234    21775063.337
  22091912.133   -16103034.90049 -12525744.11547  22091912.187    22091921.673
  21081889.140   -24633478.02249 -18831217.64948  21081888.992    21081896.828
  21806949.067   -20826085.96049 -16173866.45047  21806949.313    21806956.676
 02  4  4  2  8  0.0000000  0  9G14G18G31G17G 9G15G 3G21G29
  20662084.452   -22248441.63749 -16213832.01348  20662084.367    20662091.381
  22132432.618   -15668179.37549 -12174510.08947  22132432.576    22132439.657
  22809455.666   -11491677.02949  -8628336.38746  22809455.462    22809465.509
  22706439.419   -12247458.14649  -9215154.55446  22706439.259    22706450.499
  23206789.391    -9132715.16549  -7081933.21846  23206789.474    23206799.319
  21789386.727   -19353832.91849 -14424304.52547  21789386.442    21789395.525
  22100277.497   -16059074.44749 -12491489.24047  22100277.546    22100287.061
  21082325.088   -24631187.11649 -18829432.50048  21082324.930    21082332.771
  21820798.790   -20753305.41749 -16117154.34647  21820799.025    21820806.390
 02  4  4  2  8 30.0000000  0  9G14G18G31G17G 9G15G 3G21G29
  20653140.371   -22295442.90949 -16250456.31248  20653140.279    20653147.245
  22143581.272   -15609592.84749 -12128858.25847  22143581.248    22143588.342
  22806083.157   -11509399.72149  -8642146.21746  22806082.937    22806092.992
  22723135.750   -12159718.86349  -9146786.32746  22723135.580    22723146.861
  23210811.368    -9111579.60049  -7065463.90546  23210811.459    23210821.276
  21803784.799   -19278170.60249 -14365346.91647  21803784.494    21803793.616
  22108730.740   -16014652.43849 -12456874.70847  22108730.814    22108740.347
  21082787.042   -24628759.34549 -18827540.69848  21082786.890    21082794.718
  21834701.984   -20680243.44449 -16060222.94947  21834702.250    21834709.649
 02  4  4  2  9  0.0000000  0  9G14G18G31G17G 9G15G 3G21G29
  20644289.815   -22341952.67049 -16286697.61848  20644289.736    20644296.645
  22154750.508   -15550897.99349 -12083122.01247  22154750.515    22154757.624
  22802818.202   -11526556.78849  -8655515.32146  22802817.988    22802828.117
  22739889.332   -12071679.18049  -9078184.00246  22739889.112    22739900.287
  23214946.066    -9089852.10249  -7048533.32946  23214946.147    23214955.897
  21818248.729   -19202162.31649 -14306119.75147  21818248.411    21818257.569
  22117271.436   -15969770.66649 -12421901.92247  22117271.482    22117281.067
  21083275.152   -24626194.24749 -18825541.89048  21083274.982    21083282.825
  21848658.362   -20606902.10549 -16003073.86447  21848658.638    21848666.024
 02  4  4  2  9 30.0000000  0  9G14G18G31G17G 9G15G 3G21G29
  20635533.123   -22387969.20449 -16322554.59048  20635533.048    20635539.936
  22165940.434   -15492094.59049 -12037301.18047  22165940.429    22165947.497
  22799661.163   -11543147.12649  -8668442.80046  22799660.924    22799671.079
  22756699.909   -11983339.14449  -9009347.64946  22756699.784    22756710.883
  23219193.416    -9067531.90249  -7031140.94046  23219193.467    23219203.213
  21832778.403   -19125808.28349 -14246623.14747  21832778.122    21832787.286
  22125899.285   -15924430.40049 -12386571.86347  22125899.409    22125909.094
  21083789.376   -24623491.84349 -18823436.10148  21083789.206    21083797.041
  21862667.680   -20533282.76949 -15945708.15547  21862667.930    21862675.340
 02  4  4  2 10  0.0000000  0  9G14G18G31G17G 9G15G 3G21G29
  20626870.216   -22433492.94449 -16358027.57548  20626870.125    20626876.977
  22177150.851   -15433183.69249 -11991396.60147  22177150.778    22177157.914
  22796611.815   -11559171.27149  -8680929.09146  22796611.634    22796621.692
  22773567.336   -11894700.80949  -8940278.86346  22773567.147    22773578.239
  23223553.392    -9044620.21649  -7013287.65146  23223553.508    23223563.146
  21847373.639   -19049109.99649 -14186858.27647  21847373.348    21847382.612
  22134613.954   -15878634.55849 -12350886.81947  22134614.056    22134623.741
  21084329.689   -24620652.34649 -18821223.47948  21084329.523    21084337.349
  21876729.347   -20459388.55449 -15888128.25347  21876729.515    21876736.949
 02  4  4  2 10 30.0000000  0  9G14G18G31G17G 9G15G 3G21G29
  20618301.095   -22478523.74549 -16393116.44548  20618300.987    20618307.830
  22188381.432   -15374166.49849 -11945409.17746  22188381.383    22188388.504
  22793670.237   -11574629.69849  -8692974.56946  22793670.030    22793679.999
  22790491.225   -11805765.73749  -8870978.84346  22790491.001    22790502.070
  23228025.682    -9021117.90549  -6994974.09446  23228025.753    23228035.574
  21862034.064   -18972069.10549 -14126826.43947  21862033.769    21862043.046
  22143414.874   -15832385.85349 -12314848.88547  22143414.913    22143424.584
  21084895.980   -24617676.10749 -18818904.30748  21084895.810    21084903.657
  21890842.674   -20385222.50149 -15830336.52747  21890842.865    21890850.277
 02  4  4  2 11  0.0000000  0  9G14G18G31G17G 9G15G 3G21G29
  20609826.034   -22523060.10749 -16427820.04048  20609825.945    20609832.785
  22199632.344   -15315042.45449 -11899338.50546  22199632.295    22199639.426
  22790836.316   -11589521.58349  -8704578.58646  22790836.103    22790846.119
  22807471.399   -11716534.27649  -8801447.88046  22807471.226    22807482.364
  23232610.397    -8997024.49149  -6976199.96646  23232610.479    23232620.369
  21876759.687   -18894685.83249 -14066527.81547  21876759.405    21876768.652
  22152301.665   -15785685.64149 -12278459.12847  22152301.720    22152311.363
  21085488.407   -24614562.66549 -18816478.22248  21085488.240    21085496.100
  21905007.498   -20310785.93149 -15772334.01047  21905007.689    21905015.093
 02  4  4  2 11 30.0000000  0  9G14G18G31G17G 9G15G 3G21G29
  20601445.136   -22567101.70249 -16462138.09848  20601445.056    20601451.853
  22210903.573   -15255811.77449 -11853184.73446  22210903.541    22210910.682
  22788110.234   -11603846.59349  -8715740.88346  22788110.100    22788120.092
  22824507.864   -11627007.62749  -8731686.89746  22824507.652    22824518.776
  23237307.458    -8972340.72749  -6956965.82146  23237307.537    23237317.444
  21891550.319   -18816961.20049 -14005963.18147  21891549.966    21891559.191
  22161273.979   -15738536.14449 -12241719.29447  22161274.019    22161283.691
  21086106.963   -24611311.98049 -18813945.20548  21086106.792    21086114.670
  21919223.370   -20236081.27449 -15714122.60347  21919223.537    21919230.913
 02  4  4  2 12  0.0000000  0  9G14G18G31G17G 9G15G 3G21G29
  20593158.402   -22610648.54749 -16496070.63448  20593158.313    20593165.105
  22222194.971   -15196475.36749 -11806948.57046  22222194.885    22222202.082
  22785492.104   -11617605.23749  -8726461.84946  22785491.962    22785501.824
  22841600.005   -11537187.32149  -8661697.10245  22841599.820    22841611.043
  23242116.740    -8947067.07449  -6937272.03046  23242116.758    23242126.733
  21906405.531   -18738896.47749 -13945133.54947  21906405.201    21906414.454
  22170331.220   -15690940.11449 -12204631.50347  22170331.249    22170340.917
  21086751.549   -24607924.47249 -18811305.56848  21086751.386    21086759.274
  21933489.679   -20161111.39649 -15655704.52547  21933489.851    21933497.207
 02  4  4  2 12 30.0000000  0  9G14G18G31G17G 9G15G 3G21G29
  20584965.990   -22653699.72049 -16529616.92748  20584965.885    20584972.672
  22233506.375   -15137033.25549 -11760630.04646  22233506.284    22233513.553
  22782981.792   -11630797.08249  -8736741.15746  22782981.630    22782991.460
  22858747.990   -11447074.35949  -8591479.26146  22858747.848    22858759.062
  23247038.094    -8921203.67649  -6917118.70545  23247038.131    23247048.151
  21921325.381   -18660492.23149 -13884039.35147  21921325.032    21921334.271
  22179473.090   -15642899.44949 -12167197.24347  22179473.130    22179482.802
  21087422.280   -24604399.78049 -18808559.03748  21087422.102    21087429.974
  21947806.103   -20085878.06249 -15597081.15447  21947806.290    21947813.628
 02  4  4  2 13  0.0000000  0  9G14G18G31G17G 9G15G 3G21G29
  20576868.070   -22696254.24949 -16562776.23148  20576867.981    20576874.777
  22244837.945   -15077485.40749 -11714229.12446  22244837.869    22244845.107
  22780579.216   -11643422.17849  -8746578.85746  22780579.073    22780588.954
  22875951.506   -11356669.52949  -8521033.99545  22875951.309    22875962.453
  23252071.633    -8894750.82049  -6896506.06245  23252071.736    23252081.786
  21936309.673   -18581749.16449 -13822681.13647  21936309.329    21936318.571
  22188699.136   -15594416.11549 -12129418.05447  22188699.164    22188708.880
  21088119.134   -24600737.65349 -18805705.41548  21088118.959    21088126.797
  21962172.232   -20010383.47349 -15538254.21347  21962172.424    21962179.749
 02  4  4  2 13 30.0000000  0  9G14G18G31G17G 9G15G 3G21G29
  20568864.679   -22738311.97649 -16595548.42048  20568864.591    20568871.381
  22256189.541   -15017832.32349 -11667746.19946  22256189.501    22256196.690
  22778284.529   -11655480.47649  -8755974.88646  22778284.342    22778294.244
  22893210.303   -11265974.07349  -8450362.26645  22893210.081    22893221.231
  23257217.370    -8867709.11849  -6875434.56146  23257217.543    23257227.670
  21951358.306   -18502668.51849 -13761059.88847  21951357.941    21951367.125
  22198008.972   -15545492.74949 -12091295.97647  22198009.008    22198018.718
  21088842.138   -24596938.21649 -18802744.80048  21088841.959    21088849.797
  21976587.639   -19934630.02249 -15479225.56247  21976587.815    21976595.165
 02  4  4  2 14  0.0000000  0  9G14G18G31G17G 9G15G 3G21G29
  20560955.844   -22779873.00349 -16627933.57648  20560955.757    20560962.520
  22267561.006   -14958074.93949 -11621182.00346  22267560.948    22267568.136
  22776097.664   -11666972.04749  -8764929.31046  22776097.486    22776107.371
  22910524.043   -11174989.62649  -8379465.33345  22910523.864    22910535.089
  23262475.104    -8840079.25149  -6853904.78946  23262475.234    23262485.550
  21966470.935   -18423251.40249 -13699176.43247  21966470.549    21966479.793
  22207402.136   -15496131.52649 -12052832.70447  22207402.145    22207411.878
  21089591.194   -24593001.68049 -18799677.34848  21089591.010    21089598.865
  21991051.821   -19858620.30649 -15419997.22447  21991051.981    21991059.334
 02  4  4  2 14 30.0000000  0  9G14G18G31G17G 9G15G 3G21G29
  20553141.546   -22820936.88749 -16659931.34748  20553141.486    20553148.242
  22278952.259   -14898213.57249 -11574536.78146  22278952.192    22278959.346
  22774018.528   -11677897.66449  -8773442.73146  22774018.355    22774028.250
  22927892.532   -11083717.81549  -8308344.47945  22927892.370    22927903.632
  23267844.724    -8811861.99249  -6831917.30446  23267844.837    23267855.107
  21981647.245   -18343499.23649 -13637031.92447  21981646.902    21981656.188
  22216877.968   -15446335.35949 -12014030.52647  22216878.025    22216887.807
  21090366.255   -24588928.51349 -18796503.43448  21090366.093    21090373.973
  22005564.156   -19782357.23249 -15360571.46547  22005564.355    22005571.807
 02  4  4  2 15  0.0000000  0  9G14G18G31G17G 9G15G 3G21G29
  20545422.005   -22861503.06349 -16691541.29448  20545421.940    20545428.674
  22290363.379   -14838247.98549 -11527810.35246  22290363.333    22290370.456
  22772047.196   -11688256.95449  -8781514.86046  22772046.990    22772056.941
  22945315.549   -10992159.32949  -8237000.27845  22945315.408    22945326.687
  23273326.038    -8783057.60249  -6809472.27746  23273326.201    23273336.368
  21996887.207   -18263412.69349 -13574626.84747  21996886.882    21996896.184
  22226436.290   -15396106.01149 -11974890.79047  22226436.378    22226446.128
  21091167.486   -24584718.03749 -18793222.52848  21091167.309    21091175.190
  22020124.441   -19705842.19549 -15300949.37547  22020124.675    22020132.134
 02  4  4  2 15 30.0000000  0  9G14G18G31G17G 9G15G 3G21G29
  20537797.232   -22901571.37349 -16722763.29748  20537797.159    20537803.857
  22301794.165   -14778179.14649 -11481003.46446  22301794.089    22301801.196
  22770183.508   -11698050.28749  -8789145.98346  22770183.340    22770193.259
  22962792.958   -10900315.62249  -8165433.78645  22962792.759    22962803.770
  23278919.101    -8753667.13449  -6786570.58846  23278919.239    23278928.998
  22012190.561   -18182993.19749 -13511962.31447  22012190.238    22012199.455
  22236076.593   -15345446.11949 -11935415.57147  22236076.704    22236086.437
  21091994.646   -24580371.19249 -18789835.35848  21091994.476    21092002.369
  22034732.116   -19629078.25949 -15241133.32847  22034732.352    22034739.838
 02  4  4  2 16  0.0000000  0  9G14G18G31G17G 9G15G 3G21G29
  20530267.248   -22941141.56049 -16753597.15448  20530267.162    20530273.820
  22313244.502   -14718007.16949 -11434116.21446  22313244.412    22313251.555
  22768427.559   -11707277.95149  -8796336.33346  22768427.386    22768437.269
  22980324.192   -10808188.19849  -8093646.24345  22980324.043    22980335.224
  23284623.614    -8723691.24549  -6763212.70146  23284623.680    23284633.171
  22027557.013   -18102241.85749 -13449039.19746  22027556.710    22027565.945
  22245798.353   -15294358.30149 -11895606.90747  22245798.424    22245808.136
  21092847.816   -24575887.60549 -18786341.63848  21092847.665    21092855.527
  22049386.741   -19552067.71549 -15181125.12447  22049386.957    22049394.480
 02  4  4  2 16 30.0000000  0  9G14G18G31G17G 9G15G 3G21G29
  20522832.069   -22980213.44549 -16784042.72948  20522831.979    20522838.594
  22324714.344   -14657732.74849 -11387149.13946  22324714.242    22324721.439
  22766779.173   -11715940.34349  -8803086.20946  22766778.957    22766788.911
  22997909.301   -10715778.36449  -8021638.61345  22997909.069    22997920.257
  23290439.147    -8693130.78649  -6739399.30646  23290439.155    23290448.394
  22042986.310   -18021159.89049 -13385858.44246  22042986.059    22042995.314
  22255601.030   -15242844.94449 -11855466.65147  22255601.118    22255610.792
  21093727.062   -24571266.96849 -18782741.11948  21093726.927    21093734.785
  22064087.804   -19474813.03349 -15120926.68647  22064088.010    22064095.533
 02  4  4  2 17  0.0000000  0  9G14G18G31G17G 9G15G 3G21G29
  20515492.176   -23018784.86449 -16814098.32648  20515492.070    20515498.663
  22336203.952   -14597354.23049 -11340100.93046  22336203.868    22336211.098
  22765238.620   -11724035.77749  -8809394.29646  22765238.423    22765248.385
  23015548.274   -10623085.56749  -7949410.49245  23015548.008    23015559.217
  23296365.794    -8661984.29349  -6715129.29445  23296365.832    23296375.046
  22058478.861   -17939746.43049 -13322419.36446  22058478.573    22058487.773
  22265484.628   -15190906.41749 -11814995.09147  22265484.706    22265494.340
  21094632.734   -24566507.65349 -18779032.53948  21094632.580    21094640.432
  22078835.259   -19397314.47749 -15060538.20647  22078835.470    22078843.043
 02  4  4  2 17 30.0000000  0  9G14G18G31G17G 9G15G 3G21G29
  20508247.166   -23056857.38949 -16843765.17848  20508247.076    20508253.636
  22347712.994   -14536873.86449 -11292973.36846  22347712.920    22347720.133
  22763805.512   -11731566.32549  -8815262.22246  22763805.355    22763815.295
  23033240.355   -10530112.91749  -7876964.34145  23033240.090    23033251.467
  23302403.563    -8630254.43049  -6690404.68845  23302403.652    23302412.891
  22074033.826   -17858004.53649 -13258724.40646  22074033.555    22074042.784
  22275448.290   -15138547.31349 -11774195.81947  22275448.348    22275458.015
  21095564.522   -24561611.08549 -18775217.01348  21095564.355    21095572.214
  22093628.294   -19319576.54449 -14999963.20047  22093628.519    22093636.091
 02  4  4  2 18  0.0000000  0  9G14G18G31G17G 9G15G 3G21G29
  20501097.266   -23094430.11849 -16873042.57348  20501097.186    20501103.712
  22359241.488   -14476291.06949 -11245765.98946  22359241.459    22359248.622
  22762480.058   -11738531.53549  -8820689.62046  22762479.873    22762489.793
  23050985.641   -10436861.02749  -7804300.54345  23050985.455    23050996.659
  23308552.533    -8597941.38049  -6665225.65745  23308552.645    23308561.939
  22089651.204   -17775934.63649 -13194773.88046  22089650.923    22089660.287
  22285491.599   -15085769.29749 -11733070.11447  22285491.705    22285501.349
  21096522.507   -24556576.54149 -18771293.97448  21096522.362    21096530.199
  22108466.623   -19241600.64949 -14939202.77747  22108466.817    22108474.398
 02  4  4  2 18 30.0000000  0  9G14G18G31G17G 9G15G 3G21G29
  20494042.659   -23131502.26349 -16901929.90248  20494042.550    20494049.095
  22370789.453   -14415605.95949 -11198478.89246  22370789.434    22370796.603
  22761262.172   -11744931.59349  -8825676.63746  22761261.956    22761271.888
  23068783.721   -10343330.99349  -7731420.07345  23068783.604    23068794.999
  23314812.497    -8565045.70649  -6639592.62646  23314812.601    23314821.842
  22105330.906   -17693537.42449 -13130568.26846  22105330.578    22105339.894
  22295614.238   -15032574.51349 -11691619.65847  22295614.317    22295624.052
  21097506.811   -24551404.10649 -18767263.48448  21097506.670    21097514.454
  22123349.855   -19163388.89549 -14878258.56747  22123350.044    22123357.669
 02  4  4  2 19  0.0000000  0  9G14G18G31G17G 9G15G 3G21G29
  20487083.181   -23168074.42949 -16930427.63248  20487083.078    20487089.637
  22382356.760   -14354819.36049 -11151112.70446  22382356.717    22382363.884
  22760151.643   -11750767.12349  -8830223.77746  22760151.475    22760161.386
  23086634.541   -10249524.53549  -7658324.16545  23086634.396    23086645.782
  23321183.160    -8531568.53749  -6613506.49646  23321183.190    23321192.359
  22121072.535   -17610814.54649 -13066108.91746  22121072.211    22121081.563
  22305815.586   -14978965.97249 -11649846.79846  22305815.665    22305825.443
  21098517.232   -24546094.45249 -18763126.06548  21098517.071    21098524.845
  22138277.439   -19084944.12249 -14817132.77247  22138277.619    22138285.228
 02  4  4  2 19 30.0000000  0  9G14G18G31G17G 9G15G 3G21G29
  20480218.924   -23204146.10449 -16958535.37448  20480218.830    20480225.355
  22393943.432   -14293931.35349 -11103667.50346  22393943.355    22393950.487
  22759148.581   -11756038.24049  -8834331.10046  22759148.420    22759158.391
  23104537.641   -10155442.87849  -7585013.81845  23104537.552    23104548.984
  23327664.078    -8497510.76949  -6586967.94845  23327664.114    23327673.371
  22136875.920   -17527767.08849 -13001396.65146  22136875.600    22136884.954
  22316095.352   -14924945.72949 -11607753.12646  22316095.379    22316105.160
  21099553.878   -24540646.76649 -18758881.08948  21099553.743    21099561.470
  22153248.909   -19006268.45449 -14755827.06247  22153249.075    22153256.716
 02  4  4  2 20  0.0000000  0  9G14G18G31G17G 9G15G 3G21G29
  20473449.999   -23239716.74849 -16986252.70948  20473449.896    20473456.397
  22405549.354   -14232942.02849 -11056143.35946  22405549.291    22405556.378
  22758252.899   -11760745.04249  -8837998.71546  22758252.719    22758262.753
  23122492.912   -10061087.05749  -7511489.87545  23122492.761    23122504.427
  23334255.425    -8462872.31249  -6559976.92545  23334255.521    23334264.667
  22152740.968   -17444395.80149 -12936432.06346  22152740.647    22152750.009
  22326452.947   -14870515.92449 -11565340.32746  22326453.018    22326462.811
  21100616.835   -24535060.96649 -18754528.49748  21100616.667    21100624.393
  22168264.017   -18927363.70049 -14694342.85247  22168264.160    22168271.795
 02  4  4  2 20 30.0000000  0  9G14G18G31G17G 9G15G 3G21G29
  20466776.410   -23274786.46049 -17013579.70248  20466776.306    20466782.789
  22417174.420   -14171851.76649 -11008540.56046  22417174.393    22417181.490
  22757464.506   -11764888.17749  -8841227.09046  22757464.285    22757474.285
  23140500.210    -9966458.53949  -7437753.39745  23140499.995    23140511.570
  23340956.994    -8427654.68949  -6532534.58545  23340957.161    23340966.208
  22168667.347   -17360702.14249 -12871216.25946  22168667.041    22168676.397
  22336888.032   -14815679.40149 -11522610.60546  22336888.104    22336897.947
  21101706.064   -24529337.05849 -18750068.28848  21101705.903    21101713.601
  22183322.201   -18848232.60449 -14632682.26447  22183322.356    22183330.015
 02  4  4  2 21  0.0000000  0  9G14G18G31G17G 9G15G 3G21G29
  20460198.185   -23309355.18649 -17040516.31848  20460198.080    20460204.541
  22428818.675   -14110661.06649 -10960859.50646  22428818.582    22428825.695
  22756783.188   -11768468.28249  -8844016.74846  22756782.987    22756792.964
  23158559.085    -9871558.97949  -7363805.72845  23158558.853    23158570.492
  23347768.953    -8391858.72849  -6504641.60546  23347769.075    23347777.898
  22184654.932   -17276687.53549 -12805750.37046  22184654.564    22184663.842
  22347400.046   -14760438.68449 -11479565.93246  22347400.087    22347409.947
  21102821.588   -24523474.91849 -18745500.36348  21102821.411    21102829.120
  22198422.943   -18768877.51349 -14570847.13547  22198423.141    22198430.733
 02  4  4  2 21 30.0000000  0  9G14G18G31G17G 9G15G 3G21G29
  20453715.243   -23343423.04149 -17067062.64748  20453715.128    20453721.589
  22440481.940   -14049370.46549 -10913100.58346  22440481.838    22440488.884
  22756208.857   -11771485.78449  -8846368.00846  22756208.685    22756218.649
  23176669.290    -9776389.92049  -7289648.06245  23176669.046    23176680.492
  23354690.755    -8355485.75349  -6476299.01446  23354690.854    23354699.470
  22200703.208   -17192353.22949 -12740035.38146  22200702.893    22200712.160
  22357988.461   -14704796.55449 -11436208.46346  22357988.496    22357998.355
  21103963.421   -24517474.42449 -18740824.62948  21103963.250    21103970.962
  22213565.861   -18689301.00449 -14508839.48247  22213566.068    22213573.682
 02  4  4  2 22  0.0000000  0  9G14G18G31G17G 9G15G 3G21G29
  20447327.704   -23376989.44749 -17093218.23348  20447327.620    20447334.061
  22452164.160   -13987979.65249 -10865263.59046  22452164.160    22452171.160
  22755741.680   -11773940.89449  -8848281.04346  22755741.458    22755751.383
  23194830.468    -9680952.39149  -7215281.18845  23194830.214    23194841.783
  23361722.012    -8318536.43649  -6447507.32846  23361722.067    23361730.777
  22216812.251   -17107700.04349 -12674071.88046  22216811.911    22216821.068
  22368652.726   -14648755.25349 -11392539.95146  22368652.764    22368662.656
  21105131.575   -24511335.58449 -18736041.08648  21105131.412    21105139.136
  22228750.544   -18609504.84349 -14446660.66347  22228750.766    22228758.352
 02  4  4  2 22 30.0000000  0  9G14G18G31G17G 9G15G 3G21G29
  20441035.677   -23410054.16049 -17118982.88648  20441035.586    20441041.992
  22463865.578   -13926488.50049 -10817348.43246  22463865.519    22463872.542
  22755381.474   -11775833.88249  -8849756.04746  22755381.227    22755391.089
  23213042.431    -9585247.29349  -7140705.85945  23213042.245    23213053.958
  23368862.566    -8281011.39549  -6418266.99845  23368862.643    23368871.453
  22232981.731   -17022728.98049 -12607860.71846  22232981.427    22232990.599
  22379392.549   -14592316.93849 -11348562.08646  22379392.629    22379402.483
  21106326.134   -24505057.93749 -18731149.38448  21106325.975    21106333.699
  22243976.641   -18529491.17049 -14384312.35547  22243976.835    22243984.451
 02  4  4  2 23  0.0000000  0  9G14G18G31G17G 9G15G 3G21G29
  20434839.138   -23442617.11449 -17144356.55848  20434839.015    20434845.411
  22475585.911   -13864897.58849 -10769355.51346  22475585.855    22475592.903
  22755128.079   -11777165.30749  -8850793.47646  22755127.853    22755137.680
  23231305.177    -9489276.43849  -7065923.40545  23231304.972    23231316.511
  23376112.607    -8242911.70149  -6388578.91445  23376112.714    23376121.603
  22249211.499   -16937441.32649 -12541402.87946  22249211.131    22249220.362
  22390207.426   -14535484.42849 -11304277.04346  22390207.532    22390217.340
  21107547.097   -24498641.46549 -18726149.50848  21107546.969    21107554.676
  22259243.599   -18449262.47949 -14321796.50247  22259243.826    22259251.452
 02  4  4  2 23 30.0000000  0  9G14G18G31G17G 9G15G 3G21G29
  20428738.020   -23474678.44149 -17169339.35448  20428737.909    20428744.289
  22487325.129   -13803207.18849 -10721285.07646  22487325.158    22487332.160
  22754981.487   -11777935.84349  -8851393.85746  22754981.224    22754990.971
  23249618.145    -9393041.23849  -6990935.02845  23249618.034    23249629.575
  23383471.778    -8204238.37449  -6358443.83045  23383471.879    23383480.973
  22265501.272   -16851838.57849 -12474699.50546  22265500.884    22265510.078
  22401096.897   -14478260.14649 -11259686.73746  22401097.003    22401106.789
  21108794.502   -24492086.25149 -18721041.52548  21108794.346    21108802.040
  22274551.152   -18368820.87849 -14259114.73746  22274551.379    22274558.974
 02  4  4  2 24  0.0000000  0  9G14G18G31G17G 9G15G 3G21G29
  20422732.371   -23506238.01049 -17193931.17348  20422732.277    20422738.640
  22499083.315   -13741417.49049 -10673137.26046  22499083.269    22499090.244
  22754941.456   -11778146.17249  -8851557.70146  22754941.152    22754950.862
  23267981.296    -9296543.00949  -6915741.63245  23267981.073    23267992.478
  23390939.926    -8164992.46749  -6327862.59845  23390940.059    23390949.234
  22281850.624   -16765922.02549 -12407751.62446  22281850.305    22281859.485
  22412060.482   -14420646.87449 -11214793.30146  22412060.503    22412070.235
  21110068.430   -24485391.51149 -18715824.82048  21110068.304    21110075.979
  22289898.753   -18288168.77549 -14196268.95346  22289898.924    22289906.551
 02  4  4  2 24 30.0000000  0  9G14G18G31G17G 9G15G 3G21G29
  20416822.237   -23537295.93149 -17218132.09348  20416822.128    20416828.455
  22510860.408   -13679528.68749 -10624912.21546  22510860.356    22510867.286
  22755007.866   -11777796.48349  -8851285.16746  22755007.656    22755017.319
  23286393.933    -9199783.03249  -6840344.33145  23286393.764    23286405.277
  23398516.796    -8125174.79349  -6296835.83845  23398516.924    23398526.374
  22298259.685   -16679692.34449 -12340559.72746  22298259.306    22298268.513
  22423097.529   -14362646.95549 -11169598.59146  22423097.553    22423107.292
  21111368.886   -24478557.37949 -18710499.49548  21111368.754    21111376.415
  22305286.082   -18207308.32249 -14133260.80646  22305286.222    22305293.787
 02  4  4  2 25  0.0000000  0  9G14G18G31G17G 9G15G 3G21G29
  20411007.617   -23567851.70049 -17241941.72348  20411007.514    20411013.847
  22522656.316   -13617540.75449 -10576609.92846  22522656.270    22522663.225
  22755180.868   -11776887.24849  -8850576.63646  22755180.616    22755190.305
  23304856.543    -9102762.47849  -6764743.95345  23304856.304    23304867.867
  23406202.535    -8084786.23249  -6265364.20645  23406202.663    23406211.944
  22314728.036   -16593150.91449 -12273124.96146  22314727.655    22314736.958
  22434207.711   -14304262.58949 -11124104.31246  22434207.771    22434217.456
  21112695.952   -24471583.37949 -18705065.18748  21112695.825    21112703.485
  22320712.630   -18126241.50149 -14070091.86146  22320712.732    22320720.335
 02  4  4  2 25 30.0000000  0  9G14G18G31G17G 9G15G 3G21G29
  20405288.460   -23597905.70049 -17265360.36648  20405288.353    20405294.693
  22534470.907   -13555454.43449 -10528230.97146  22534470.861    22534477.802
  22755460.174   -11775419.61649  -8849432.98546  22755459.903    22755469.580
  23323368.071    -9005483.33249  -6688942.06745  23323367.928    23323379.497
  23413996.377    -8043828.51049  -6233449.06345  23413996.458    23414005.750
  22331255.433   -16506299.41249 -12205448.50746  22331255.014    22331264.319
  22445390.474   -14245497.22749 -11078313.14646  22445390.490    22445400.208
  21114049.569   -24464470.04449 -18699522.29648  21114049.438    21114057.087
  22336177.866   -18044971.02349 -14006764.21946  22336178.036    22336185.586
 02  4  4  2 26  0.0000000  0  9G14G18G31G17G 9G15G 3G21G29
  20399664.747   -23627458.28649 -17288388.29748  20399664.646    20399670.975
  22546304.254   -13493269.86749 -10479775.46546  22546304.219    22546311.224
  22755845.483   -11773394.26949  -8847854.74646  22755845.246    22755854.966
  23341928.710    -8907947.09449  -6612939.87345  23341928.440    23341940.066
  23421898.471    -8002302.94449  -6201091.48345  23421898.527    23421907.753
  22347841.459   -16419138.95049 -12137531.34046  22347841.141    22347850.437
  22456645.113   -14186353.29149 -11032226.99646  22456645.158    22456654.923
  21115429.713   -24457217.28849 -18693870.76548  21115429.572    21115437.226
  22351681.415   -17963499.32149 -13943279.78746  22351681.603    22351689.174
 02  4  4  2 26 30.0000000  0  9G14G18G31G17G 9G15G 3G21G29
  20394136.577   -23656508.76949 -17311024.98248  20394136.483    20394142.782
  22558156.351   -13430986.62449 -10431243.07846  22558156.314    22558163.357
  22756337.065   -11770811.10949  -8845841.86246  22756336.796    22756346.472
  23360537.885    -8810154.55949  -6536737.98045  23360537.715    23360549.313
  23429908.540    -7960209.91849  -6168291.69545  23429908.581    23429917.821
  22364486.171   -16331670.29149 -12069374.01146  22364485.948    22364495.242
  22467971.548   -14126832.80649 -10985847.43546  22467971.617    22467981.418
  21116836.620   -24449823.95249 -18688109.69348  21116836.468    21116844.107
  22367222.897   -17881827.83349 -13879639.66646  22367223.124    22367230.729
 02  4  4  2 27  0.0000000  0  9G14G18G31G17G 9G15G 3G21G29
  20388703.810   -23685057.94649 -17333271.04248  20388703.704    20388710.007
  22570026.970   -13368605.73549 -10382634.60146  22570026.975    22570034.050
  22756934.319   -11767671.84949  -8843395.64546  22756934.152    22756943.773
  23379195.753    -8712107.79949  -6460337.93245  23379195.639    23379206.899
  23438026.413    -7917551.16849  -6135051.10346  23438026.462    23438035.623
  22381189.307   -16243895.27749 -12000978.00046  22381189.035    22381198.397
  22479368.963   -14066939.19149 -10939177.11346  22479368.997    22479378.842
  21118270.113   -24442290.87249 -18682239.73448  21118269.946    21118277.585
  22382801.926   -17799959.57549 -13815846.21646  22382802.139    22382809.742
 02  4  4  2 27 30.0000000  0  9G14G18G31G17G 9G15G 3G21G29
  20383366.416   -23713105.74049 -17355126.41848  20383366.339    20383372.624
  22581916.263   -13306126.96149 -10333949.85446  22581916.294    22581923.398
  22757637.442   -11763976.87649  -8840516.41346  22757637.216    22757646.832
  23397901.582    -8613808.17649  -6383740.95645  23397901.440    23397912.960
  23446251.603    -7874327.80649  -6101370.54746  23446251.667    23446260.917
  22397950.400   -16155815.27549 -11932344.35246  22397950.171    22397959.550
  22490836.882   -14006674.94249 -10892217.97746  22490836.948    22490846.774
  21119730.312   -24434617.44449 -18676260.41448  21119730.155    21119737.768
  22398418.000   -17717896.70249 -13751901.12846  22398418.208    22398425.800
 02  4  4  2 28  0.0000000  0  9G14G18G31G17G 9G15G 3G21G29
  20378124.459   -23740652.18849 -17376591.13448  20378124.388    20378130.655
  22593824.224   -13243550.71749 -10285189.13946  22593824.201    22593831.229
  22758446.208   -11759726.86949  -8837204.69146  22758445.956    22758455.619
  23416655.249    -8515257.28449  -6306948.05345  23416655.177    23416666.490
  23454583.977    -7830541.10049  -6067251.00545  23454583.990    23454593.082
  22414769.420   -16067431.61349 -11863474.05046  22414769.098    22414778.430
  22502374.911   -13946042.55849 -10844971.98946  22502374.940    22502384.757
  21121217.225   -24426803.45349 -18670171.56348  21121217.076    21121224.674
  22414070.688   -17635641.19249 -13687805.93046  22414070.892    22414078.499
 02  4  4  2 28 30.0000000  0 10G25G14G18G31G17G 9G15G 3G21G29
  24569585.922    -5447511.92749  -4229798.77645  24569586.060    24569602.625
  20372976.721   -23767703.57049 -17397670.08648  20372976.642    20372982.891
  22605749.482   -13180883.44249 -10236357.50646  22605749.465    22605756.443
  22759359.221   -11754928.74349  -8833465.85746  22759359.014    22759368.670
  23435455.227    -8416462.48949  -6229965.23045  23435455.052    23435466.666
  23463022.065    -7786198.26249  -6032698.14145  23463022.128    23463031.109
  22431644.676   -15978751.65449 -11794372.88446  22431644.365    22431653.733
  22513981.204   -13885050.86749 -10797446.02746  22513981.275    22513991.108
  21122729.715   -24418855.14749 -18663978.04748  21122729.569    21122737.168
  22429758.473   -17553201.58449 -13623567.27946  22429758.631    22429766.214
 02  4  4  2 29  0.0000000  0 10G25G14G18G31G17G 9G15G 3G21G29
  24550648.315    -5547026.94049  -4307342.38745  24550648.441    24550665.004
  20367924.912   -23794251.02249 -17418356.36848  20367924.809    20367931.046
  22617693.714   -13118115.77049 -10187447.64546  22617693.687    22617700.820
  22760378.138   -11749574.23249  -8829293.49146  22760377.968    22760387.558
  23454303.283    -8317416.28549  -6152786.40145  23454303.103    23454314.652
  23471567.525    -7741291.38749  -5997705.75545  23471567.612    23471576.600
  22448577.874   -15889767.37949 -11725034.58146  22448577.603    22448586.989
  22525657.176   -13823693.11849 -10749634.81946  22525657.302    22525667.122
  21124269.610   -24410762.93849 -18657672.40748  21124269.463    21124277.056
  22445482.570   -17470570.89349 -13559179.73746  22445482.716    22445490.315
 02  4  4  2 29 30.0000000  0 10G25G14G18G31G17G 9G15G 3G21G29
  24531700.771    -5646593.71849  -4384926.31045  24531700.968    24531717.281
  20362968.695   -23820295.52249 -17438650.73748  20362968.620    20362974.871
  22629656.942   -13055248.90049 -10138460.46646  22629656.865    22629663.959
  22761502.623   -11743665.18649  -8824689.01946  22761502.410    22761511.946
  23473198.597    -8218121.05949  -6075413.59945  23473198.302    23473209.973
  23480219.858    -7695823.22949  -5962275.99546  23480219.971    23480228.944
  22465568.559   -15800481.28849 -11655461.09546  22465568.180    22465577.652
  22537402.179   -13761973.24249 -10701541.43346  22537402.271    22537412.024
  21125836.655   -24402527.95949 -18651255.51148  21125836.508    21125844.088
  22461242.354   -17387752.45449 -13494645.90446  22461242.535    22461250.165
 02  4  4  2 30  0.0000000  0 10G25G14G18G31G17G 9G15G 3G21G29
  24512743.684    -5746211.43549  -4462549.90745  24512743.891    24512760.156
  20358108.004   -23845838.45349 -17458554.27048  20358107.935    20358114.200
  22641638.620   -12992284.54249 -10089397.34346  22641638.580    22641645.691
  22762732.248   -11737203.50349  -8819653.91346  22762732.029    22762741.547
  23492140.761    -8118579.96349  -5997849.18345  23492140.549    23492152.087
  23488978.544    -7649796.09149  -5926410.66646  23488978.669    23488987.725
  22482616.144   -15710895.80649 -11585654.30146  22482615.749    22482625.262
  22549215.223   -13699895.12249 -10653168.90646  22549215.363    22549225.126
  21127430.835   -24394150.63149 -18644727.69148  21127430.684    21127438.237
  22477037.194   -17304749.64349 -13429968.39046  22477037.401    22477045.058
 02  4  4  2 30 30.0000000  0 10G25G14G18G31G17G 9G15G 3G21G29
  24493777.566    -5845877.00949  -4540210.86345  24493777.752    24493793.761
  20353342.696   -23870880.06849 -17478067.16448  20353342.614    20353348.876
  22653638.858   -12929222.80349 -10040258.32846  22653638.792    22653645.969
  22764066.845   -11730190.04749  -8814188.86146  22764066.584    22764076.132
  23511129.407    -8018793.93349  -5920093.93645  23511129.154    23511140.786
  23497843.392    -7603211.06149  -5890110.66145  23497843.412    23497852.547
  22499720.456   -15621012.08449 -11515615.09246  22499720.167    22499729.703
  22561096.070   -13637461.28549 -10604519.19146  22561096.168    22561105.940
  21129052.083   -24385630.77749 -18638088.81948  21129051.942    21129059.446
  22492866.853   -17221564.30049 -13365148.65646  22492867.042    22492874.697
 02  4  4  2 31  0.0000000  0 10G25G14G18G31G17G 9G15G 3G21G29
  24474802.765    -5945588.20949  -4617907.31745  24474802.957    24474818.915
  20348672.649   -23895421.16949 -17497190.04248  20348672.567    20348678.821
  22665657.495   -12866064.26449  -9991043.88346  22665657.452    22665664.636
  22765506.203   -11722626.16149  -8808294.90746  22765505.958    22765515.476
  23530164.378    -7918765.27949  -5842149.58045  23530164.216    23530175.759
  23506813.793    -7556070.17649  -5853377.48145  23506813.901    23506823.132
  22516881.209   -15530832.20749 -11445345.09946  22516880.898    22516890.312
  22573043.899   -13574675.17949 -10555594.98946  22573043.947    22573053.804
  21130700.416   -24376968.90349 -18631339.28548  21130700.251    21130707.720
  22508730.647   -17138199.47349 -13300189.05946  22508730.860    22508738.500
 02  4  4  2 31 30.0000000  0 10G25G14G18G31G17G 9G15G 3G21G29
  24455819.522    -6045342.98949  -4695637.73645  24455819.760    24455835.557
  20344097.787   -23919461.99949 -17515923.10348  20344097.694    20344103.960
  22677694.641   -12802809.09949  -9941754.12246  22677694.549    22677701.639
  22767050.041   -11714512.92849  -8801972.89946  22767049.829    22767059.352
  23549245.191    -7818495.55449  -5764017.43445  23549244.878    23549256.537
  23515889.913    -7508374.73849  -5816212.19745  23515889.998    23515899.341
  22534097.947   -15440357.70749 -11374845.54646  22534097.638    22534107.123
  22585058.253   -13511539.51949 -10506398.41846  22585058.289    22585068.191
  21132375.767   -24368164.66049 -18624478.82048  21132375.611    21132383.072
  22524628.286   -17054657.24849 -13235091.22846  22524628.464    22524636.058
 02  4  4  2 32  0.0000000  0 10G25G14G18G31G17G 9G15G 3G21G29
  24436828.562    -6145138.75749  -4773400.15845  24436828.836    24436844.348
  20339618.145   -23943002.44749 -17534266.26248  20339618.045    20339624.294
  22689750.154   -12739457.24549  -9892389.06546  22689750.042    22689757.122
  22768698.193   -11705851.21049  -8795223.50246  22768698.018    22768707.613
  23568371.524    -7717985.93849  -5685698.33245  23568371.216    23568382.922
  23525071.384    -7460126.16549  -5778615.91345  23525071.462    23525080.663
  22551370.531   -15349589.78249 -11304117.34946  22551370.291    22551379.832
  22597138.558   -13448056.86749 -10456931.44646  22597138.586    22597148.566
  21134078.317   -24359217.60049 -18617507.06848  21134078.142    21134085.590
  22540559.252   -16970939.76249 -13169856.84346  22540559.415    22540567.003
 02  4  4  2 32 30.0000000  0 10G25G14G18G31G17G 9G15G 3G21G29
  24417830.220    -6244973.65549  -4851193.00745  24417830.508    24417845.823
  20335233.535   -23966043.47149 -17552220.24948  20335233.461    20335239.672
  22701823.912   -12676009.30049  -9842949.11346  22701823.834    22701830.879
  22770450.525   -11696642.35249  -8788047.76346  22770450.415    22770459.982
  23587543.102    -7617238.69349  -5607194.05945  23587542.844    23587554.568
  23534357.845    -7411326.25549  -5740590.00246  23534357.963    23534366.842
  22568698.658   -15258530.22649 -11233161.90246  22568698.365    22568707.992
  22609284.305   -13384230.53649 -10407196.67646  22609284.358    22609294.364
  21135808.054   -24350127.76649 -18610424.06048  21135807.905    21135815.316
  22556523.102   -16887049.55149 -13104487.85946  22556523.273    22556530.820
 02  4  4  2 33  0.0000000  0 10G25G14G18G31G17G 9G15G 3G21G29
  24398825.088    -6344844.37449  -4929013.79845  24398825.256    24398840.510
  20330944.068   -23988584.63349 -17569784.73148  20330943.990    20330950.177
  22713915.928   -12612464.91349  -9793434.01546  22713915.844    22713922.874
  22772306.881   -11686887.01649  -8780446.18246  22772306.760    22772316.313
  23606759.732    -7516254.99949  -5528505.55645  23606759.610    23606771.331
  23543748.868    -7361976.05149  -5702135.28845  23543748.982    23543757.861
  22586082.084   -15167180.13849 -11161980.07446  22586081.761    22586091.392
  22621495.042   -13320062.77049 -10357195.86546  22621495.075    22621505.174
  21137565.030   -24340894.63349 -18603229.38847  21137564.858    21137572.286
  22572519.418   -16802988.55549 -13038985.79846  22572519.610    22572527.076
 02  4  4  2 33 30.0000000  0 10G25G14G18G31G17G 9G15G 3G21G29
  24379813.541    -6444748.86549  -5006860.87945  24379813.727    24379828.840
  20326749.552   -24010626.75249 -17586960.34548  20326749.464    20326755.622
  22726026.269   -12548824.77349  -9743844.29246  22726026.200    22726033.196
  22774267.028   -11676586.50949  -8772419.80146  22774266.893    22774276.383
  23626021.094    -7415036.66449  -5449634.21145  23626020.926    23626032.539
  23553244.059    -7312077.31749  -5663253.15545  23553244.179    23553253.203
  22603520.510   -15075541.19249 -11090573.13346  22603520.169    22603529.727
  22633770.181   -13255556.51549 -10306931.29846  22633770.237    22633780.337
  21139349.179   -24331518.40749 -18595923.21247  21139349.043    21139356.491
  22588547.724   -16718759.17249 -12973352.52046  22588547.894    22588555.423
 02  4  4  2 34  0.0000000  0 10G25G14G18G31G17G 9G15G 3G21G29
  24360796.125    -6544683.66349  -5084731.58545  24360796.313    24360811.395
  20322650.019   -24032169.63449 -17603746.95148  20322649.952    20322656.095
  22738154.830   -12485088.28049  -9694179.49246  22738154.783    22738161.813
  22776330.858   -11665741.13049  -8763968.84046  22776330.704    22776340.129
  23645326.792    -7313584.58349  -5370580.71445  23645326.671    23645338.239
  23562843.639    -7261631.16549  -5623944.47245  23562843.782    23562852.940
  22621013.627   -14983614.28349 -11018941.82646  22621013.359    22621022.875
  22646109.242   -13190714.13849 -10256404.80546  22646109.345    22646119.389
  21141160.813   -24321998.17149 -18588504.82347  21141160.649    21141168.136
  22604607.822   -16634362.98449 -12907589.26746  22604607.976    22604615.463
 02  4  4  2 34 30.0000000  0 10G25G14G18G31G17G 9G15G 3G21G29
  24341773.231    -6644647.01349  -5162624.53245  24341773.343    24341788.486
  20318645.329   -24053214.29549 -17620145.33448  20318645.255    20318651.370
  22750301.642   -12421256.13749  -9644440.17346  22750301.643    22750308.677
  22778498.056   -11654352.39349  -8755094.48246  22778497.874    22778507.261
  23664676.560    -7211901.03149  -5291346.87945  23664676.365    23664688.104
  23572547.060    -7210639.64249  -5584210.79645  23572547.165    23572556.339
  22638561.299   -14891401.46449 -10947087.75946  22638560.981    22638570.484
  22658511.834   -13125538.80949 -10205618.87146  22658511.829    22658521.876
  21142999.731   -24312334.24949 -18580974.47547  21142999.566    21143007.082
  22620699.010   -16549802.67649 -12841698.13046  22620699.276    22620706.723
 02  4  4  2 35  0.0000000  0 10G25G14G18G31G17G 9G15G 3G21G29
  24322745.189    -6744637.07849  -5240538.29745  24322745.385    24322760.370
  20314735.363   -24073761.18849 -17636155.84748  20314735.261    20314741.356
  22762466.713   -12357328.66149  -9594626.57046  22762466.652    22762473.712
  22780768.354   -11642421.83349  -8745797.92146  22780768.202    22780777.539
  23684070.099    -7109987.88949  -5211934.14445  23684069.889    23684081.574
  23582353.977    -7159104.39049  -5544053.44345  23582354.056    23582363.186
  22656163.001   -14798904.24849 -10875012.08646  22656162.655    22656172.042
  22670977.032   -13060033.58249 -10154575.88646  22670977.069    22670987.164
  21144866.033   -24302526.45449 -18573332.00647  21144865.884    21144873.435
  22636821.100   -16465080.65749 -12775680.98646  22636821.305    22636828.792
 02  4  4  2 35 30.0000000  0 10G25G14G18G31G17G 9G15G 3G21G29
  24303712.761    -6844649.94049  -5318469.85345  24303713.011    24303727.966
  20310920.184   -24093809.89549 -17651778.18048  20310920.083    20310926.138
  22774650.052   -12293305.21249  -9544738.16746  22774649.968    22774656.910
  22783141.738   -11629949.52749  -8736079.22646  22783141.589    22783150.925
  23703507.127    -7007845.73649  -5132342.94345  23703506.924    23703518.682
  23592264.085    -7107025.94749  -5503472.82345  23592264.186    23592273.390
  22673818.662   -14706122.96249 -10802715.02646  22673818.322    22673827.799
  22683504.760   -12994200.34449 -10103277.30646  22683504.757    22683514.816
  21146759.888   -24292574.00849 -18565576.82747  21146759.753    21146767.305
  22652973.740   -16380198.09149 -12709538.74146  22652973.943    22652981.445
 02  4  4  2 36  0.0000000  0 10G25G14G18G31G17G 9G15G 3G21G29
  24284676.457    -6944683.99649  -5396417.95345  24284676.709    24284691.438
  20307199.604   -24113361.67449 -17667013.29448  20307199.498    20307205.551
  22786851.387   -12229186.81549  -9494775.80046  22786851.281    22786858.366
  22785617.876   -11616937.59149  -8725940.04146  22785617.715    22785627.119
  23722987.385    -6905477.07949  -5052575.25745  23722987.128    23722998.887
  23602277.081    -7054406.87149  -5462470.95445  23602277.203    23602286.354
  22691527.994   -14613060.15549 -10730198.59046  22691527.583    22691537.187
  22696094.181   -12928043.07749 -10051726.24146  22696094.171    22696104.114
  21148681.335   -24282476.84649 -18557708.88447  21148681.173    21148688.701
  22669156.296   -16295158.16049 -12643273.86846  22669156.479    22669163.925
 02  4  4  2 36 30.0000000  0 10G25G14G18G31G17G 9G15G 3G21G29
  24265636.830    -7044736.10449  -5474380.11445  24265637.110    24265651.595
  20303573.527   -24132416.61849 -17681861.25548  20303573.419    20303579.466
  22799070.943   -12164973.07649  -9444739.09146  22799070.862    22799077.774
  22788196.528   -11603386.81749  -8715380.96946  22788196.310    22788205.760
  23742510.306    -6802883.28149  -4972632.15545  23742510.123    23742521.702
  23612392.707    -7001248.73149  -5421048.99545  23612392.830    23612401.957
  22709290.649   -14519716.96549 -10657463.65246  22709290.266    22709299.786
  22708744.801   -12861563.95449  -9999924.37846  22708744.793    22708754.725
  21150630.436   -24272234.45249 -18549727.77247  21150630.273    21150637.772
  22685368.542   -16209962.47249 -12576887.63646  22685368.666    22685376.164
 02  4  4  2 37  0.0000000  0 10G25G14G18G31G17G 9G15G 3G21G29
  24246594.221    -7144804.04549  -5552354.65545  24246594.363    24246608.585
  20300041.935   -24150974.97549 -17696322.26148  20300041.844    20300047.869
  22811308.304   -12100664.30949  -9394628.39846  22811308.300    22811315.352
  22790877.437   -11589298.53749  -8704403.06446  22790877.224    22790886.687
  23762075.842    -6700065.83949  -4892514.74245  23762075.548    23762087.358
  23622610.789    -6947553.01449  -5379208.16745  23622610.767    23622619.872
  22727106.322   -14426094.88849 -10584511.42546  22727106.011    22727115.579
  22721456.144   -12794765.79149  -9947873.91746  22721456.143    22721466.107
  21152607.173   -24261846.64549 -18541633.35347  21152606.995    21152614.460
  22701609.892   -16124613.28949 -12510381.79646  22701610.072    22701617.572
 02  4  4  2 37 30.0000000  0 10G25G14G18G31G17G 9G15G 3G21G29
  24227549.259    -7244884.42349  -5630338.90145  24227549.407    24227563.416
  20296604.846   -24169036.90549 -17710396.44548  20296604.733    20296610.746
  22823564.038   -12036260.23349  -9344443.41746  22823563.985    22823570.980
  22793660.625   -11574673.10749  -8693006.59646  22793660.357    22793669.784
  23781683.682    -6597025.92249  -4812224.02445  23781683.424    23781695.330
  23632930.767    -6893320.71049  -5336949.22845  23632930.763    23632940.025
  22744974.955   -14332194.98449 -10511342.70646  22744974.622    22744984.210
  22734227.705   -12727650.87349  -9895576.62346  22734227.711    22734237.715
  21154611.639   -24251312.96749 -18533425.26847  21154611.457    21154618.953
  22717880.184   -16039112.26249 -12443757.63046  22717880.419    22717887.883
 02  4  4  2 38  0.0000000  0 10G25G14G18G31G17G 9G15G 3G21G29
  24208502.171    -7344975.86649  -5708331.76245  24208502.293    24208516.347
  20293261.980   -24186603.85849 -17724084.93448  20293261.877    20293267.842
  22835837.657   -11971761.51149  -9294184.67546  22835837.679    22835844.684
  22796545.557   -11559512.72949  -8681193.28346  22796545.270    22796554.654
  23801333.646    -6493766.24749  -4731762.04945  23801333.339    23801344.961
  23643352.317    -6838554.56149  -5294274.29045  23643352.308    23643361.635
  22762895.999   -14238019.48149 -10437959.23046  22762895.605    22762905.195
  22747058.839   -12660222.98849  -9843035.46846  22747058.869    22747068.869
  21156643.868   -24240633.39849 -18525103.50247  21156643.680    21156651.176
  22734178.825   -15953462.37449 -12377017.47546  22734179.035    22734186.509
 02  4  4  2 38 30.0000000  0 10G25G14G18G31G17G 9G15G 3G21G29
  24189453.463    -7445075.23349  -5786330.80245  24189453.711    24189467.671
  20290013.257   -24203675.85349 -17737387.74148  20290013.126    20290019.076
  22848129.360   -11907167.95349  -9243852.05746  22848129.340    22848136.464
  22799532.045   -11543818.39549  -8668963.90346  22799531.733    22799541.173
  23821024.954    -6390287.90849  -4651129.68745  23821024.658    23821036.283
  23653875.253    -6783255.91949  -5251184.41645  23653875.292    23653884.560
  22780869.215   -14143569.46149 -10364361.86246  22780868.783    22780878.564
  22759949.067   -12592484.61849  -9790252.37546  22759949.065    22759959.113
  21158703.959   -24229807.28749 -18516667.54647  21158703.794    21158711.306
  22750505.525   -15867665.16449 -12310162.52246  22750505.703    22750513.219
 02  4  4  2 39  0.0000000  0 10G25G14G18G31G17G 9G15G 3G21G29
  24170403.888    -7545179.65249  -5864333.78345  24170404.068    24170417.887
  20286858.679   -24220253.10149 -17750305.03448  20286858.570    20286864.492
  22860439.190   -11842479.39649  -9193445.40846  22860439.097    22860446.369
  22802619.934   -11527591.08149  -8656319.21046  22802619.645    22802629.095
  23840757.629    -6286592.14049  -4570327.92645  23840757.347    23840769.025
  23664499.418    -6727425.94849  -5207680.51745  23664499.418    23664508.756
  22798894.451   -14048846.17849 -10290551.53146  22798894.114    22798903.827
  22772897.816   -12524438.46949  -9737229.45746  22772897.801    22772907.909
  21160792.075   -24218834.08049 -18508116.96647  21160791.899    21160799.404
  22766859.800   -15781722.62649 -12243194.32646  22766860.031    22766867.505
 02  4  4  2 39 30.0000000  0 10G25G14G18G31G17G 9G15G 3G21G29
  24151353.766    -7645286.80049  -5942338.86145  24151353.926    24151367.662
  20283798.086   -24236336.25949 -17762837.32748  20283797.979    20283803.912
  22872767.156   -11777696.31049  -9142965.04046  22872767.043    22872774.138
  22805808.963   -11510832.16349  -8643260.28646  22805808.727    22805818.147
  23860531.291    -6182681.10449  -4489358.39245  23860531.118    23860542.757
  23675224.191    -6671066.44749  -5163764.05445  23675224.253    23675233.556
  22816971.231   -13953851.37849 -10216529.67846  22816970.979    22816980.791
  22785904.638   -12456087.24449  -9683968.81346  22785904.606    22785914.740
  21162908.156   -24207713.87649 -18499451.84147  21162907.964    21162915.479
  22783241.458   -15695636.90649 -12176114.56046  22783241.640    22783249.177
 02  4  4  2 40  0.0000000  0 10G25G14G18G31G17G 9G15G 3G21G29
  24132303.525    -7745394.21549  -6020344.17145  24132303.695    24132317.376
  20280831.394   -24251926.09749 -17774985.20348  20280831.273    20280837.226
  22885112.904   -11712818.66349  -9092411.07246  22885112.865    22885120.112
  22809098.923   -11493543.09049  -8629788.25346  22809098.670    22809108.063
  23880345.617    -6078556.29649  -4408222.30645  23880345.551    23880357.179
  23686049.404    -6614179.58149  -5119436.62245  23686049.559    23686058.672
  22835099.460   -13858586.69449 -10142297.51746  22835099.190    22835109.202
  22798968.959   -12387433.98949  -9630472.80946  22798968.912    22798979.012
  21165052.304   -24196446.15649 -18490671.76747  21165052.119    21165059.634
  22799649.802   -15609410.42949 -12108925.12246  22799650.011    22799657.531
 02  4  4  2 40 30.0000000  0 10G25G14G18G31G17G 9G15G 3G21G29
  24113253.802    -7845499.47649  -6098347.80045  24113253.963    24113267.514
  20277958.462   -24267023.23249 -17786749.15048  20277958.382    20277964.304
  22897476.706   -11647846.96649  -9041783.74946  22897476.598    22897483.629
  22812489.468   -11475725.46149  -8615904.35946  22812489.252    22812498.602
  23900200.357    -5974219.77649  -4326921.24945  23900200.116    23900211.963
  23696974.832    -6556767.14449  -5074699.63745  23696974.945    23696983.830
  22853278.809   -13763053.88949 -10067856.40146  22853278.475    22853288.441
  22812090.221   -12318481.63449  -9576743.73846  22812090.188    22812100.243
  21167224.521   -24185030.94449 -18481776.76947  21167224.346    21167231.857
  22816084.565   -15523045.36749 -12041627.68746  22816084.723    22816092.237
 02  4  4  2 41  0.0000000  0 10G25G14G18G31G17G 9G15G 3G21G29
  24094204.972    -7945599.57249  -6176347.42045  24094205.140    24094218.662
  20275179.241   -24281627.88949 -17798129.34448  20275179.166    20275185.099
  22909858.278   -11582780.69649  -8991082.81846  22909858.305    22909865.545
  22815980.523   -11457380.25349  -8601609.37846  22815980.265    22815989.624
  23920095.132    -5869672.77449  -4245456.18045  23920094.882    23920106.854
  23707999.672    -6498830.61449  -5029554.31045  23707999.754    23708008.779
  22871508.903   -13667254.20749  -9993207.34746  22871508.634    22871518.663
  22825267.907   -12249232.75249  -9522783.61446  22825267.916    22825277.948
  21169425.021   -24173467.13549 -18472765.97447  21169424.852    21169432.350
  22832545.325   -15436543.29849 -11974223.50946  22832545.538    22832553.153
 02  4  4  2 41 30.0000000  0 10G25G14G18G31G17G 9G15G 3G21G29
  24075157.868    -8045691.74049  -6254340.85645  24075157.976    24075171.439
  20272493.649   -24295740.49249 -17809126.12248  20272493.545    20272499.475
  22922258.032   -11517619.61249  -8940307.96046  22922257.912    22922265.068
  22819571.676   -11438508.60449  -8586904.17246  22819571.409    22819580.786
  23940029.618    -5764916.65049  -4163828.14245  23940029.402    23940041.396
  23719124.004    -6440371.60749  -4984001.85345  23719124.143    23719133.264
  22889789.631   -13571188.77249  -9918351.17546  22889789.329    22889799.221
  22838501.463   -12179690.22749  -9468594.70146  22838501.464    22838511.558
  21171653.790   -24161754.84249 -18463639.48347  21171653.629    21171661.112
  22849031.860   -15349906.24249 -11906714.13946  22849032.034    22849039.593
 02  4  4  2 42  0.0000000  0 10G25G14G18G31G17G 9G15G 3G21G29
  24056112.489    -8145773.81449  -6332326.46545  24056112.601    24056125.878
  20269901.534   -24309362.07649 -17819740.29248  20269901.429    20269907.306
  22934675.692   -11452364.55149  -8889459.86046  22934675.703    22934682.842
  22823262.597   -11419112.60649  -8571790.39846  22823262.364    22823271.742
  23960003.457    -5659953.78149  -4082039.03145  23960003.244    23960015.306
  23730347.363    -6381392.43649  -4938044.06445  23730347.522    23730356.548
  22908120.498   -13474859.67449  -9843289.58346  22908120.198    22908130.156
  22851790.307   -12109857.29549  -9414179.46346  22851790.344    22851800.361
  21173910.874   -24149893.78049 -18454397.06347  21173910.707    21173918.186
  22865543.615   -15263136.44249 -11839101.33146  22865543.764    22865551.399
 02  4  4  2 42 30.0000000  0 10G25G14G18G31G17G 9G15G 3G21G29
  24037069.566    -8245842.58349  -6410301.68645  24037069.744    24037083.070
  20267402.806   -24322492.94449 -17829972.09248  20267402.689    20267408.548
  22947111.218   -11387014.95749  -8838538.13946  22947111.126    22947118.330
  22827053.131   -11399192.88649  -8556268.54446  22827052.900    22827062.308
  23980016.395    -5554785.26849  -4000089.68845  23980016.110    23980028.287
  23741669.485    -6321894.58249  -4891682.07745  23741669.654    23741678.570
  22926501.178   -13378268.19049  -9768023.56146  22926500.923    22926510.941
  22865133.944   -12039736.24649  -9359539.75046  22865133.957    22865144.051
  21176196.456   -24137882.92549 -18445037.92447  21176196.254    21176203.763
  22882080.241   -15176235.88549 -11771386.62146  22882080.425    22882088.055
 02  4  4  2 43  0.0000000  0 10G25G14G18G31G17G 9G15G 3G21G29
  24018029.686    -8345895.39849  -6488264.52945  24018029.965    24018042.937
  20264997.316   -24335133.65949 -17839821.95248  20264997.224    20265003.060
  22959564.827   -11321571.03849  -8787542.86446  22959564.764    22959571.856
  22830943.002   -11378751.10949  -8540339.87546  22830942.787    22830952.206
  24000068.083    -5449412.91449  -3917981.47245  24000067.939    24000080.128
  23753089.952    -6261879.79849  -4844917.31545  23753090.048    23753098.925
  22944931.573   -13281415.81849  -9692554.24846  22944931.275    22944941.422
  22878531.777   -11969330.06549  -9304677.85246  22878531.812    22878542.005
  21178510.543   -24125722.17049 -18435561.98347  21178510.342    21178517.829
  22898641.406   -15089206.48249 -11703571.51846  22898641.620    22898649.240
 02  4  4  2 43 30.0000000  0 10G25G14G18G31G17G 9G15G 3G21G29
  23998993.325    -8445930.43049  -6566213.48345  23998993.543    23999006.532
  20262684.915   -24347285.40149 -17849290.79248  20262684.815    20262690.621
  22972036.188   -11256033.21449  -8736474.46446  22972036.141    22972043.363
  22834931.900   -11357789.13249  -8524005.85746  22834931.696    22834941.085
  24020158.267    -5343839.08849  -3835716.30045  24020158.110    24020170.276
  23764608.235    -6201350.68249  -4797751.75945  23764608.424    23764617.184
  22963411.259   -13184304.52849  -9616883.16446  22963411.002    22963421.130
  22891983.263   -11898642.28949  -9249596.51146  22891983.319    22891993.433
  21180853.132   -24113411.56649 -18425969.27647  21180852.951    21180860.392
  22915226.678   -15002050.72049 -11635657.95746  22915226.819    22915234.501
 02  4  4  2 44  0.0000000  0 10G25G14G18G31G17G 9G15G 3G21G29
  23979961.020    -8545944.43849  -6644146.11545  23979961.169    23979974.076
  20260465.489   -24358948.32949 -17858378.73148  20260465.382    20260471.197
  22984525.604   -11190400.85749  -8685332.35146  22984525.544    22984532.659
  22839019.772   -11336307.71549  -8507267.08646  22839019.526    22839028.850
  24040286.599    -5238064.70449  -3753294.84045  24040286.456    24040298.655
  23776224.297    -6140308.07049  -4750186.08045  23776224.513    23776233.307
  22981939.959   -13086935.17749  -9541010.99046  22981939.784    22981949.914
  22905487.854   -11827675.02549  -9194297.39846  22905487.931    22905498.046
  21183224.509   -24100949.78649 -18416258.77447  21183224.319    21183231.757
  22931835.627   -14914769.93949 -11567646.96546  22931835.851    22931843.517
 02  4  4  2 44 30.0000000  0 10G25G14G18G31G17G 9G15G 3G21G29
  23960932.932    -8645935.81349  -6722061.06645  23960933.101    23960945.913
  20258338.730   -24370124.22749 -17867087.17548  20258338.634    20258344.458
  22997032.880   -11124675.13549  -8634117.53646  22997032.855    22997040.034
  22843205.799   -11314309.53449  -8490125.63846  22843205.568    22843214.928
  24060452.614    -5132092.40549  -3670719.13945  24060452.356    24060464.575
  23787937.387    -6078755.00949  -4702222.66745  23787937.604    23787946.414
  23000517.383   -12989310.58249  -9464939.93446  23000517.153    23000527.381
  22919044.935   -11756432.55049  -9138783.80046  22919044.956    22919055.048
  21185624.488   -24088337.46949 -18406430.96447  21185624.337    21185631.742
  22948467.830   -14827367.27849 -11499541.01546  22948468.026    22948475.769
 02  4  4  2 45  0.0000000  0 10G25G14G18G31G17G 9G15G 3G21G29
  23941910.046    -8745901.04249  -6799955.68445  23941910.131    23941922.649
  20256304.721   -24380812.85649 -17875415.94048  20256304.622    20256310.426
  23009557.938   -11058855.63149  -8582829.62346  23009557.814    23009565.055
  22847490.159   -11291795.46249  -8472582.19346  22847489.881    22847499.249
  24080655.959    -5025923.40749  -3587990.23045  24080655.629    24080667.958
  23799747.605    -6016692.73649  -4653862.44245  23799747.768    23799756.448
  23019143.249   -12891431.53449  -9388670.57846  23019143.038    23019153.198
  22932654.010   -11684916.65649  -9083057.17646  22932654.004    22932664.176
  21188053.290   -24075573.94649 -18396485.33147  21188053.146    21188060.526
  22965122.947   -14739844.15049 -11431341.19646  22965123.126    22965130.843
 02  4  4  2 45 30.0000000  0 10G25G14G18G31G17G 9G15G 3G21G29
  23922892.520    -8845837.05649  -6877827.54845  23922892.747    23922904.991
  20254363.356   -24391014.58149 -17883365.30248  20254363.276    20254369.037
  23022100.881   -10992941.94549  -8531468.30346  23022100.891    23022108.024
  22851872.324   -11268766.37749  -8454637.44946  22851872.108    22851881.556
  24100896.487    -4919558.96349  -3505108.96445  24100896.126    24100908.694
  23811654.190    -5954122.78649  -4605106.63345  23811654.354    23811663.073
  23037817.337   -12793299.05549  -9312203.77146  23037817.111    23037827.246
  22946314.546   -11613129.89849  -9027119.49946  22946314.617    22946324.812
  21190511.170   -24062657.88849 -18386420.84147  21190510.985    21190518.359
  22981800.740   -14652201.92249 -11363048.56146  22981800.970    22981808.628
 02  4  4  2 46  0.0000000  0 10G25G14G18G31G17G 9G15G 3G21G29
  23903881.061    -8945741.66749  -6955674.95545  23903881.288    23903893.296
  20252514.427   -24400730.62649 -17890936.21248  20252514.326    20252520.073
  23034661.723   -10926934.51749  -8480033.92846  23034661.705    23034668.850
  22856352.162   -11245224.63149  -8436293.22146  22856351.967    22856361.400
  24121173.795    -4813001.37349  -3422077.23945  24121173.499    24121186.067
  23823656.874    -5891048.09649  -4555957.51845  23823656.985    23823665.773
  23056539.058   -12694915.58649  -9235541.37046  23056538.821    23056548.974
  22960026.050   -11541075.75049  -8970973.45246  22960026.114    22960036.213
  21192997.903   -24049589.89649 -18376237.95647  21192997.723    21193005.069
  22998500.668   -14564443.40549 -11294665.32546  22998500.859    22998508.616
 02  4  4  2 46 30.0000000  0 10G25G14G18G31G17G 9G15G 3G21G29
  23884876.137    -9045612.54349  -7033496.09745  23884876.275    23884888.207
  20250757.675   -24409962.11049 -17898129.54348  20250757.582    20250763.309
  23047240.464   -10860833.41349  -8428526.59546  23047240.377    23047247.561
  22860929.332   -11221171.73449  -8417550.69446  22860929.118    22860938.503
  24141487.519    -4706252.61549  -3338896.52145  24141487.346    24141499.763
  23835755.217    -5827470.63849  -4506416.63145  23835755.260    23835764.130
  23075308.294   -12596283.00749  -9158684.87146  23075308.067    23075318.208
  22973787.854   -11468757.58349  -8914621.68646  22973787.907    22973797.961
  21195513.617   -24036369.56049 -18365936.36647  21195513.431    21195520.807
  23015222.323   -14476570.53249 -11226192.96346  23015222.513    23015230.144
 02  4  4  2 47  0.0000000  0 10G25G14G18G31G17G 9G15G 3G21G29
  23865878.202    -9145446.23949  -7111288.24045  23865878.286    23865890.149
  20249093.208   -24418708.83049 -17904945.13348  20249093.115    20249098.851
  23059837.103   -10794637.69949  -8376945.54046  23059837.017    23059844.252
  22865603.500   -11196608.86649  -8398410.78746  22865603.302    22865612.657
  24161837.541    -4599313.65749  -3255567.63145  24161837.229    24161849.600
  23847948.938    -5763391.69149  -4456484.98745  23847949.029    23847957.848
  23094124.762   -12497402.09249  -9081634.84946  23094124.490    23094134.659
  22987599.292   -11396177.31349  -8858065.69946  22987599.426    22987609.602
  21198058.553   -24022995.89349 -18355515.29547  21198058.350    21198065.724
  23031965.414   -14388584.67549 -11157632.56746  23031965.662    23031973.329
 02  4  4  2 47 30.0000000  0 10G25G14G18G31G17G 9G15G 3G21G29
  23846887.752    -9245240.60949  -7189049.79945  23846887.813    23846899.387
  20247520.692   -24426972.29549 -17911384.15748  20247520.593    20247526.316
  23072451.767   -10728348.24349  -8325291.39446  23072451.704    23072458.697
  22870374.237   -11171538.10449  -8378875.10846  22870374.050    22870383.488
  24182223.113    -4492186.88249  -3172092.39545  24182222.885    24182235.401
  23860237.620    -5698813.64149  -4406164.42645  23860237.821    23860246.742
  23112988.045   -12398274.94849  -9004392.96746  23112987.761    23112997.980
  23001460.097   -11323338.54349  -8801308.26246  23001460.200    23001470.463
  21200632.596   -24009468.95349 -18344974.80047  21200632.408    21200639.770
  23048729.685   -14300488.17049 -11088985.95846  23048729.896    23048737.532
 02  4  4  2 48  0.0000000  0 10G25G14G18G31G17G 9G15G 3G21G29
  23827905.157    -9344993.01449  -7266778.57445  23827905.215    23827917.010
  20246039.967   -24434753.21249 -17917447.16748  20246039.898    20246045.611
  23085084.078   -10661964.92449  -8273564.15846  23085083.959    23085091.077
  22875241.422   -11145960.79449  -8358944.71746  22875241.260    22875250.738
  24202644.241    -4384873.82749  -3088471.96645  24202643.938    24202656.528
  23872621.079    -5633738.37649  -4355456.44045  23872621.239    23872630.167
  23131897.911   -12298903.16749  -8926960.44846  23131897.630    23131907.821
  23015369.524   -11250243.95949  -8744351.48946  23015369.661    23015379.943
  21203235.988   -23995787.73149 -18334314.08547  21203235.815    21203243.188
  23065514.595   -14212283.03849 -11020254.70246  23065514.776    23065522.414
 02  4  4  2 48 30.0000000  0  9G25G14G18G31G 9G15G 3G21G29
  23808931.354    -9444699.60549  -7344471.75145  23808931.430    23808942.921
  20244651.210   -24442051.24449 -17923133.90648  20244651.130    20244656.812
  23097734.383   -10595486.74449  -8221762.97546  23097734.351    23097741.339
  22880204.822   -11119877.65249  -8338620.18146  22880204.674    22880214.196
  23885098.916    -5568166.98749  -4304361.84845  23885099.170    23885108.025
  23150854.249   -12199287.30249  -8849337.75446  23150853.907    23150864.191
  23029327.226   -11176895.40749  -8687196.85246  23029327.379    23029337.808
  21205869.011   -23981950.74849 -18323532.00147  21205868.853    21205876.235
  23082319.904   -14123970.21849 -10951439.53246  23082320.112    23082327.836
 02  4  4  2 49  0.0000000  0  9G25G14G18G31G 9G15G 3G21G29
  23789966.633    -9544359.15649  -7422128.22045  23789966.750    23789978.237
  20243353.905   -24448868.79649 -17928446.24348  20243353.788    20243359.450
  23110402.475   -10528915.26949  -8169889.10846  23110402.402    23110409.499
  22885263.935   -11093291.91849  -8317904.01546  22885263.771    22885273.328
  23897670.340    -5502103.11049  -4252883.51045  23897670.637    23897679.759
  23169856.408   -12099430.56749  -8771527.36646  23169856.072    23169866.235
  23043332.576   -11103297.26449  -8629847.69546  23043332.653    23043343.124
  21208531.549   -23967959.06149 -18312629.35947  21208531.389    21208538.741
  23099145.120   -14035552.88049 -10882542.91946  23099145.364    23099153.083
 02  4  4  2 49 30.0000000  0  9G25G14G18G31G 9G15G 3G21G29
  23771011.175    -9643968.96449  -7499745.94945  23771011.311    23771022.733
  20242147.813   -24455206.50449 -17933384.67648  20242147.703    20242153.368
  23123088.313   -10462250.30849  -8117942.42246  23123088.259    23123095.410
  22890418.478   -11066205.21149  -8296797.46546  22890418.243    22890427.764
  23910335.277    -5435548.48049  -4201022.77445  23910335.539    23910344.666
  23188904.202   -11999334.31949  -8693530.32746  23188903.856    23188913.918
  23057384.847   -11029452.42549  -8572306.33146  23057384.924    23057395.328
  21211223.567   -23953812.38749 -18301605.95347  21211223.396    21211230.718
  23115990.041   -13947032.82049 -10813566.25946  23115990.233    23115997.909
 02  4  4  2 50  0.0000000  0  9G25G14G18G31G 9G15G 3G21G29
  23752065.902    -9743526.16249  -7577322.66645  23752066.017    23752077.400
  20241032.952   -24461065.00549 -17937949.70148  20241032.845    20241038.490
  23135792.162   -10395491.70849  -8065922.71946  23135792.085    23135799.028
  22895667.898   -11038618.97849  -8275301.68646  22895667.709    22895677.215
  23923093.074    -5368505.22649  -4148781.27345  23923093.298    23923102.547
  23207997.183   -11898999.98049  -8615347.77546  23207996.888    23208006.967
  23071483.466   -10955363.53449  -8514574.77746  23071483.594    23071493.984
  21213945.254   -23939509.91049 -18290461.14747  21213945.051    21213952.355
  23132854.032   -13858412.07149 -10744511.13746  23132854.159    23132861.853
 02  4  4  2 50 30.0000000  0  9G25G14G18G31G 9G15G 3G21G29
  23733131.009    -9843028.17749  -7654856.38545  23733131.146    23733142.611
  20240009.057   -24466445.38149 -17942142.16648  20240008.973    20240014.619
  23148513.535   -10328639.55249  -8013830.16746  23148513.488    23148520.596
  22901012.152   -11010535.07549  -8253418.12246  22901011.879    22901021.331
  23935943.458    -5300975.59549  -4096160.77345  23935943.711    23935952.929
  23227135.224   -11798429.46449  -8536981.19246  23227134.899    23227145.031
  23085628.160   -10881033.53349  -8456655.35046  23085628.222    23085638.579
  21216696.617   -23925051.29149 -18279194.66947  21216696.427    21216703.727
  23149736.795   -13769692.59949 -10675379.09346  23149736.920    23149744.582
 02  4  4  2 51  0.0000000  0  9G25G14G18G31G 9G15G 3G21G29
  23714207.208    -9942472.58149  -7732345.28745  23714207.317    23714218.527
  20239075.847   -24471349.12649 -17945963.22548  20239075.779    20239081.401
  23161252.820   -10261694.31049  -7961665.03946  23161252.699    23161259.781
  22906450.567   -10981955.65949  -8231148.44546  22906450.335    22906459.727
  23948886.154    -5232961.76649  -4043163.00045  23948886.381    23948895.478
  23246317.829   -11697624.82649  -8458432.18246  23246317.459    23246327.563
  23099817.912   -10806466.00749  -8398550.85246  23099817.929    23099828.306
  21219477.666   -23910436.57149 -18267806.55247  21219477.501    21219484.793
  23166637.964   -13680876.58349 -10606171.80946  23166638.050    23166645.759
 02  4  4  2 51 30.0000000  0  9G25G14G18G31G 9G15G 3G21G29
  23695295.043   -10041855.29549  -7809786.05846  23695295.178    23695306.486
  20238233.483   -24475775.70149 -17949412.46548  20238233.393    20238239.014
  23174009.890   -10194655.05149  -7909426.63846  23174009.907    23174016.800
  22911983.142   -10952881.66249  -8208493.36946  22911982.964    22911992.331
  23961920.511    -5164465.15049  -3989789.05545  23961920.757    23961929.873
  23265544.733   -11596586.87949  -8379701.37046  23265544.359    23265554.465
  23114052.381   -10731662.92949  -8340262.80846  23114052.464    23114062.924
  21222288.853   -23895663.74049 -18256295.23547  21222288.675    21222295.919
  23183557.172   -13591964.97249 -10536890.05546  23183557.357    23183565.082
 02  4  4  2 52  0.0000000  0  9G25G14G18G31G 9G15G 3G21G29
  23676394.948   -10141174.39049  -7887177.28745  23676395.092    23676406.262
  20237481.599   -24479726.70249 -17952491.12848  20237481.533    20237487.113
  23186784.942   -10127521.78249  -7857115.02146  23186784.883    23186792.063
  22917609.453   -10923315.04149  -8185454.42846  22917609.280    22917618.626
  23975046.514    -5095488.12149  -3936040.72045  23975046.760    23975055.819
  23284815.748   -11495317.33649  -8300790.11746  23284815.357    23284825.487
  23128331.426   -10656627.29849  -8281793.53946  23128331.459    23128341.790
  21225130.106   -23880732.90949 -18244660.80147  21225129.928    21225137.160
  23200494.297   -13502959.73749 -10467535.34446  23200494.541    23200502.251
 02  4  4  2 52 30.0000000  0 10G25G14G11G18G31G 9G15G 3G21G29
  23657507.127   -10240429.88649  -7964518.94345  23657507.149    23657518.288
  20236819.588   -24483205.66549 -17955201.96348  20236819.501    20236825.061
  24701471.827    -4899959.49849  -3802565.48145  24701471.658    24701482.714
  23199577.277   -10060297.75049  -7804732.64146  23199577.257    23199584.372
  22923328.566   -10893260.48449  -8162035.28146  22923328.350    22923337.788
  23988262.878    -5026035.69449  -3881921.95045  23988263.091    23988272.157
  23304129.918   -11393821.01949  -8221702.13046  23304129.576    23304139.680
  23142653.518   -10581364.88149  -8223147.55446  23142653.454    23142663.833
  21228000.887   -23865646.51349 -18232905.14647  21228000.721    21228007.963
  23217448.365   -13413865.90849 -10398111.59446  23217448.525    23217456.282
 02  4  4  2 53  0.0000000  0 10G25G14G11G18G31G 9G15G 3G21G29
  23638632.152   -10339617.00649  -8041807.31346  23638632.177    23638643.426
  20236247.560   -24486211.61749 -17957544.22248  20236247.467    20236253.015
  24682194.064    -5001263.46849  -3881503.39445  24682193.903    24682205.080
  23212387.143    -9992980.82249  -7752277.91846  23212387.129    23212394.338
  22929140.612   -10862717.78549  -8138235.76546  22929140.367    22929149.882
  24001569.589    -4956108.05449  -3827432.90645  24001569.809    24001579.021
  23323487.244   -11292097.25249  -8142436.94546  23323486.886    23323497.172
  23157018.323   -10505876.88149  -8164325.81946  23157018.329    23157028.797
  21230901.792   -23850402.11049 -18221026.37147  21230901.623    21230908.873
  23234419.331   -13324683.24549 -10328618.62846  23234419.437    23234427.183
 02  4  4  2 53 30.0000000  0 10G25G14G11G18G31G 9G15G 3G21G29
  23619771.302   -10438731.49949  -8119039.16946  23619771.333    23619782.143
  20235765.685   -24488743.57149 -17959517.13148  20235765.601    20235771.162
  24662932.525    -5102481.58449  -3960374.40245  24662932.508    24662943.739
  23225215.356    -9925568.75449  -7699749.04346  23225215.358    23225222.546
  22935045.601   -10831686.60649  -8114055.62046  22935045.378    22935054.913
  24014966.736    -4885705.65049  -3772573.90245  24014966.975    24014976.051
  23342887.939   -11190146.04649  -8062994.49646  23342887.705    23342897.886
  23171426.051   -10430164.44149  -8105329.18146  23171426.006    23171436.462
  21233833.209   -23834997.20749 -18209022.52547  21233833.063    21233840.315
  23251407.149   -13235411.80149 -10259056.45846  23251407.315    23251414.986
 02  4  4  2 54  0.0000000  0 10G25G14G11G18G31G 9G15G 3G21G29
  23600924.395   -10537771.22549  -8196212.70446  23600924.391    23600935.340
  20235373.691   -24490803.39649 -17961122.15048  20235373.592    20235379.166
  24643687.691    -5203612.50349  -4039177.46745  24643687.671    24643698.787
  23238061.451    -9858062.37449  -7647146.64646  23238061.345    23238068.482
  22941043.047   -10800169.78749  -8089497.05246  22941042.866    22941052.432
  24028453.816    -4814831.31249  -3717347.14545  24028454.037    24028462.972
  23362331.502   -11087969.82349  -7983376.73546  23362331.234    23362341.493
  23185875.740   -10354230.97949  -8046160.30346  23185875.722    23185886.194
  21236795.243   -23819431.72949 -18196893.55547  21236795.073    21236802.303
  23268411.333   -13146054.13849 -10189427.13846  23268411.534    23268419.205
 02  4  4  2 54 30.0000000  0 10G25G14G11G18G31G 9G15G 3G21G29
  23582092.276   -10636733.34849  -8273325.78446  23582092.427    23582103.210
  20235071.377   -24492391.93949 -17962359.94048  20235071.272    20235076.848
  24624459.935    -5304653.94549  -4117910.78045  24624459.892    24624470.991
  23250925.451    -9790461.74049  -7594470.83346  23250925.309    23250932.587
  22947132.657   -10768168.97949  -8064561.36446  22947132.501    22947142.002
  24042030.165    -4743487.20249  -3661754.34645  24042030.418    24042039.495
  23381817.678   -10985570.03149  -7903584.73346  23381817.315    23381827.506
  23200366.910   -10278079.39849  -7986821.48146  23200366.890    23200377.456
  21239787.900   -23803705.18349 -18184639.08247  21239787.721    21239794.941
  23285431.584   -13056611.81449 -10119731.82546  23285431.870    23285439.426
 02  4  4  2 55  0.0000000  0 10G25G14G11G18G31G 9G15G 3G21G29
  23563275.376   -10735615.58349  -8350376.63346  23563275.543    23563286.205
  20234858.413   -24493510.75649 -17963231.70548  20234858.309    20234863.881
  24605249.464    -5405604.45349  -4196573.26445  24605249.451    24605260.456
  23263807.373    -9722767.20049  -7541721.82046  23263807.271    23263814.410
  22953313.872   -10735686.76549  -8039250.53946  22953313.682    22953323.112
  24055695.537    -4671676.18849  -3605797.71145  24055695.688    24055704.727
  23401345.722   -10882949.02749  -7823620.41246  23401345.445    23401355.728
  23214899.026   -10201713.22749  -7927315.44846  23214899.000    23214909.614
  21242811.141   -23787817.68749 -18172259.18947  21242810.988    21242818.208
  23302467.516   -12967087.34549 -10049972.50646  23302467.827    23302475.342
 02  4  4  2 55 30.0000000  0 10G25G14G11G18G31G 9G15G 3G21G29
  23544474.095   -10834415.74549  -8427363.49846  23544474.180    23544484.900
  20234734.640   -24494161.04549 -17963738.38748  20234734.555    20234740.103
  24586056.811    -5506462.24049  -4275163.49045  24586056.658    24586067.569
  23276706.880    -9654979.40549  -7488900.17346  23276706.733    23276713.925
  22959586.267   -10702725.44049  -8013566.38646  22959586.029    22959595.370
  24069449.267    -4599400.73449  -3549479.21145  24069449.417    24069458.504
  23420915.635   -10780109.02349  -7743485.40345  23420915.247    23420925.480
  23229471.193   -10125135.90549  -7867644.87846  23229471.142    23229481.846
  21245865.061   -23771769.15849 -18159753.81747  21245864.914    21245872.124
  23319518.709   -12877482.95849  -9980150.91546  23319518.963    23319526.468
 02  4  4  2 56  0.0000000  0 10G25G14G11G18G31G 9G15G 3G21G29
  23525689.116   -10933130.41949  -8504283.78246  23525689.236    23525699.936
  20234699.905   -24494343.37749 -17963880.42848  20234699.809    20234705.352
  24566882.157    -5607224.28949  -4353679.11545  24566881.992    24566892.978
  23289624.372    -9587097.34849  -7436005.06746  23289624.318    23289631.572
  22965949.537   -10669286.08849  -7987509.75346  22965949.344    22965958.664
  24083290.648    -4526662.58649  -3492800.14845  24083290.865    24083300.027
  23440526.930   -10677051.04949  -7663180.56845  23440526.611    23440536.834
  23244083.181   -10048349.44149  -7807811.34146  23244083.156    23244093.824
  21248949.917   -23755558.08849 -18147121.79347  21248949.768    21248956.961
  23336584.852   -12787799.77949  -9910267.93346  23336585.108    23336592.621
 02  4  4  2 56 30.0000000  0 10G25G14G11G18G31G 9G15G 3G21G29
  23506920.895   -11031757.15649  -8581135.58646  23506921.079    23506931.447
  20234753.963   -24494058.95449 -17963658.76048  20234753.871    20234759.439
  24547725.843    -5707888.74649  -4432118.70445  24547726.082    24547736.977
  23302559.948    -9519121.28649  -7383036.71846  23302559.793    23302566.933
  22972403.265   -10635371.25349  -7961082.59746  22972403.076    22972412.432
  24097219.710    -4453464.29749  -3435762.54645  24097219.933    24097229.173
  23460179.343   -10573777.37449  -7582707.65645  23460178.936    23460189.182
  23258734.348    -9971357.27849  -7747817.50146  23258734.363    23258744.925
  21252065.727   -23739184.31349 -18134362.97947  21252065.571    21252072.771
  23353665.517   -12698039.98849  -9840325.26846  23353665.793    23353673.410
 02  4  4  2 57  0.0000000  0 10G25G14G11G18G31G 9G15G 3G21G29
  23488169.880   -11130293.18149  -8657916.66046  23488170.189    23488180.594
  20234896.652   -24493309.12549 -17963074.44148  20234896.563    20234902.114
  24528588.561    -5808453.72149  -4510480.80445  24528588.982    24528599.686
  23315513.052    -9451051.57449  -7329995.37745  23315512.917    23315519.936
  22978947.053   -10600982.98949  -7934286.55446  22978946.846    22978956.320
  24111235.948    -4379808.26949  -3378368.25245  24111236.129    24111245.431
  23479872.562   -10470289.72149  -7502067.98945  23479872.182    23479882.258
  23273424.126    -9894162.50949  -7687665.80346  23273424.103    23273434.567
  21255212.546   -23722647.59249 -18121477.19647  21255212.383    21255219.588
  23370760.525   -12608205.48649  -9770324.36746  23370760.788    23370768.346
 02  4  4  2 57 30.0000000  0 10G25G14G11G18G31G 9G15G 3G21G29
  23469436.544   -11228735.65349  -8734624.82546  23469436.956    23469447.454
  20235127.705   -24492094.85749 -17962128.22448  20235127.623    20235133.126
  24509470.922    -5908916.92249  -4588763.56845  24509471.376    24509481.896
  23328484.152    -9382887.92649  -7276880.83746  23328484.047    23328491.078
  22985580.557   -10566123.20549  -7907123.08946  22985580.414    22985589.948
  24125338.925    -4305696.63049  -3320618.95445  24125339.105    24125348.406
  23499605.938   -10366589.74649  -7421262.90745  23499605.621    23499615.850
  23288151.769    -9816768.10249  -7627358.53646  23288151.778    23288162.240
  21258390.414   -23705947.44949 -18108464.07447  21258390.273    21258397.509
  23387869.396   -12518297.88949  -9700266.52646  23387869.615    23387877.247
 02  4  4  2 58  0.0000000  0 10G25G14G11G18G31G 9G15G 3G21G29
  23450721.665   -11327082.51949  -8811258.53346  23450721.933    23450732.302
  20235446.871   -24490417.56349 -17960821.20948  20235446.772    20235452.242
  24490372.977    -6009276.57149  -4666965.67245  24490373.347    24490383.787
  23341473.165    -9314630.46349  -7223693.25046  23341472.995    23341480.336
  22992303.440   -10530794.36149  -7879594.12846  22992303.289    22992312.898
  24139528.118    -4231132.20849  -3262516.81645  24139528.312    24139537.551
  23519379.523   -10262679.48649  -7340293.95145  23519379.173    23519389.387
  23302916.895    -9739177.28149  -7566898.23046  23302916.836    23302927.279
  21261599.575   -23689083.15449 -18095323.03947  21261599.431    21261606.645
  23404991.714   -12428319.52249  -9630153.51546  23404991.901    23404999.572
 02  4  4  2 58 30.0000000  0 10G25G14G11G18G31G 9G15G 3G21G29
  23432025.476   -11425331.15849  -8887815.65446  23432025.617    23432036.062
  20235853.899   -24488278.46449 -17959154.33948  20235853.810    20235859.292
  24471295.290    -6109530.43349  -4745085.33745  24471295.535    24471305.876
  23354479.736    -9246279.52749  -7170432.78445  23354479.720    23354486.894
  22999115.302   -10494998.64849  -7851701.37246  22999115.074    22999124.602
  24153803.048    -4156117.41749  -3204063.72745  24153803.260    24153812.389
  23539192.775   -10158560.80949  -7259162.58945  23539192.366    23539202.636
  23317718.783    -9661393.09349  -7506287.23646  23317718.749    23317729.158
  21264840.015   -23672054.51249 -18082053.93747  21264839.868    21264847.047
  23422127.110   -12338272.12349  -9559986.74546  23422127.279    23422135.082
